[[{"header":{"parameterUnit":"m.s-1","parameterCategory":1,"la1":30.6,"la2":29.2853,"lo1":-89.7004,"lo2":-87.6739,"dy":0.0162,"dx":0.0183,"nx":112,"ny":82,"refTime":"2023-08-11T06:00:00:Z","depth":0,"parameterNumber":2,"parameterNumberName":"U-component_of_WINDS"},"data":[0.0,0.0,0.0,0.0,0.0,0.0,0.0,0.0,0.0,0.0,0.0,0.0,0.0,0.0,0.0,0.0,0.0,0.0,0.0,0.0,0.0,0.0,0.0,0.0,0.0,0.0,0.0,0.0,0.0,0.0,0.0,0.0,0.0,0.0,0.0,0.0,0.0,0.0,0.0,0.0,0.0,0.0,0.0,0.0,0.0,0.0,0.0,0.0,0.0,0.0,0.0,0.0,0.0,0.0,0.0,0.0,0.0,0.0,0.0,0.0,0.0,0.0,0.0,0.0,0.0,0.0,0.0,0.0,0.0,0.0,0.0,0.0,0.0,0.0,0.0,0.0,0.0,0.0,0.0,0.0,0.0,0.0,0.0,0.0,0.0,0.0,0.0,0.0,0.0,0.0,-3.2507,-3.2716,-3.2654,-3.2573,-3.2573,-3.2573,-3.237,-3.1858,0.0,0.0,0.0,0.0,0.0,0.0,0.0,0.0,0.0,0.0,0.0,0.0,0.0,0.0,0.0,0.0,0.0,0.0,0.0,0.0,0.0,0.0,0.0,0.0,0.0,0.0,0.0,0.0,0.0,0.0,0.0,0.0,0.0,0.0,0.0,0.0,0.0,0.0,0.0,0.0,0.0,0.0,0.0,0.0,0.0,0.0,0.0,0.0,0.0,0.0,0.0,0.0,0.0,0.0,0.0,0.0,0.0,0.0,0.0,0.0,0.0,0.0,0.0,0.0,0.0,0.0,0.0,0.0,0.0,0.0,0.0,0.0,0.0,0.0,0.0,0.0,0.0,0.0,0.0,0.0,0.0,0.0,0.0,0.0,0.0,0.0,0.0,0.0,0.0,0.0,0.0,0.0,0.0,0.0,0.0,0.0,0.0,0.0,0.0,0.0,0.0,0.0,0.0,0.0,-3.2422,-3.2457,-3.2457,-3.2422,-3.2422,-3.2422,-3.2196,-3.1579,0.0,0.0,0.0,0.0,0.0,0.0,0.0,0.0,0.0,0.0,0.0,0.0,0.0,0.0,0.0,0.0,0.0,0.0,0.0,0.0,0.0,0.0,0.0,0.0,0.0,0.0,0.0,0.0,0.0,0.0,0.0,0.0,0.0,0.0,0.0,0.0,0.0,0.0,0.0,0.0,0.0,0.0,0.0,0.0,0.0,0.0,0.0,0.0,0.0,0.0,0.0,0.0,0.0,0.0,0.0,0.0,0.0,0.0,0.0,0.0,0.0,0.0,0.0,0.0,0.0,0.0,0.0,0.0,0.0,0.0,0.0,0.0,0.0,0.0,0.0,0.0,0.0,0.0,0.0,0.0,0.0,0.0,0.0,0.0,0.0,0.0,0.0,0.0,0.0,0.0,0.0,0.0,0.0,0.0,0.0,0.0,0.0,0.0,0.0,0.0,0.0,0.0,0.0,-3.2406,-3.2406,-3.2406,-3.2406,-3.2406,-3.2406,-3.2232,-3.1965,-3.1521,-3.1329,0.0,0.0,0.0,0.0,0.0,0.0,0.0,0.0,0.0,0.0,0.0,0.0,0.0,0.0,0.0,0.0,0.0,0.0,0.0,0.0,0.0,0.0,0.0,0.0,0.0,0.0,0.0,0.0,0.0,0.0,0.0,0.0,0.0,0.0,0.0,0.0,0.0,0.0,0.0,0.0,0.0,0.0,0.0,0.0,0.0,0.0,0.0,0.0,0.0,0.0,0.0,0.0,0.0,0.0,0.0,0.0,0.0,0.0,0.0,0.0,0.0,0.0,0.0,0.0,0.0,0.0,0.0,0.0,0.0,0.0,0.0,0.0,0.0,0.0,0.0,0.0,0.0,0.0,0.0,0.0,0.0,0.0,0.0,0.0,0.0,0.0,0.0,0.0,0.0,0.0,0.0,0.0,0.0,0.0,0.0,0.0,0.0,0.0,0.0,0.0,0.0,0.0,-3.2406,-3.2406,-3.2406,-3.2406,-3.2354,-3.2284,-3.2055,-3.1748,-3.1389,-3.1134,0.0,0.0,0.0,0.0,0.0,0.0,0.0,0.0,0.0,0.0,0.0,0.0,0.0,0.0,0.0,0.0,0.0,0.0,0.0,0.0,0.0,0.0,0.0,0.0,0.0,0.0,0.0,0.0,0.0,0.0,0.0,0.0,0.0,0.0,0.0,0.0,0.0,0.0,0.0,0.0,0.0,0.0,0.0,0.0,0.0,0.0,0.0,0.0,0.0,0.0,0.0,0.0,0.0,0.0,0.0,0.0,0.0,0.0,0.0,0.0,0.0,0.0,0.0,0.0,0.0,0.0,0.0,0.0,0.0,0.0,0.0,0.0,0.0,0.0,0.0,0.0,0.0,0.0,0.0,0.0,0.0,0.0,0.0,0.0,0.0,0.0,0.0,0.0,0.0,0.0,0.0,0.0,0.0,0.0,0.0,0.0,0.0,0.0,0.0,0.0,0.0,0.0,-3.2406,-3.2406,-3.2406,-3.2406,-3.2267,-3.1984,-3.1894,-3.1637,-3.1055,-3.1015,0.0,0.0,0.0,0.0,0.0,0.0,0.0,0.0,0.0,0.0,0.0,0.0,0.0,0.0,0.0,0.0,0.0,0.0,0.0,0.0,0.0,0.0,0.0,0.0,0.0,0.0,0.0,0.0,0.0,0.0,0.0,0.0,0.0,0.0,0.0,0.0,0.0,0.0,0.0,0.0,0.0,0.0,0.0,0.0,0.0,0.0,0.0,0.0,0.0,0.0,0.0,0.0,0.0,0.0,0.0,0.0,0.0,0.0,0.0,0.0,0.0,0.0,0.0,0.0,0.0,0.0,0.0,0.0,0.0,0.0,0.0,0.0,0.0,0.0,0.0,0.0,0.0,0.0,0.0,0.0,0.0,0.0,0.0,0.0,0.0,0.0,0.0,0.0,0.0,0.0,0.0,0.0,0.0,0.0,0.0,0.0,0.0,0.0,0.0,0.0,0.0,0.0,-3.2406,-3.2319,-3.2108,-3.2108,-3.1948,-3.1691,-3.1466,-3.1235,-3.1015,0.0,0.0,0.0,0.0,0.0,0.0,0.0,0.0,0.0,0.0,0.0,0.0,0.0,0.0,0.0,0.0,0.0,0.0,0.0,0.0,0.0,0.0,0.0,0.0,0.0,0.0,0.0,0.0,0.0,0.0,0.0,0.0,0.0,0.0,0.0,0.0,0.0,0.0,0.0,0.0,0.0,0.0,0.0,0.0,0.0,0.0,0.0,0.0,0.0,0.0,0.0,0.0,0.0,0.0,0.0,0.0,0.0,0.0,0.0,0.0,0.0,0.0,0.0,0.0,0.0,0.0,0.0,0.0,0.0,0.0,0.0,0.0,0.0,0.0,0.0,0.0,0.0,0.0,0.0,0.0,0.0,0.0,0.0,0.0,0.0,0.0,0.0,0.0,0.0,0.0,0.0,0.0,0.0,0.0,0.0,0.0,0.0,0.0,0.0,0.0,0.0,0.0,-3.2406,-3.2319,-3.2144,-3.193,-3.1821,-3.1654,-3.1368,-3.1134,-3.0935,-3.0855,0.0,0.0,0.0,0.0,0.0,0.0,0.0,0.0,0.0,0.0,0.0,0.0,0.0,0.0,0.0,0.0,0.0,0.0,0.0,0.0,0.0,0.0,0.0,0.0,0.0,0.0,0.0,0.0,0.0,0.0,0.0,0.0,0.0,0.0,0.0,0.0,0.0,0.0,0.0,0.0,0.0,0.0,0.0,0.0,0.0,0.0,0.0,0.0,0.0,0.0,0.0,0.0,0.0,0.0,0.0,0.0,0.0,0.0,0.0,0.0,0.0,0.0,0.0,0.0,0.0,0.0,0.0,0.0,0.0,0.0,0.0,0.0,0.0,0.0,0.0,0.0,0.0,0.0,0.0,0.0,0.0,0.0,0.0,0.0,0.0,0.0,0.0,0.0,0.0,0.0,0.0,0.0,0.0,0.0,0.0,0.0,0.0,0.0,0.0,0.0,0.0,0.0,-3.2354,-3.2108,-3.1894,-3.1894,-3.1654,-3.1351,-3.1015,-3.0975,-3.0855,0.0,0.0,0.0,0.0,0.0,0.0,0.0,0.0,0.0,0.0,0.0,0.0,0.0,0.0,0.0,0.0,0.0,0.0,0.0,0.0,0.0,0.0,0.0,0.0,0.0,0.0,0.0,0.0,0.0,0.0,0.0,0.0,0.0,0.0,0.0,0.0,0.0,0.0,0.0,0.0,0.0,0.0,0.0,0.0,0.0,0.0,0.0,0.0,0.0,0.0,0.0,0.0,0.0,0.0,0.0,0.0,0.0,0.0,0.0,0.0,0.0,0.0,0.0,0.0,0.0,0.0,0.0,0.0,0.0,0.0,0.0,0.0,0.0,0.0,0.0,0.0,0.0,0.0,0.0,0.0,0.0,0.0,0.0,0.0,0.0,0.0,0.0,0.0,0.0,0.0,0.0,0.0,0.0,0.0,0.0,0.0,0.0,0.0,0.0,0.0,0.0,0.0,0.0,-3.1746,-3.1654,-3.1542,-3.1274,-3.1196,-3.1015,-3.0692,-3.0651,-3.0551,-3.0316,0.0,0.0,0.0,0.0,0.0,0.0,0.0,0.0,0.0,0.0,0.0,0.0,0.0,0.0,0.0,0.0,0.0,0.0,0.0,0.0,0.0,0.0,0.0,0.0,0.0,0.0,0.0,0.0,0.0,0.0,0.0,0.0,0.0,0.0,0.0,0.0,0.0,0.0,0.0,0.0,0.0,0.0,0.0,0.0,0.0,0.0,0.0,0.0,0.0,0.0,0.0,0.0,0.0,0.0,0.0,0.0,0.0,0.0,0.0,0.0,0.0,0.0,0.0,0.0,0.0,0.0,0.0,0.0,0.0,0.0,0.0,0.0,0.0,0.0,0.0,0.0,0.0,0.0,0.0,0.0,0.0,0.0,0.0,0.0,0.0,0.0,0.0,0.0,0.0,0.0,0.0,0.0,0.0,0.0,0.0,0.0,0.0,0.0,0.0,0.0,0.0,0.0,-3.1466,-3.1389,-3.1213,-3.1015,-3.0895,-3.0692,-3.0401,-3.0401,-3.0258,-3.0044,0.0,0.0,0.0,0.0,0.0,0.0,0.0,0.0,0.0,0.0,0.0,0.0,0.0,0.0,0.0,0.0,0.0,0.0,0.0,0.0,0.0,0.0,0.0,0.0,0.0,0.0,0.0,0.0,0.0,0.0,0.0,0.0,0.0,0.0,0.0,0.0,0.0,0.0,0.0,0.0,0.0,0.0,0.0,0.0,0.0,0.0,0.0,0.0,0.0,0.0,0.0,0.0,0.0,0.0,0.0,0.0,0.0,0.0,0.0,0.0,0.0,0.0,0.0,0.0,0.0,0.0,0.0,0.0,0.0,0.0,0.0,0.0,0.0,0.0,0.0,0.0,0.0,0.0,0.0,0.0,0.0,0.0,0.0,0.0,0.0,0.0,0.0,0.0,0.0,0.0,0.0,0.0,0.0,0.0,0.0,0.0,0.0,0.0,0.0,0.0,0.0,0.0,-3.1312,-3.1078,-3.0935,-3.0878,-3.0634,-3.0342,-3.0189,-3.0146,-3.0044,-2.9766,0.0,0.0,0.0,0.0,0.0,0.0,0.0,0.0,0.0,0.0,0.0,0.0,0.0,0.0,0.0,0.0,0.0,0.0,0.0,0.0,0.0,0.0,0.0,0.0,0.0,0.0,0.0,0.0,0.0,0.0,0.0,0.0,0.0,0.0,0.0,0.0,0.0,0.0,0.0,0.0,0.0,0.0,0.0,0.0,0.0,0.0,0.0,0.0,0.0,0.0,0.0,0.0,0.0,0.0,0.0,0.0,0.0,0.0,0.0,0.0,-3.6301,-3.6301,0.0,0.0,0.0,0.0,0.0,0.0,0.0,0.0,0.0,0.0,0.0,0.0,0.0,0.0,0.0,0.0,0.0,0.0,0.0,0.0,0.0,0.0,0.0,0.0,0.0,0.0,0.0,0.0,0.0,0.0,0.0,0.0,0.0,0.0,0.0,0.0,0.0,0.0,0.0,0.0,-3.0225,-3.03,-3.03,-3.007,-2.9984,-2.9941,-2.9897,-2.9897,-2.9677,-2.9136,-2.8951,0.0,0.0,0.0,0.0,0.0,0.0,0.0,0.0,0.0,0.0,0.0,0.0,0.0,0.0,0.0,0.0,0.0,0.0,0.0,0.0,0.0,0.0,0.0,0.0,0.0,0.0,0.0,0.0,0.0,0.0,0.0,0.0,0.0,0.0,0.0,0.0,0.0,0.0,0.0,0.0,0.0,0.0,0.0,0.0,0.0,0.0,0.0,0.0,0.0,0.0,0.0,0.0,0.0,0.0,0.0,0.0,0.0,0.0,0.0,-3.6301,-3.6301,0.0,0.0,0.0,0.0,0.0,0.0,0.0,0.0,0.0,0.0,0.0,0.0,0.0,0.0,0.0,0.0,0.0,0.0,0.0,0.0,0.0,0.0,0.0,0.0,0.0,0.0,0.0,0.0,0.0,0.0,0.0,0.0,0.0,0.0,0.0,0.0,0.0,0.0,0.0,0.0,-2.9853,-2.9897,-2.9941,-2.9793,-2.9793,-2.9766,-2.9677,-2.9499,-2.9166,-2.8764,-2.8383,0.0,0.0,0.0,0.0,0.0,0.0,0.0,0.0,0.0,0.0,0.0,0.0,0.0,0.0,0.0,0.0,0.0,0.0,0.0,0.0,0.0,0.0,0.0,0.0,0.0,0.0,0.0,0.0,0.0,0.0,0.0,0.0,0.0,0.0,0.0,0.0,0.0,0.0,0.0,0.0,0.0,0.0,0.0,0.0,0.0,0.0,0.0,0.0,0.0,0.0,0.0,0.0,0.0,-3.6301,-3.6301,-3.6301,-3.6301,-3.6232,-3.6094,-3.601,-3.6138,-3.6259,-3.5705,0.0,0.0,0.0,0.0,0.0,0.0,0.0,0.0,0.0,0.0,0.0,0.0,0.0,0.0,0.0,0.0,0.0,0.0,0.0,0.0,0.0,0.0,-3.3119,-3.244,-3.2469,-3.2654,-3.2654,0.0,0.0,0.0,0.0,0.0,0.0,0.0,0.0,0.0,0.0,0.0,-2.9677,-2.9722,-2.9722,-2.9661,-2.9617,-2.9499,-2.9319,-2.8951,-2.8622,-2.8334,-2.7725,-2.735,0.0,0.0,0.0,0.0,0.0,0.0,0.0,0.0,0.0,0.0,0.0,0.0,0.0,0.0,0.0,0.0,0.0,0.0,0.0,0.0,0.0,0.0,0.0,0.0,0.0,0.0,0.0,0.0,0.0,0.0,0.0,0.0,-3.8318,-3.8382,0.0,0.0,0.0,0.0,0.0,0.0,0.0,0.0,0.0,0.0,0.0,0.0,0.0,-3.7132,-3.6367,-3.6343,-3.6301,-3.6301,-3.6301,-3.6301,-3.6301,-3.6301,-3.5956,-3.5335,-3.4908,0.0,-3.6216,-3.5283,0.0,0.0,0.0,0.0,0.0,0.0,0.0,0.0,0.0,0.0,0.0,0.0,0.0,0.0,0.0,0.0,0.0,0.0,0.0,0.0,0.0,0.0,-3.3119,-3.244,-3.2317,-3.2368,-3.2368,-3.2143,-3.1963,-3.201,-3.1426,-3.0878,0.0,0.0,0.0,0.0,0.0,0.0,-2.9243,-2.938,-2.9425,-2.9213,-2.8858,-2.8654,-2.8654,-2.8255,-2.7879,-2.759,-2.7437,-2.7248,-2.6884,-2.6832,0.0,0.0,0.0,0.0,0.0,0.0,0.0,0.0,0.0,0.0,0.0,0.0,0.0,0.0,0.0,0.0,0.0,0.0,0.0,0.0,0.0,0.0,0.0,0.0,0.0,0.0,0.0,0.0,0.0,-3.815,-3.8433,-3.8546,-3.8578,-3.8578,0.0,0.0,0.0,0.0,0.0,0.0,0.0,0.0,0.0,-3.7505,-3.7283,-3.69,-3.6301,-3.5887,-3.5887,-3.6284,-3.5456,-3.5266,-3.5663,-3.5249,-3.4887,-3.4576,-3.4116,-3.4202,-3.4627,-3.4021,-3.4023,-3.4317,0.0,0.0,0.0,0.0,-3.2881,-3.2742,-3.2935,-3.2935,-3.2827,-3.2951,0.0,0.0,0.0,0.0,0.0,0.0,0.0,-3.1928,-3.1634,-3.2052,-3.2322,-3.1643,-3.1489,-3.1396,-3.1025,-3.1045,-3.1147,-3.1023,-3.0384,-2.9888,-2.9888,-2.9633,0.0,0.0,0.0,-2.9335,-2.9121,-2.9213,-2.9152,-2.8826,-2.8622,-2.8415,-2.8158,-2.7845,-2.7575,-2.7401,-2.7196,-2.6989,-2.6779,-2.6779,-2.6779,0.0,0.0,0.0,0.0,0.0,0.0,0.0,0.0,0.0,0.0,0.0,0.0,0.0,0.0,0.0,0.0,0.0,0.0,0.0,0.0,0.0,0.0,0.0,0.0,0.0,0.0,0.0,0.0,-3.8415,-3.8496,-3.8676,-3.8707,-3.8707,0.0,0.0,0.0,0.0,0.0,0.0,-3.8707,-3.8136,-3.7625,-3.7238,-3.6655,-3.6142,-3.5732,-3.518,-3.518,-3.5714,-3.4611,-3.4473,-3.518,-3.4628,-3.4272,-3.4093,-3.3643,-3.3326,-3.3151,-3.2831,-3.3032,-3.3435,-3.2859,-3.251,-3.2313,-3.2367,-3.2229,-3.1998,-3.2244,-3.2191,-3.2121,-3.226,-3.2191,-3.2072,-3.2114,0.0,0.0,0.0,0.0,-3.0849,-3.0721,-3.104,-3.1253,-3.0585,-3.0555,-3.0539,-3.0016,-3.002,-3.0103,-3.0017,-2.9659,-2.9343,-2.9107,-2.9075,0.0,-2.9075,-2.9075,-2.9075,-2.8967,-2.8936,-2.8779,-2.8415,-2.8271,-2.8091,-2.778,-2.7473,-2.7248,-2.7248,-2.6989,-2.6779,-2.6779,-2.6779,-2.6779,-2.6779,0.0,0.0,0.0,0.0,0.0,0.0,0.0,0.0,0.0,0.0,0.0,0.0,0.0,0.0,0.0,0.0,0.0,0.0,0.0,0.0,0.0,0.0,0.0,0.0,0.0,0.0,0.0,0.0,0.0,-3.8658,-3.8707,0.0,0.0,0.0,0.0,-3.8707,-3.8707,-3.8707,-3.8707,-3.7658,-3.6847,-3.6452,-3.5402,-3.4626,-3.4197,-3.4162,-3.4162,-3.4197,-3.4128,-3.4473,-3.5197,-3.5145,-3.4805,-3.4179,-3.3765,-3.319,-3.2512,-3.2031,-3.1901,-3.1838,-3.1036,-3.0711,-3.0711,-3.0572,-3.0624,-3.0711,-3.0711,-3.0711,-3.0711,-3.0711,-3.0655,-3.06,-3.0778,-3.0749,0.0,0.0,-3.0899,-3.0423,-3.0061,-3.0031,-2.9946,-2.9255,-2.9574,-3.0053,-3.0022,-2.9483,-2.9159,-2.9481,-2.9859,-2.9911,-2.9201,0.0,-2.9075,-2.9075,-2.9075,-2.8967,-2.8574,-2.8511,-2.8367,-2.7947,-2.766,-2.7437,-2.7452,-2.7041,-2.6832,-2.6832,-2.6779,-2.6779,-2.6779,-2.6779,-2.6779,-2.6779,-2.6951,0.0,0.0,0.0,0.0,0.0,0.0,0.0,0.0,0.0,0.0,0.0,0.0,0.0,0.0,0.0,0.0,0.0,0.0,0.0,0.0,0.0,0.0,0.0,0.0,0.0,0.0,0.0,0.0,-3.8676,-3.8707,0.0,-3.8707,-3.8707,-3.8487,-3.7955,-3.7918,-3.7601,-3.6802,-3.6179,-3.5701,-3.5313,-3.4644,-3.4233,-3.4093,-3.3576,-3.3818,-3.4783,-3.3778,-3.3733,-3.455,-3.399,-3.3393,-3.2826,-3.2396,-3.2032,-3.1772,-3.1221,-3.1612,-3.2499,-3.2201,-3.1989,-3.1866,-3.1813,-3.1305,-3.06,-3.06,-3.0081,-2.9366,-2.9366,-2.9366,-2.9366,-2.9516,-2.9085,-2.8553,-2.8764,-2.8492,-2.8065,-2.7932,-2.8359,-2.8788,-2.8513,-2.8811,-2.9138,-2.9138,-2.9193,-2.9177,-2.8778,-2.8732,-2.8645,-2.835,-2.8319,-2.8319,-2.8319,-2.8319,-2.8271,-2.811,-2.811,-2.7978,-2.761,-2.7488,-2.7299,-2.7041,-2.6884,-2.6779,-2.6779,-2.6779,-2.6779,-2.6779,-2.6779,-2.6779,-2.6779,-2.6846,-2.6899,0.0,0.0,0.0,0.0,0.0,0.0,0.0,0.0,0.0,0.0,0.0,0.0,0.0,0.0,0.0,0.0,0.0,0.0,0.0,0.0,0.0,0.0,0.0,0.0,0.0,-3.8368,-3.8342,-3.8242,-3.8224,-3.8114,-3.7918,-3.7851,-3.7613,-3.7129,-3.7092,-3.668,-3.5755,-3.5101,-3.4622,-3.4321,-3.3651,-3.3317,-3.3317,-3.2745,-3.2947,-3.3985,-3.2887,-3.2747,-3.3429,-3.2813,-3.2321,-3.1866,-3.155,-3.1275,-3.1045,-3.069,-3.1161,-3.202,-3.1787,-3.1502,-3.1164,-3.1164,-3.0608,-2.9856,-2.9612,-2.8867,-2.8024,-2.802,-2.8037,-2.8024,-2.8168,-2.7684,-2.7159,-2.7357,-2.7046,-2.6637,-2.675,-2.7131,-2.74,-2.74,-2.7569,-2.7806,-2.7847,-2.8123,-2.8263,-2.7874,-2.806,-2.8187,-2.7944,-2.7898,-2.7898,-2.7898,-2.7898,-2.7864,-2.773,-2.773,-2.7595,-2.7248,-2.7196,-2.7004,-2.6512,-2.6445,-2.6358,-2.6141,-2.6329,-2.6445,-2.6445,-2.6663,-2.6779,-2.6779,-2.6846,-2.6951,-2.7159,0.0,0.0,0.0,0.0,0.0,0.0,0.0,0.0,0.0,0.0,0.0,0.0,0.0,0.0,0.0,0.0,0.0,0.0,0.0,0.0,0.0,0.0,0.0,-3.8119,-3.8271,-3.8027,-3.7345,-3.7192,-3.693,-3.6329,-3.6161,-3.6142,-3.6248,-3.6266,-3.6076,-3.5616,-3.4544,-3.3788,-3.3442,-3.2366,-3.18,-3.18,-3.1671,-3.1596,-3.1614,-3.1534,-3.1619,-3.1893,-3.1867,-3.1687,-3.1356,-3.1356,-3.0977,-3.0428,-3.0428,-3.0412,-3.0335,-2.9689,-2.9042,-2.8473,-2.8473,-2.8458,-2.8281,-2.7695,-2.7093,-2.6674,-2.6637,-2.668,-2.6678,-2.6685,-2.6769,-2.6816,-2.7148,-2.6779,-2.6323,-2.6665,-2.6343,-2.5893,-2.5893,-2.5893,-2.5988,-2.6244,-2.6297,-2.6351,-2.6727,-2.7928,-2.8652,-2.797,-2.7864,-2.7864,-2.7864,-2.7864,0.0,-2.7437,-2.7386,-2.7218,-2.6803,-2.6736,-2.646,-2.5807,-2.5763,-2.5487,-2.4829,-2.5415,-2.5763,-2.5763,-2.6387,-2.6736,-2.675,-2.6937,-2.7159,-2.7401,0.0,0.0,0.0,0.0,0.0,0.0,0.0,0.0,0.0,0.0,0.0,0.0,0.0,0.0,0.0,0.0,0.0,0.0,0.0,0.0,0.0,-3.5601,-3.5739,-3.7229,-3.7435,-3.7158,-3.6444,-3.6352,-3.6261,-3.6179,-3.6083,-3.5846,-3.5375,-3.531,-3.4786,-3.3588,-3.3226,-3.2754,-3.2056,-3.1771,-3.1593,-3.1593,-3.1538,-3.164,-3.1837,-3.1748,-3.1653,-3.1514,-3.142,-3.1117,-3.0654,-3.0654,-3.0552,-3.0428,-3.0428,-3.0135,-2.972,-3.0027,-3.0027,-2.9874,-2.9874,-2.8994,-2.7741,-2.6722,-2.5974,-2.5453,-2.5464,-2.5463,-2.549,-2.551,-2.5507,-2.5507,-2.5608,-2.5486,-2.5363,-2.5476,-2.5535,-2.5592,-2.5592,-2.5743,-2.5948,-2.5988,-2.5988,-2.6056,-2.6111,-2.6454,-2.6833,-2.7041,-2.7115,-2.7115,-2.7115,-2.7115,-2.7063,-2.6989,-2.6564,-2.6207,-2.6105,-2.5662,-2.5328,-2.511,-2.5096,-2.4974,-2.48,-2.4945,-2.511,-2.5139,-2.5313,-2.5618,-2.6054,-2.6703,-2.7093,0.0,0.0,0.0,0.0,0.0,0.0,0.0,0.0,0.0,0.0,0.0,0.0,0.0,0.0,0.0,0.0,0.0,0.0,0.0,0.0,0.0,0.0,-3.4991,-3.51,-3.5946,-3.6336,-3.6277,-3.5533,-3.5412,-3.5314,-3.5086,-3.4991,-3.479,-3.4448,-3.4365,-3.3916,-3.293,-3.2734,-3.2369,-3.1728,-3.1576,-3.1517,-3.1517,-3.1462,-3.1494,-3.1645,-3.1597,-3.1252,-3.0717,-3.067,-3.021,-2.9581,-2.9581,-2.9581,-2.9581,-2.9581,-2.93,-2.8958,0.0,0.0,0.0,0.0,-2.806,-2.6837,-2.6115,-2.5508,-2.5005,-2.5005,-2.5005,-2.5005,-2.5005,-2.5005,-2.5005,-2.5005,-2.5005,-2.5005,-2.5005,-2.5131,-2.5313,-2.5313,-2.5411,-2.5564,-2.5688,-2.5743,-2.5743,-2.5893,-2.5893,0.0,-2.605,-2.6275,-2.6394,-2.6394,-2.6285,-2.6217,-2.6217,-2.5756,-2.5336,-2.525,-2.5032,-2.4699,-2.4312,-2.4346,0.0,0.0,0.0,-2.4573,-2.4878,-2.4878,0.0,0.0,0.0,-2.6301,-2.6718,-2.6819,0.0,0.0,-2.7769,-2.8758,0.0,0.0,0.0,0.0,0.0,0.0,0.0,0.0,0.0,0.0,0.0,0.0,0.0,0.0,0.0,0.0,-3.4659,-3.4751,-3.4491,-3.5095,-3.5307,-3.4624,-3.4492,-3.4232,-3.365,-3.352,-3.352,-3.3605,-3.3605,-3.3415,-3.3037,-3.2719,0.0,0.0,0.0,-3.1479,-3.1479,-3.1368,-3.1218,-3.1123,-3.1078,-3.0535,-2.9633,-2.9633,-2.9198,-2.8411,-2.8396,-2.8396,-2.8396,-2.8363,-2.8299,-2.8247,-2.8909,-2.8475,-2.7399,-2.6886,-2.6336,-2.5893,-2.5893,0.0,0.0,-2.5005,-2.5005,-2.5005,-2.5005,-2.5005,-2.5005,-2.5005,-2.5005,-2.5005,-2.4948,-2.4948,-2.4892,-2.4821,-2.4835,-2.4948,-2.5201,-2.5258,-2.5259,-2.5508,-2.5507,-2.5284,-2.4741,-2.5266,-2.5767,-2.5697,-2.5431,-2.5246,-2.5246,-2.4891,-2.4537,-2.4369,-2.4382,0.0,-2.3331,-2.354,-2.345,-2.2841,-2.3424,-2.4051,-2.4646,-2.4704,-2.4684,-2.4684,-2.4757,-2.5174,-2.5892,-2.6079,-2.6568,-2.7282,-2.7494,-2.8847,0.0,0.0,0.0,0.0,0.0,0.0,0.0,0.0,0.0,0.0,0.0,0.0,0.0,0.0,0.0,-3.3579,-3.3402,-3.3351,-3.3587,-3.3773,-3.381,-3.3676,-3.3628,-3.3604,-3.3509,-3.3452,-3.3481,-3.3605,-3.3549,-3.322,-3.2553,-3.2453,-3.2127,-3.1368,-3.1308,-3.1269,-3.1269,-3.123,-3.0838,-3.0097,-3.0054,0.0,-2.8668,-2.8668,-2.8573,-2.8411,-2.8299,-2.8235,-2.8235,-2.8103,-2.8054,-2.802,-2.778,-2.7569,-2.7297,-2.6834,-2.6254,-2.5687,-2.5825,-2.5508,-2.5005,-2.5005,-2.5005,-2.5005,-2.5005,-2.5005,0.0,-2.5005,-2.5005,-2.4878,-2.4523,-2.4465,-2.435,-2.393,-2.3872,-2.3872,-2.393,-2.3636,-2.3354,-2.3411,-2.3031,-2.2732,-2.2627,-2.4026,-2.5033,-2.4512,-2.438,-2.436,-2.4337,-2.3823,-2.3427,-2.3378,-2.2686,-2.2145,-2.1987,-2.2211,-2.2311,-2.2184,-2.2775,-2.3134,-2.3264,-2.3804,-2.4065,-2.4065,-2.4602,-2.5034,-2.5282,-2.5795,-2.6203,-2.6584,-2.727,-2.8182,0.0,0.0,0.0,0.0,0.0,0.0,0.0,0.0,0.0,0.0,0.0,-3.2274,-3.3005,0.0,-3.3066,-3.3088,-3.3112,-3.3178,-3.3364,-3.3393,-3.3393,-3.3393,-3.3393,-3.3393,-3.3452,-3.3422,-3.3422,-3.3491,-3.3481,-3.3286,-3.2912,-3.2553,-3.2179,-3.1768,-3.1406,-3.119,-3.119,-3.119,-3.0975,-3.0493,-3.0452,-2.9924,-2.8997,-2.8951,-2.8637,-2.8217,-2.8152,-2.8103,-2.8054,-2.7625,-2.7291,-2.7071,-2.6453,-2.6453,-2.6745,-2.6254,-2.5673,-2.509,-2.5216,-2.5061,-2.4778,-2.4892,-2.4892,-2.4892,-2.5005,-2.5005,-2.5005,-2.5005,-2.5005,-2.4948,-2.4708,-2.465,-2.4456,-2.3751,-2.3571,-2.3423,-2.291,-2.257,-2.2377,-2.2377,-2.2201,-2.1918,-2.1581,-2.2406,-2.3029,-2.3068,-2.2916,-2.2777,-2.279,-2.236,-2.1978,-2.183,-2.1524,-2.1348,-2.1396,-2.1841,-2.2184,-2.2278,-2.2555,-2.2797,-2.2888,-2.3207,-2.3412,-2.3412,-2.3746,-2.4112,-2.4513,-2.4882,-2.5301,-2.5771,-2.6619,-2.774,0.0,0.0,0.0,0.0,0.0,0.0,0.0,-2.8988,-3.0138,-3.1213,-3.1385,-3.163,-3.2457,-3.2795,-3.2879,-3.274,-3.3068,-3.3334,-3.3334,-3.3364,-3.3393,-3.3393,-3.3393,-3.3393,-3.3393,-3.3393,-3.3393,-3.3393,-3.3393,-3.3364,-3.3286,-3.2669,-3.2248,-3.2179,-3.1524,-3.1151,-3.1151,-3.1151,-3.1112,-3.0975,-3.0797,-3.0251,-2.9406,-2.9225,-2.8716,-2.802,-2.7955,-2.7955,-2.7855,-2.7122,-2.664,-2.624,-2.555,-2.5549,-2.5844,-2.5425,-2.4921,-2.4563,-2.462,-2.462,-2.462,-2.4734,-2.4778,-2.4765,-2.4757,-2.4772,-2.4759,-2.4693,-2.4596,-2.4485,-2.4428,-2.4359,-2.407,-2.3145,-2.2929,-2.2687,-2.189,-2.1657,-2.1568,-2.1568,-2.1479,-2.1263,-2.0765,-2.0688,-2.0894,-2.1555,-2.1498,-2.1341,-2.1251,-2.1136,-2.0944,-2.066,-2.0746,-2.0894,-2.0979,-2.1479,-2.1921,-2.231,-2.231,-2.2463,-2.2752,-2.2752,-2.2797,-2.2888,-2.2888,-2.3149,-2.3702,-2.3926,-2.4356,-2.493,-2.5741,-2.7105,-0.2706,-0.9346,-1.5905,-1.9347,-2.2711,-2.5632,0.0,-2.8572,-2.9494,-3.0228,-3.0674,-3.1056,-3.1409,-3.1795,-3.2125,-3.2318,-3.2784,-3.3117,-3.3117,-3.3304,-3.3393,-3.3393,-3.3393,-3.3393,-3.3393,-3.3393,-3.3393,-3.3393,-3.3393,-3.3256,-3.2876,-3.2519,-3.2109,-3.1677,-3.1257,-3.0975,-3.0952,-3.0952,-3.0733,-3.0316,-2.9821,-2.9316,-2.8779,-2.835,-2.8103,-2.8005,-2.7855,-2.774,-2.7575,-2.6997,-2.6669,-2.6563,-2.596,-2.5175,-2.4395,-2.4576,-2.4536,-2.435,-2.4549,-2.462,-2.462,-2.462,-2.462,-2.457,-2.416,-2.3998,-2.3946,-2.3541,-2.3152,-2.2762,-2.238,-2.198,-2.1575,-2.1039,-2.0925,-2.09,-2.0795,-2.0382,-2.0031,-2.0031,-1.9643,-1.9303,-1.9243,-1.923,-1.9519,-2.0297,-2.064,-2.0751,-2.0373,-2.0961,-2.1215,-2.0809,-2.0472,-2.0271,-2.0144,-2.0194,-2.0584,-2.1334,-2.1369,-2.1623,-2.2263,-2.2278,-2.2463,-2.2888,-2.2888,-2.2931,-2.3004,-2.3615,-2.4028,-2.4209,-2.4901,-2.5771,0.1535,-0.4968,-1.1227,-1.7056,-2.1736,-2.5313,-2.7157,-2.8401,-2.9361,-3.0149,-3.0435,-3.0804,-3.1731,-3.2002,-3.2214,-3.2606,-3.2975,-3.322,-3.322,-3.3473,-3.3615,-3.3615,-3.3615,-3.3577,-3.3422,-3.3286,-3.3226,-3.3226,-3.3135,-3.3042,-3.288,-3.2504,-3.2127,-3.1785,-3.1372,-3.1095,-3.0912,-3.0912,-3.079,-3.0609,-2.9856,-2.9146,-2.841,-2.7732,-2.7134,-2.6582,-2.6243,-2.5868,-2.5452,-2.4911,-2.4507,-2.4162,-2.3933,-2.3514,-2.3204,-2.4025,-2.3859,-2.3178,-2.3303,-2.3316,-2.3329,-2.3427,-2.3247,-2.2972,-2.2834,-2.2577,-2.221,-2.2034,-2.1847,-2.1682,-2.1461,-2.1418,-2.1256,-2.0514,-2.0452,-2.0367,-1.9787,-1.9492,-1.9324,-1.9324,-1.9143,-1.8987,-1.8987,-1.8987,-1.9093,-1.9448,-1.9656,-1.9695,-1.95,-1.9811,-1.9952,-1.9747,-1.9811,-1.9811,-1.9747,-1.9952,-2.0308,-2.0795,-2.0944,-2.114,-2.1575,-2.1983,-2.2278,-2.2509,-2.2752,-2.2888,-2.2888,-2.3163,-2.3339,-2.34,-2.4195,-2.4714,0.7628,0.224,-0.2765,-0.8866,-1.5941,-2.1813,-2.3431,-2.6765,-2.9772,-3.0623,-3.0761,-3.1077,-3.2265,-3.2437,-3.2537,-3.2943,-3.322,-3.3379,-3.3379,-3.3625,-3.3807,-3.3807,-3.3807,-3.3726,-3.352,-3.3298,-3.3099,-3.3055,-3.293,-3.2916,-3.2916,-3.2521,-3.2109,-3.1654,-3.1216,-3.0751,-3.0291,-3.0252,-3.0229,-3.0212,-2.9407,-2.8707,-2.803,-2.715,-2.6332,-2.5568,-2.5221,-2.4834,-2.4412,-2.3729,-2.3173,-2.2804,-2.2523,-2.2323,-2.2232,-2.3058,-2.295,-2.2415,-2.2415,-2.2387,-2.24,-2.2523,-2.2307,-2.1953,-2.1936,-2.1533,-2.1031,-2.0869,-2.0655,-2.0434,-2.0434,-2.0514,-2.0441,-1.9734,-1.9757,-1.9768,-1.9071,-1.8934,-1.8987,-1.8987,-1.8987,-1.8987,-1.8987,-1.8987,-1.8987,-1.8987,-1.8987,-1.8987,-1.8987,-1.9093,-1.9146,-1.9146,-1.946,-1.9565,-1.946,-1.972,-1.9978,-2.022,-2.0308,-2.056,-2.0944,-2.1444,-2.1779,-2.1983,-2.231,-2.2509,-2.2509,-2.2509,-2.2555,-2.2721,-2.332,-2.363,1.6938,1.3501,1.0339,0.8177,-0.271,-1.3151,-1.4254,-2.2885,-3.0864,-3.17,-3.1845,-3.2057,-3.2759,-3.2872,-3.2965,-3.3243,-3.3455,-3.3605,-3.3605,-3.3726,-3.3807,-3.3807,-3.3807,-3.3807,-3.3807,-3.3494,-3.319,-3.2948,-3.2916,-3.2916,-3.2916,-3.2521,-3.1898,-3.1044,-3.0446,-2.9698,-2.879,-2.856,-2.8478,-2.8478,-2.7907,-2.7632,-2.7591,-2.6654,-2.6016,-2.5615,-2.5568,-2.5553,-2.5458,-2.4412,-2.396,-2.3858,-2.2831,-2.2021,-2.1538,-2.1551,-2.1957,-2.2415,-2.2415,-2.2387,-2.24,-2.2428,-2.2387,-2.2296,-2.1865,-2.1315,-2.0818,-2.0348,-1.9552,-1.8762,-1.8762,-1.8476,-1.8185,-1.8162,-1.8433,-1.8637,-1.8614,-1.8827,-1.8987,-1.8987,-1.8987,-1.8987,-1.8987,-1.8987,-1.8987,-1.8987,-1.8987,-1.8987,-1.8987,-1.9356,-1.9565,-1.9565,-1.9617,-1.946,-1.904,-1.904,-1.9105,-1.9223,-1.9235,-1.9577,-2.0372,-2.0422,-2.0746,-2.1417,-2.1417,-2.1465,-2.1465,-2.1465,-2.1718,-2.2231,-2.2245,-2.2491,2.3008,1.9487,1.5709,1.1362,0.4796,-0.3006,-1.2318,-1.7739,-2.3145,-3.1409,-3.3105,-3.3198,-3.3556,-3.363,-3.3642,-3.3688,-3.3932,-3.4134,-3.4134,-3.4357,-3.4526,-3.4526,-3.4526,-3.4442,-3.4228,-3.3787,-3.3473,-3.3357,-3.3019,-3.2616,-3.2117,-3.1762,-3.1112,-3.0091,-2.9868,-2.9414,-2.8706,-2.8649,-2.8531,-2.8373,-2.7146,-2.6286,-2.5799,-2.4875,-2.4386,-2.4283,-2.3954,-2.362,-2.3234,-2.2533,-2.2106,-2.177,-2.1429,-2.1171,-2.0949,-2.0949,-2.1118,-2.1275,-2.1275,-2.1288,-2.1185,-2.0797,-2.0429,-2.0032,-1.949,-1.8958,-1.851,-1.8325,-1.8007,-1.7799,-1.7799,-1.781,-1.7822,-1.7822,-1.8247,-1.856,-1.8302,-1.8667,-1.8934,-1.8774,-1.8881,-1.8987,-1.8987,-1.8987,-1.8987,-1.8987,-1.8987,-1.8987,-1.8987,-1.9093,-1.9198,-1.9198,-1.9198,-1.9146,-1.8987,-1.8987,-1.8999,-1.9052,-1.921,-1.9617,-2.0245,-2.0795,-2.1175,-2.1417,-2.2063,-2.2249,-2.1921,-2.2249,-2.2509,-2.2661,-2.2661,-2.2752,2.898,2.6722,2.4167,2.0627,1.4883,0.7785,-0.1142,-0.7061,-1.3896,-2.5335,-2.8276,-2.9864,-3.3465,-3.4249,-3.4376,-3.4339,-3.4529,-3.4643,-3.466,-3.4793,-3.4907,-3.4943,-3.4908,-3.468,-3.4182,-3.3794,-3.3467,-3.3204,-3.278,-3.2187,-3.1332,-3.108,-3.0454,-2.9393,-2.9259,-2.8853,-2.8112,-2.8005,-2.7821,-2.7595,-2.6403,-2.5489,-2.4863,-2.4188,-2.3782,-2.3551,-2.3113,-2.2694,-2.2314,-2.1684,-2.1229,-2.0947,-2.0749,-2.0699,-2.0699,-2.0699,-2.0549,-2.0385,-2.0385,-2.0385,-2.0283,-1.9708,-1.9291,-1.8934,-1.8548,-1.8007,-1.759,-1.759,-1.7434,-1.7278,-1.7278,-1.7434,-1.7545,-1.7545,-1.792,-1.8247,-1.7975,-1.8356,-1.8667,-1.8614,-1.8721,-1.8881,-1.8987,-1.8987,-1.8987,-1.8987,-1.8987,-1.8987,-1.8987,-1.8987,-1.8987,-1.8987,-1.8987,-1.8987,-1.8987,-1.8987,-1.8987,-1.8987,-1.9158,-1.9448,-1.9901,-2.0396,-2.0733,-2.0832,-2.1465,-2.1623,-2.1334,-2.1827,-2.217,-2.2356,-2.2555,-2.2752,3.4641,3.4795,3.4963,3.5095,2.7123,1.8929,1.7688,0.8116,-0.3498,-1.4044,-1.8142,-2.2631,-3.1901,-3.4423,-3.5102,-3.5116,-3.5123,-3.5133,-3.5116,-3.5013,-3.4952,-3.4974,-3.4901,-3.4528,-3.3674,-3.3562,-3.3219,-3.2416,-3.2174,-3.1603,-3.054,-3.0463,-2.994,-2.889,-2.8589,-2.7987,-2.7038,-2.6725,-2.6468,-2.6203,-2.5721,-2.5275,-2.4902,-2.4492,-2.4036,-2.3551,-2.3113,-2.2889,-2.2754,-2.1779,-2.1375,-2.1326,-2.0848,-2.0699,-2.0699,-2.0699,-2.0334,-1.9798,-1.9747,-1.9759,-1.9643,-1.9146,-1.8934,-1.8934,-1.8934,-1.8483,-1.805,-1.805,-1.7689,-1.7278,-1.7278,-1.7278,-1.7278,-1.7278,-1.749,-1.7711,-1.7656,-1.7931,-1.8193,-1.8506,-1.8614,-1.8721,-1.8934,-1.8987,-1.8987,-1.8987,-1.8987,-1.8987,-1.8987,-1.8987,-1.8987,-1.8987,-1.8987,-1.8987,-1.8987,-1.8987,-1.8987,-1.8987,-1.8987,-1.9158,-1.942,-1.9473,-1.9565,-1.985,-1.985,-1.9901,-1.9901,-2.0409,-2.0944,-2.1465,-2.2016,-2.2463,3.5361,3.5456,3.553,3.56,3.3203,2.8476,1.9451,1.4446,0.8149,-0.4467,-1.3266,-1.9813,-2.3434,-3.013,-3.5136,-3.5237,-3.5416,-3.5546,-3.5553,-3.5524,-3.5259,-3.4627,-3.4535,-3.4206,-3.3379,-3.3077,-3.2603,-3.179,-3.1736,-3.1299,-3.0348,-2.9844,-2.9205,-2.833,-2.8041,-2.7701,-2.731,-2.6825,-2.6589,-2.6485,-2.5832,-2.5275,-2.4902,-2.4492,-2.3867,-2.3068,-2.2934,-2.2466,-2.1732,-2.152,-2.118,-2.0848,-2.0749,-2.0699,-2.0699,-2.0699,-2.0334,-1.9747,-1.9344,-1.9186,-1.9081,-1.8536,-1.8321,-1.8267,-1.7854,-1.7656,-1.7479,-1.7479,-1.7434,-1.7278,-1.7278,-1.7278,-1.7278,-1.7278,-1.749,-1.7656,-1.7445,-1.7767,-1.8139,-1.8193,-1.8572,-1.8934,-1.8987,-1.8987,-1.8987,-1.8987,-1.8987,-1.8987,-1.8987,-1.8987,-1.8987,-1.8987,-1.8987,-1.8987,-1.8987,-1.8987,-1.8987,-1.8987,-1.921,-1.95,-1.9991,-2.0207,-2.0308,-2.0409,-2.0795,-2.0979,-2.0979,-2.1527,-2.203,-2.2495,-2.2646,-2.2797,3.571,3.5738,3.5763,3.5836,3.5612,3.3546,2.6446,2.3852,1.9445,0.7018,-0.116,-0.8905,-1.8124,-2.5061,-3.0665,-3.4588,-3.5505,-3.5742,-3.5779,-3.5437,-3.499,-3.4542,-3.4109,-3.3505,-3.2714,-3.2425,-3.1915,-3.1002,-3.1128,-3.082,-2.9806,-2.9387,-2.8828,-2.8065,-2.7954,-2.7683,-2.7247,-2.6792,-2.6537,-2.6415,-2.5795,-2.5275,-2.4902,-2.4492,-2.3909,-2.3201,-2.274,-2.2235,-2.1684,-2.1277,-2.0947,-2.0699,-2.0699,-2.0699,-2.0649,-2.0385,-1.9965,-1.9396,-1.8804,-1.8441,-1.8193,-1.7854,-1.7744,-1.7689,-1.7379,-1.7278,-1.7278,-1.7278,-1.7278,-1.7278,-1.7278,-1.7278,-1.7278,-1.7278,-1.7434,-1.7434,-1.7043,-1.7379,-1.7822,-1.803,-1.829,-1.8548,-1.8934,-1.8536,-1.8321,-1.8548,-1.8375,-1.8213,-1.8213,-1.8655,-1.8987,-1.8987,-1.8987,-1.8987,-1.8987,-1.8987,-1.8987,-1.8987,-1.9146,-1.9408,-1.985,-2.0003,-2.0118,-2.0258,-2.0534,-2.0683,-2.0683,-2.1237,-2.1732,-2.2249,-2.2509,-2.2706,3.5636,3.574,3.5816,3.587,3.5826,3.5512,3.4565,3.2945,2.8787,1.8753,1.2918,0.4529,-1.2198,-1.895,-2.4421,-3.192,-3.4525,-3.5561,-3.5537,-3.4844,-3.4326,-3.4259,-3.3487,-3.2654,-3.1819,-3.1693,-3.1264,-3.0343,-3.056,-3.0302,-2.9338,-2.9126,-2.8779,-2.8102,-2.8075,-2.7765,-2.7166,-2.6792,-2.6503,-2.631,-2.5795,-2.5368,-2.4981,-2.4574,-2.4078,-2.3537,-2.2589,-2.2175,-2.2035,-2.1166,-2.0799,-2.0799,-2.0649,-2.0599,-2.0498,-1.9914,-1.9344,-1.8827,-1.8267,-1.7744,-1.7278,-1.7278,-1.7278,-1.7211,-1.7211,-1.7155,-1.7099,-1.7099,-1.7099,-1.7099,-1.7211,-1.7211,-1.7211,-1.7278,-1.7278,-1.7155,-1.6694,-1.692,-1.7323,-1.7799,-1.7733,-1.7831,-1.8655,-1.7875,-1.7368,-1.7929,-1.7589,-1.7313,-1.7202,-1.8093,-1.8762,-1.8762,-1.8762,-1.8762,-1.8869,-1.8881,-1.8934,-1.8987,-1.8999,-1.9158,-1.9368,-1.942,-1.9565,-1.9798,-1.9798,-1.985,-1.9901,-2.0459,-2.0993,-2.1527,-2.203,-2.2509,3.4821,3.5322,3.5851,3.5762,3.5682,3.545,3.4774,3.3152,3.0683,2.6841,1.7743,0.8969,0.4005,-1.0197,-2.158,-2.2765,-2.9437,-3.4272,-3.3673,-3.3534,-3.3259,-3.2539,-3.2356,-3.1945,-3.1077,-3.0925,-3.0808,-3.0626,-3.0475,-3.018,-2.9717,-2.9475,-2.9111,-2.8585,-2.8166,-2.7915,-2.7911,-2.7149,-2.6808,-2.6842,-2.6312,-2.5828,-2.5389,-2.4981,-2.4348,-2.3477,-2.2995,-2.2512,-2.2035,-2.1506,-2.1277,-2.118,-2.0321,-1.9965,-1.9914,-1.9356,-1.875,-1.8267,-1.8147,-1.7744,-1.7278,-1.7278,-1.7043,-1.6751,-1.6751,-1.6457,-1.6161,-1.6161,-1.6161,-1.6218,-1.6637,-1.6751,-1.6807,-1.7211,-1.7278,-1.7155,-1.6694,-1.6503,-1.6549,-1.6719,-1.6944,-1.7224,-1.7479,-1.7313,-1.7257,-1.7313,-1.7699,-1.7754,-1.7257,-1.7368,-1.7534,-1.7534,-1.7534,-1.7699,-1.8201,-1.8267,-1.8483,-1.8987,-1.9105,-1.9223,-1.9368,-1.9512,-1.9656,-1.9798,-1.9798,-2.0003,-2.0459,-2.0979,-2.1527,-2.2077,-2.2555,-2.2797,3.3926,3.4203,3.4467,3.4373,3.4236,3.3968,3.3261,3.2051,3.0487,2.8415,2.2395,1.562,0.9475,-0.3555,-1.4872,-1.931,-2.7507,-3.323,-3.2975,-3.272,-3.2411,-3.1991,-3.1608,-3.121,-3.0781,-3.0747,-3.0715,-3.0659,-3.0521,-3.0323,-3.0011,-2.9569,-2.918,-2.8911,-2.8467,-2.8094,-2.78,-2.7378,-2.6937,-2.6539,-2.6279,-2.5885,-2.5329,-2.5137,-2.4648,-2.3906,-2.342,-2.2786,-2.2081,-2.1589,-2.1277,-2.0997,-2.0385,-2.0029,-1.9747,-1.9133,-1.8536,-1.8038,-1.7501,-1.7134,-1.692,-1.6627,-1.6751,-1.6976,-1.6976,-1.6637,-1.6343,-1.657,-1.6275,-1.5989,-1.6457,-1.64,-1.6285,-1.6513,-1.64,-1.6218,-1.6218,-1.5979,-1.5853,-1.6368,-1.6389,-1.6503,-1.709,-1.6698,-1.6358,-1.6698,-1.6698,-1.6585,-1.6312,-1.6244,-1.6528,-1.7146,-1.7202,-1.7313,-1.7589,-1.7644,-1.7875,-1.8483,-1.8602,-1.8827,-1.9275,-1.942,-1.9565,-1.9708,-1.9759,-1.9952,-2.0207,-2.0746,-2.1237,-2.1827,-2.231,-2.2661,3.2941,3.3017,3.3087,3.3004,3.2839,3.2503,3.1747,3.0736,2.9497,2.7736,2.5182,2.0759,1.2893,0.1586,-0.8749,-1.567,-2.5392,-3.2129,-3.2218,-3.1835,-3.1546,-3.1581,-3.1072,-3.0696,-3.0701,-3.0762,-3.0752,-3.0647,-3.0619,-3.0485,-3.0235,-2.9672,-2.9303,-2.9214,-2.881,-2.833,-2.7759,-2.7554,-2.7126,-2.6386,-2.6193,-2.5835,-2.5368,-2.5214,-2.4839,-2.4287,-2.3791,-2.304,-2.2128,-2.1684,-2.118,-2.0736,-2.0233,-1.9862,-1.9488,-1.8685,-1.8213,-1.7831,-1.7022,-1.6751,-1.6694,-1.6218,-1.64,-1.6864,-1.6864,-1.6513,-1.6228,-1.6581,-1.6171,-1.571,-1.6161,-1.6046,-1.5758,-1.5874,-1.5517,-1.5284,-1.57,-1.541,-1.5294,-1.6036,-1.5884,-1.5836,-1.6641,-1.6026,-1.5575,-1.6026,-1.5796,-1.5526,-1.541,-1.5517,-1.5911,-1.6754,-1.681,-1.6866,-1.6978,-1.7034,-1.7313,-1.8038,-1.8093,-1.8429,-1.917,-1.9328,-1.9473,-1.9617,-1.9759,-1.985,-1.9952,-2.0497,-2.1042,-2.1575,-2.2123,-2.2555,3.1794,3.2242,3.2718,3.2656,3.2492,3.2199,3.1641,2.998,2.8241,2.7025,2.3956,2.1043,1.9527,0.4979,-0.6881,-0.7282,-2.0532,-3.0678,-3.0386,-3.0343,-3.0411,-3.0598,-3.0665,-3.0693,-3.0701,-3.0759,-3.0798,-3.0777,-3.0677,-3.0521,-3.0297,-2.9992,-2.9751,-2.9551,-2.9111,-2.8766,-2.8601,-2.7794,-2.7391,-2.7374,-2.6505,-2.6068,-2.598,-2.5275,-2.4728,-2.4364,-2.3964,-2.3275,-2.242,-2.1983,-2.1444,-2.0845,-1.9307,-1.875,-1.875,-1.76,-1.7245,-1.739,-1.7278,-1.7222,-1.7155,-1.6694,-1.6046,-1.54,-1.54,-1.5079,-1.4684,-1.4743,-1.4684,-1.4734,-1.5235,-1.5284,-1.5342,-1.5816,-1.5517,-1.5225,-1.5235,-1.5001,-1.4834,-1.5088,-1.5215,-1.5323,-1.5526,-1.5468,-1.541,-1.5468,-1.5921,-1.6026,-1.5468,-1.5853,-1.6026,-1.5633,-1.5584,-1.5806,-1.6368,-1.6358,-1.6866,-1.8038,-1.8093,-1.8429,-1.917,-1.9328,-1.9473,-1.9617,-1.9759,-2.0055,-2.051,-2.1077,-2.1623,-2.2123,-2.2601,-2.2843,3.089,3.1039,3.1148,3.1009,3.0814,3.0414,2.9398,2.8333,2.7041,2.521,2.2968,1.9636,1.4133,0.2733,-0.7334,-1.1926,-2.2203,-2.9655,-2.9786,-3.0013,-3.0177,-3.0247,-3.0443,-3.06,-3.0647,-3.0696,-3.0751,-3.0799,-3.0681,-3.0574,-3.0488,-3.0271,-3.0052,-2.9864,-2.9495,-2.9172,-2.8832,-2.8342,-2.7833,-2.7265,-2.669,-2.6247,-2.5888,-2.54,-2.4958,-2.4688,-2.4542,-2.3864,-2.2844,-2.2314,-2.1657,-2.0894,-1.9888,-1.9226,-1.875,-1.8255,-1.7567,-1.6864,-1.6581,-1.6285,-1.5931,-1.5488,-1.5079,-1.4902,-1.5468,-1.5294,-1.4961,-1.5245,-1.497,-1.4625,-1.5059,-1.501,-1.4843,-1.502,-1.4902,-1.4784,-1.4784,-1.4666,-1.4675,-1.498,-1.5039,-1.5147,-1.5352,-1.541,-1.541,-1.541,-1.5575,-1.569,-1.541,-1.5633,-1.569,-1.541,-1.541,-1.5526,-1.5748,-1.5748,-1.614,-1.6978,-1.7368,-1.7875,-1.8614,-1.9158,-1.9473,-1.9617,-1.9759,-1.9901,-2.0105,-2.0646,-2.1188,-2.1718,-2.2217,-2.2615,3.015,3.0047,2.9908,2.9763,2.9439,2.885,2.7735,2.6982,2.5942,2.3906,2.2152,1.8375,0.9779,0.0726,-0.7999,0.0,-2.3794,-2.9092,-2.9533,-2.9848,-3.0066,-3.0109,-3.0348,-3.0537,-3.0586,-3.0672,-3.0749,-3.0798,-3.0701,-3.0667,-3.0653,-3.0488,-3.0263,-3.0013,-2.9832,-2.9495,-2.902,-2.8808,-2.8298,-2.7519,-2.6997,-2.6539,-2.6177,-2.561,-2.5208,-2.4942,-2.4719,-2.4006,-2.2934,-2.2452,-2.1738,-2.0845,-2.0295,-1.9643,-1.8922,-1.8643,-1.7886,-1.6955,-1.6503,-1.5989,-1.5526,-1.5079,-1.4793,-1.4793,-1.5303,-1.5245,-1.5069,-1.542,-1.502,-1.4565,-1.4902,-1.4734,-1.4515,-1.4515,-1.4515,-1.4515,-1.4515,-1.4565,-1.4743,-1.498,-1.5088,-1.5196,-1.5352,-1.541,-1.541,-1.541,-1.541,-1.541,-1.541,-1.541,-1.541,-1.541,-1.541,-1.541,-1.541,-1.541,-1.5633,-1.6255,-1.6698,-1.7313,-1.8213,-1.8815,-1.9251,-1.9565,-1.9708,-1.9901,-2.0055,-2.0409,-2.0944,-2.1623,-2.1874,-2.2217,2.9532,2.9414,2.9314,2.9314,2.8717,2.7969,2.735,2.6286,2.5016,2.3486,2.1625,1.7654,0.9266,0.0262,-0.8455,-1.6326,-2.3915,-2.8989,-2.9514,-2.9767,-2.9946,-3.0075,-3.0348,-3.0537,-3.0586,-3.072,-3.0801,-3.0801,-3.0798,-3.0799,-3.0801,-3.0677,-3.0412,-2.9994,-2.9999,-2.9761,-2.9293,-2.902,-2.879,-2.8576,-2.7566,-2.7092,-2.706,-2.5966,-2.5313,-2.495,-2.4287,-2.3523,-2.2663,-2.2356,-2.1589,-2.056,-2.0067,-1.9683,-1.9251,-1.8278,-1.7995,-1.7995,-1.7479,-1.6987,-1.6513,-1.6046,-1.5584,-1.5118,-1.4675,-1.4506,-1.4506,-1.4506,-1.4515,-1.4515,-1.4515,-1.4515,-1.4515,-1.4515,-1.4515,-1.4515,-1.4515,-1.4743,-1.497,-1.497,-1.5196,-1.541,-1.541,-1.541,-1.541,-1.541,-1.541,-1.541,-1.541,-1.541,-1.541,-1.541,-1.541,-1.541,-1.541,-1.541,-1.5633,-1.6255,-1.6312,-1.6866,-1.8038,-1.8363,-1.8804,-1.9368,-1.9656,-2.0055,-2.061,-2.061,-2.1153,-2.2184,-2.167,-2.1718,2.8956,2.8883,2.8722,2.8377,2.7888,2.722,2.6185,2.5264,2.4029,2.2101,1.65,0.9342,0.0555,-0.7921,-1.6132,-2.3964,-2.7245,-2.8962,-2.9411,-2.9717,-2.9918,-2.9965,-3.0283,-3.0537,-3.0586,-3.0672,-3.0758,-3.0799,-3.0798,-3.0799,-3.0801,-3.072,-3.06,-3.0422,-3.0138,-2.9939,-2.9777,-2.9514,-2.9193,-2.879,-2.8206,-2.7617,-2.7092,-2.6506,-2.5931,-2.5351,-2.5121,-2.4486,-2.3523,-2.2696,-2.1913,-2.1202,-2.0409,-1.9862,-1.946,-1.8869,-1.7984,-1.709,-1.6549,-1.5826,-1.5137,-1.497,-1.4852,-1.4675,-1.4575,-1.4515,-1.4515,-1.4515,-1.4515,-1.4515,-1.4515,-1.4515,-1.4515,-1.4515,-1.4515,-1.4515,-1.4515,-1.4675,-1.4843,-1.497,-1.5147,-1.5313,-1.5362,-1.541,-1.541,-1.541,-1.541,-1.541,-1.541,-1.541,-1.541,-1.541,-1.541,-1.541,-1.541,-1.541,-1.5633,-1.6255,-1.6698,-1.7357,-1.8309,-1.8857,-1.9291,-1.9656,-1.9759,-1.9901,-2.0055,-2.0409,-2.1153,-2.2184,-2.2356,-2.2509,2.7673,2.7754,2.7533,2.7185,2.6739,2.6101,2.5018,2.4004,2.2776,2.0917,1.3679,0.5086,-0.3465,-1.1669,-1.9668,-2.7522,-2.8797,-2.8962,-2.9412,-2.9735,-2.995,-3.0056,-3.0325,-3.0519,-3.056,-3.0645,-3.072,-3.0765,-3.079,-3.0801,-3.0793,-3.076,-3.072,-3.0644,-3.0372,-3.0151,-2.9999,-2.9829,-2.9551,-2.9153,-2.8727,-2.8206,-2.7555,-2.7026,-2.6421,-2.5726,-2.5411,-2.4808,0.0,-2.3098,-2.2285,-2.1492,-2.1006,-2.0271,-1.946,-1.9146,-1.8255,-1.7135,-1.6616,-1.5826,-1.502,-1.502,-1.4793,-1.4515,-1.4515,-1.4515,-1.4515,-1.4515,-1.4515,-1.4515,-1.4515,-1.4515,-1.4515,-1.4515,-1.4515,-1.4515,-1.4515,-1.4428,-1.435,-1.4606,-1.4725,-1.4893,-1.5001,-1.5235,-1.541,-1.541,-1.541,-1.541,-1.541,-1.541,-1.541,-1.541,-1.541,-1.541,-1.541,-1.541,-1.5575,-1.5911,-1.6528,-1.709,-1.7633,-1.8578,-1.9133,-1.9319,-1.9643,-1.9798,-1.9798,-2.0359,-2.0957,-2.1589,-2.2324,-2.2661,0.0,2.5949,2.5829,2.5794,2.5253,2.454,2.3697,2.254,0.0,1.9208,1.2002,0.3594,-0.4382,-1.245,-2.0305,-2.7644,-2.8815,-2.9007,-2.9607,-2.9861,-3.0122,-3.0419,-3.0479,-3.0492,-3.0492,-3.0614,-3.0687,-3.0711,-3.0765,-3.079,-3.0801,-3.0801,-3.0774,-3.0711,-3.0644,-3.0413,-3.0042,-3.0028,-2.9896,-2.9626,-2.9153,-2.8759,-2.8413,-2.7572,-2.6853,-2.6123,-2.5433,-2.4728,-2.4051,-2.3595,-2.2665,-2.1513,-2.1684,-2.0858,-1.9512,-1.9198,-1.8655,-1.8038,-1.7479,-1.6684,-1.5816,-1.5816,-1.5196,-1.4515,-1.4515,-1.4515,-1.4515,-1.4515,-1.4446,-1.4446,-1.4446,-1.4387,-1.4387,-1.4387,-1.4387,-1.4387,-1.4387,-1.401,-1.3692,-1.3881,-1.4043,-1.4213,-1.441,-1.4883,-1.5235,-1.5235,-1.5235,-1.5235,-1.5235,-1.5294,-1.5352,-1.5352,-1.5352,-1.541,-1.541,-1.541,-1.541,-1.5526,-1.6026,-1.6415,-1.6528,-1.7809,-1.8578,-1.8578,-1.9384,-1.9798,-1.985,-2.0359,-2.066,-2.0759,-2.1746,-2.2231,1.9971,0.0,2.4042,2.3779,2.3035,2.2275,0.0,2.0562,1.7748,1.127,0.3436,-0.4695,-1.2902,-2.0544,-2.6342,-2.8644,-2.8887,-2.9232,-3.0433,-3.0867,-3.1087,-3.1158,-3.072,-3.0367,-3.0282,-3.0485,-3.0645,-3.0706,-3.0765,-3.079,-3.0801,-3.0801,-3.0798,-3.0771,-3.0706,-3.0564,-3.0317,-3.0253,-3.0095,-2.9839,-2.957,-2.9217,-2.8777,-2.8402,-2.7741,-2.6853,-2.6387,-2.566,-2.4688,-2.3649,-2.3024,-2.2603,-2.1561,-2.1104,-2.0822,-1.9952,-1.9056,-1.819,-1.7578,-1.6472,-1.5294,-1.497,-1.4684,-1.4515,-1.4515,-1.4515,-1.4515,-1.4515,-1.4139,-1.3761,-1.3761,-1.3321,-1.2948,-1.2948,-1.2948,-1.2948,-1.2948,-1.307,-1.3191,-1.326,-1.3442,-1.3683,-1.3752,-1.3863,-1.3923,-1.3923,-1.3923,-1.3923,-1.3923,-1.4401,-1.4706,-1.4706,-1.5118,-1.541,-1.541,-1.541,-1.5806,-1.6698,-1.6922,-1.7479,-1.8643,-1.8881,-1.9198,-1.9488,-1.9695,-1.9952,-2.0271,-2.051,-2.1006,-2.1841,-2.2077,-2.237,0.7758,1.5152,2.1685,2.1489,2.105,2.058,2.0141,1.6569,1.2067,0.7481,-0.2562,-1.1905,-1.6382,-2.3308,-2.8466,-2.8887,-2.8934,-2.9245,-3.017,-3.0854,-3.1161,-3.0835,-3.0483,-3.026,-3.0283,-3.0453,-3.0576,-3.06,-3.0706,-3.0749,-3.0745,-3.0774,-3.08,-3.0795,-3.0765,-3.0652,-3.0496,-3.0462,-3.0333,-3.0136,-2.9877,-2.9586,-2.9208,-2.8893,-2.8192,-2.7239,-2.6948,-2.618,-2.5089,-2.422,-2.3606,-2.3039,-2.2114,-2.1417,-2.0769,-2.0016,-1.9085,-1.8081,-1.7313,-1.6244,-1.5118,-1.4675,-1.4515,-1.4446,-1.4139,-1.407,-1.4139,-1.4387,-1.4258,-1.395,-1.395,-1.3692,-1.3321,-1.3009,-1.2948,-1.2948,-1.2948,-1.2948,-1.2948,-1.3009,-1.3433,-1.3743,-1.3571,-1.3983,-1.4401,-1.4401,-1.4401,-1.4401,-1.4401,-1.4697,-1.4883,-1.4883,-1.5235,-1.541,-1.541,-1.541,-1.569,-1.6301,-1.6922,-1.7424,-1.7972,-1.8774,-1.9368,-1.9708,-1.9965,-2.0207,-2.0472,-2.0795,-2.1382,-2.2184,-2.2184,-2.2463,-0.5099,0.5227,1.5708,1.5901,1.5924,1.5748,1.5332,0.0,0.0,0.0,-0.791,-1.7464,-1.8639,-2.4108,-2.8569,-2.8815,-2.914,-2.9455,-2.9758,-3.0578,-3.0915,-3.0333,-3.0152,-3.0169,-3.0318,-3.04,-3.0453,-3.0453,-3.0607,-3.0677,-3.0677,-3.0758,-3.0786,-3.0779,-3.0781,-3.0751,-3.0628,-3.0618,-3.0539,-3.0402,-3.0138,-2.9882,-2.9645,-2.9182,-2.8469,-2.7611,-2.7317,-2.6539,-2.5529,-2.5012,-2.4277,-2.3462,-2.2891,-2.1791,-2.0505,-1.9915,-1.9008,-1.7929,-1.6899,-1.5989,-1.5235,-1.4684,-1.4515,-1.4387,-1.3821,-1.3631,-1.3761,-1.4198,-1.4198,-1.4019,-1.4019,-1.3959,-1.3769,-1.3199,-1.3078,-1.3078,-1.3078,-1.2765,-1.252,-1.2704,-1.3304,-1.3666,-1.326,-1.4103,-1.4864,-1.4923,-1.4982,-1.4991,-1.5118,-1.5177,-1.5235,-1.5235,-1.5352,-1.541,-1.5517,-1.5526,-1.5575,-1.569,-1.6528,-1.6866,-1.6472,-1.8363,-1.9473,-1.9552,-2.0207,-2.061,-2.0709,-2.1175,-2.167,-2.2184,-2.2184,-2.2463,-0.774,-0.414,-0.1983,-0.0829,-0.0879,-0.1231,-0.1323,-0.2671,0.0,0.0,-1.5457,-1.9089,-2.5551,-2.77,-2.8619,-2.8998,-2.9948,-3.064,-3.0678,-3.1075,-3.1253,-3.0975,-3.0456,-3.0066,-2.9981,-3.0145,-3.0252,-3.0252,-3.0485,-3.0614,-3.0614,-3.0672,-3.0724,-3.0728,-3.0775,-3.0781,-3.0778,-3.0662,-3.0521,-3.0402,-3.0138,-2.998,-2.9916,-2.9457,-2.9023,-2.8621,-2.7875,-2.7186,-2.6573,-2.5623,-2.5089,-2.4752,-2.3215,-2.2232,-2.1478,-2.0231,-1.9044,-1.7875,-1.6482,-1.5931,-1.5642,-1.4793,-1.4515,-1.4455,-1.4387,-1.4327,-1.4258,-1.3761,-1.2842,-1.1981,-1.1981,-1.1608,-1.1178,-1.1052,-1.1052,-1.1052,-1.1052,-1.1052,-1.1178,-1.1365,-1.1608,-1.1794,-1.1864,-1.205,-1.2343,-1.2879,-1.2931,-1.3183,-1.3743,-1.4291,-1.4647,-1.4647,-1.5118,-1.5633,-1.614,-1.614,-1.6368,-1.6866,-1.6641,-1.6708,-1.7213,-1.9242,-2.0042,-1.9347,-2.062,-2.1175,-2.114,-2.1321,-2.167,-2.2184,-2.2184,-2.2463,-1.9662,-1.8455,-1.8085,-1.7473,-1.1354,-0.547,-0.547,-0.8825,-1.2951,-1.6381,-2.03,-2.419,-2.7834,-2.8594,-2.8791,-2.9197,-3.0099,-3.0596,-3.0147,-3.0603,-3.079,-3.0355,-3.0028,-2.9851,-2.9902,-3.0056,-3.0158,-3.0158,-3.0394,-3.0543,-3.0543,-3.0607,-3.0661,-3.0711,-3.0726,-3.0753,-3.0801,-3.0749,-3.0657,-3.0552,-3.0404,-3.0293,-3.0203,-2.9842,-2.9439,-2.9008,-2.8337,-2.7734,-2.7158,-2.6144,-2.5672,-2.5433,-2.3758,-2.2789,-2.2126,-1.9851,-1.8286,-1.7191,-1.5968,-1.5352,-1.5079,-1.4625,-1.4515,-1.4387,-1.3631,-1.3442,-1.3199,-1.222,-1.222,-1.2528,-1.2151,-1.1841,-1.1538,-1.1178,-1.0793,-1.0667,-1.0989,-1.0968,-1.1024,-1.1483,-1.2042,-1.2405,-1.2158,-1.2413,-1.2712,-1.3009,-1.307,-1.313,-1.345,-1.4112,-1.4469,-1.4469,-1.5059,-1.5526,-1.5806,-1.5796,-1.6368,-1.7589,-1.749,-1.7655,-1.8333,-1.9384,-1.9811,-1.9475,-2.0383,-2.0993,-2.1321,-2.167,-2.2077,-2.2555,-2.2555,-2.2706,-2.9322,-2.8979,-2.8254,-2.6596,-1.8567,-1.1126,-1.1126,-1.556,-1.9708,-1.9708,-2.4215,-2.8237,-2.8406,-2.8644,-2.891,-2.9262,-2.9885,-3.0113,-2.95,-2.9969,-3.0182,-2.9664,-2.9608,-2.9662,-2.982,-2.9931,-2.9973,-2.9973,-3.0247,-3.0402,-3.0402,-3.0507,-3.0593,-3.065,-3.0661,-3.0712,-3.0776,-3.0778,-3.076,-3.072,-3.0631,-3.0552,-3.0443,-3.0132,-2.9758,-2.9303,-2.875,-2.82,-2.7584,-2.6788,-2.6317,-2.5911,-2.4378,-2.3157,-2.1983,-1.9389,-1.7797,-1.6733,-1.5843,-1.5059,-1.4437,-1.4318,-1.4139,-1.3821,-1.2826,-1.2512,-1.2266,-1.1108,-1.1856,-1.2826,-1.2012,-1.1826,-1.164,-1.0968,-1.0395,-1.0205,-1.0717,-1.0627,-1.062,-1.1219,-1.2212,-1.2826,-1.232,-1.2948,-1.3511,-1.3511,-1.3623,-1.3743,-1.3743,-1.4291,-1.4706,-1.4706,-1.5118,-1.5468,-1.5584,-1.5864,-1.6641,-1.7984,-1.8104,-1.8278,-1.8774,-1.9303,-1.9604,-1.9592,-2.0258,-2.0845,-2.1417,-2.1921,-2.237,-2.2752,-2.2843,-2.2888,-2.942,-2.9235,-2.7549,-2.0895,-2.2955,-2.6591,-2.6591,-2.7014,-2.7391,-2.7391,-2.7832,-2.8209,-2.8209,-2.8543,-2.8863,-2.9089,-2.9339,-2.9481,-2.9407,-2.9568,-2.9645,-2.9608,-2.9608,-2.9608,-2.9626,-2.9644,-2.9644,-2.9644,-2.9943,-3.0117,-3.0117,-3.0381,-3.051,-3.05,-3.0564,-3.0639,-3.072,-3.072,-3.0749,-3.0796,-3.0653,-3.0581,-3.0561,-3.017,-2.9905,-2.9725,-2.9198,-2.8609,-2.8029,-2.7643,-2.7129,-2.64,-2.5064,-2.2981,-2.0594,-1.9371,-1.8244,-1.728,-1.6789,-1.5535,-1.4154,-1.3683,-1.313,-1.2634,-1.2512,-1.2512,-1.2328,-1.167,-1.1545,-1.1351,-1.0021,-0.9703,-0.9576,-0.8871,-0.8678,-0.8678,-0.8865,-0.886,-0.8994,-0.9396,-1.0584,-1.1454,-1.1578,-1.2634,-1.3511,-1.3511,-1.4052,-1.441,-1.441,-1.4942,-1.5352,-1.5352,-1.5352,-1.5633,-1.6197,-1.7257,-1.7984,-1.8093,-1.771,-1.749,-1.7545,-1.919,-1.9914,-1.953,-2.0557,-2.1224,-2.1417,-2.1921,-2.2231,-2.2278,-2.2706,-2.2888,-2.9859,-2.955,-2.8627,-2.5965,-2.6979,-2.751,-2.3248,-1.8952,-1.7038,-2.1408,-2.2228,-2.2213,-2.232,-2.5994,-2.7665,-2.3557,-2.6549,-2.9407,-2.9407,-2.9431,-2.9471,-2.9471,-2.9471,-2.9471,-2.9471,-2.9626,-2.9681,-2.9608,-2.9864,-3.0022,-2.9977,-3.0144,-3.0263,-3.0304,-3.0346,-3.0449,-3.0633,-3.0554,-3.0574,-3.0684,-3.0702,-3.0684,-3.0594,-3.0435,-3.0257,-3.003,-2.9438,-2.9021,-2.8662,-2.7837,-2.7095,-2.6335,-2.4178,-2.2398,-2.0795,-1.9554,-1.8424,-1.7368,-1.6105,-1.4808,-1.3674,-1.307,-1.2696,-1.2451,-1.2027,-1.1911,-1.1725,-1.1115,-1.0933,-1.0807,-1.0295,-1.0168,-0.997,-0.9262,-0.8812,-0.8549,-0.8672,-0.8801,-0.9122,-0.9767,-1.0787,-1.1483,-1.1545,-1.1981,-1.2474,-1.2826,-1.3061,-1.3433,-1.3803,-1.4469,-1.4824,-1.4824,-1.5517,-1.5921,-1.5748,-1.6866,-1.7534,-1.7534,-1.8405,-1.8886,-1.8886,-1.9734,-2.0105,-1.994,-2.0547,-2.1042,-2.1417,-2.1921,-2.237,-2.2661,-2.2797,-2.2888,-3.0094,-2.9788,-2.8968,-2.6759,0.0,-2.4147,-1.7267,-1.3557,-1.2947,-1.7719,-1.688,-1.5309,-1.5478,-2.1098,-2.4282,-1.9735,-2.4803,-2.9323,-2.9323,-2.9365,-2.8584,-2.6327,-2.8048,-2.8572,-2.6434,-2.8364,-2.9737,-2.9626,-2.982,-2.9918,-2.9872,-2.9981,-3.0056,-3.0094,-3.0113,-3.0206,-3.0414,-3.0105,-3.0007,-3.0137,-3.0021,-3.0215,-3.0628,-3.0613,-3.0489,-3.024,-2.9799,-2.9471,-2.915,-2.8214,-2.7174,-2.5957,-2.3958,-2.2472,-2.1251,-1.9864,-1.859,-1.7346,-1.5608,-1.42,-1.307,-1.2389,-1.2089,-1.1717,-1.0829,-1.0577,-1.0388,-0.9494,-0.9302,-0.9302,-0.9302,-0.9436,-0.9436,-0.8661,-0.7822,-0.7242,-0.7497,-0.7947,-0.8533,-0.9308,-1.0584,-1.1545,-1.1545,-1.1919,-1.229,-1.2451,-1.2879,-1.3252,-1.3442,-1.4222,-1.4765,-1.4765,-1.568,-1.614,-1.569,-1.681,-1.7479,-1.7479,-1.8886,-1.9747,-1.985,-2.0055,-2.0321,-2.051,-2.0709,-2.0993,-2.1417,-2.1921,-2.237,-2.2661,-2.2843,-2.2888,-3.0056,-2.9954,-2.8203,-2.1083,-1.9441,-1.7774,-1.0802,-1.4022,-1.85,-1.85,-1.3026,-0.8184,-0.8229,-1.3804,-1.845,-1.8585,-2.4388,-2.8915,-2.8915,-2.9071,-2.6603,-1.9529,-2.4966,-2.6631,-1.9874,-2.5451,-2.9495,-2.9495,-2.9568,-2.9641,-2.9715,-2.9763,-2.9829,-2.9902,-2.9902,-2.9908,-2.998,-2.932,-2.9032,-2.9079,-2.8474,-2.9074,-3.0665,-3.0611,-3.05,-3.0377,-3.0308,-2.9973,-2.9456,-2.8989,-2.7452,-2.5336,-2.465,-2.3402,-2.1827,-2.0429,-1.8923,-1.7346,-1.5608,-1.3895,-1.2389,-1.1725,-1.1052,-1.0295,-0.8918,-0.8463,-0.82,-0.6815,-0.6424,-0.6424,-0.6424,-0.688,-0.7214,-0.6572,-0.5335,-0.4486,-0.4954,-0.6063,-0.7037,-0.7572,-0.9736,-1.1509,-1.1516,-1.2573,-1.326,-1.2573,-1.3614,-1.4231,-1.3631,-1.4638,-1.541,-1.541,-1.5979,-1.6312,-1.6312,-1.7424,-1.8093,-1.8093,-1.9016,-1.9708,-1.9991,-2.0131,-2.0534,-2.1175,-2.1224,-2.1272,-2.1417,-2.1921,-2.2231,-2.2231,-2.2661,-2.2888,-3.0318,-3.0164,-2.8346,-2.1257,-1.9463,-1.767,-1.0785,-0.6862,-0.47,-0.4659,-0.2852,-0.1374,-0.1502,-0.702,-1.0043,-0.5413,-1.0402,-1.4908,-1.4908,-1.4928,-1.4183,-1.2102,-1.3705,-1.4203,-1.2162,-1.3905,-1.5107,-1.5063,-1.5128,-1.7297,-2.2148,-2.2519,-2.4824,-2.9674,-2.9132,-2.8879,-2.9072,-2.815,-2.7793,-2.8046,-2.8053,-2.8371,-2.8941,-2.8926,-2.8886,-2.8844,-2.8582,-2.869,-2.9022,-2.8215,-2.7377,-2.6366,-2.4264,-2.3112,-2.2431,-2.0141,-1.859,-1.7346,-1.5608,-1.357,-1.168,-1.1017,-1.0021,-0.8935,-0.8001,-0.7733,-0.7538,-0.662,-0.6424,-0.6424,-0.6424,-0.5832,-0.5311,-0.5585,-0.5328,-0.5005,-0.5084,-0.5731,-0.6759,-0.8135,-0.9418,-1.0501,-1.1413,-1.1919,-1.2228,-1.2451,-1.3252,-1.4043,-1.4756,-1.5177,-1.541,-1.541,-1.6312,-1.6754,-1.6368,-1.7809,-1.8602,-1.8267,-1.9028,-1.9565,-1.985,-2.0346,-2.0746,-2.1042,-2.1636,-2.1921,-2.1969,-2.2463,-2.2706,-2.2706,-2.2843,-2.2888,-3.041,-3.0251,-2.8445,-2.1284,-1.9504,-1.6934,-0.7259,-0.1808,0.1975,0.4816,0.5462,0.5547,0.5418,-0.0051,-0.3263,0.067,-0.4388,-0.8778,-0.8778,-0.8856,-0.7881,-0.5066,-0.7228,-0.7878,-0.515,-0.7412,-0.9047,-0.9044,-0.9026,-1.0819,-1.499,-1.5263,-1.8406,-2.5225,-2.4551,-2.5466,-2.8295,-2.7151,-2.6666,-2.6911,-2.6856,-2.6867,-2.7039,-2.7839,-2.8182,-2.8141,-2.7929,-2.7991,-2.8237,-2.7996,-2.7373,-2.6522,-2.5223,-2.4013,-2.2761,-2.0783,-1.8867,-1.6971,-1.5264,-1.3091,-1.0996,-1.0325,-0.9378,-0.8285,-0.6959,-0.6559,-0.6298,-0.5051,-0.4725,-0.4725,-0.4725,-0.4135,-0.3739,-0.4662,-0.4466,-0.4143,-0.4289,-0.5067,-0.6036,-0.7414,-0.8768,-0.9933,-1.071,-1.1233,-1.174,-1.2097,-1.2704,-1.3554,-1.4883,-1.5059,-1.5118,-1.5352,-1.6322,-1.6978,-1.7047,-1.8135,-1.8922,-1.9056,-1.9291,-1.9512,-1.9708,-2.0547,-2.1188,-2.1479,-2.2123,-2.2463,-2.2463,-2.2752,-2.2888,-2.2888,-2.2888,-2.2888,-3.0363,-2.98,-2.7518,-2.0279,-1.7563,-1.3367,-0.0681,0.2232,0.4066,1.0417,1.1685,1.1685,1.1747,0.6687,0.2497,0.2397,-0.2723,-0.6675,-0.6618,-0.6743,-0.4491,0.1926,-0.2994,-0.4512,0.164,-0.3485,-0.7265,-0.7279,-0.7216,-0.7391,-0.804,-0.8599,-1.1925,-1.8483,-1.8547,-2.1418,-2.75,-2.6228,-2.5627,-2.5764,-2.524,-2.5064,-2.5255,-2.7103,-2.7901,-2.7858,-2.7878,-2.764,-2.7302,-2.8077,-2.7438,-2.6056,-2.6899,-2.5447,-2.2761,-2.1773,-1.9296,-1.6238,-1.4615,-1.244,-1.0262,-0.9564,-0.8865,-0.7897,-0.5785,-0.5193,-0.4932,-0.2954,-0.2287,-0.2221,-0.2221,-0.2154,-0.2418,-0.3735,-0.3078,-0.2421,-0.3092,-0.4143,-0.5124,-0.5986,-0.7931,-0.9539,-0.9736,-1.071,-1.156,-1.1677,-1.2158,-1.294,-1.4222,-1.4579,-1.4864,-1.5449,-1.6265,-1.7191,-1.8258,-1.8555,-1.9121,-2.0232,-1.985,-1.9617,-1.9708,-2.0733,-2.1575,-2.2123,-2.2601,-2.2843,-2.2888,-2.2888,-2.2888,-2.2888,-2.2888,-2.2888,-3.042,-2.6337,-2.0394,-1.3176,-0.2847,0.6349,0.9252,1.0307,1.1012,1.2104,1.2228,1.2297,1.2842,1.1216,0.9987,1.0644,0.9105,0.804,0.865,0.8733,0.9258,1.0748,0.9566,0.9048,0.9958,0.8698,0.7648,0.7172,0.7135,0.4791,-0.0685,-0.598,-1.1658,-1.7805,-2.2209,-2.4877,-2.5737,-2.4948,-2.4595,-2.4731,-2.4856,-2.4981,-2.5141,-2.568,-2.5913,-2.5946,-2.6711,-2.6903,-2.6715,-2.7323,-2.7144,-2.6483,-2.6068,-2.4232,-2.1666,-2.0308,-1.7926,-1.5206,-1.4049,-1.192,-0.9539,-0.8388,-0.7464,-0.647,-0.4469,-0.4604,-0.5143,-0.4151,-0.3153,-0.235,-0.235,-0.1882,-0.1412,-0.1744,-0.2214,-0.282,-0.3491,-0.3887,-0.461,-0.6379,-0.7163,-0.813,-1.0015,-1.0541,-1.1108,-1.2151,-1.2389,-1.2818,-1.3623,-1.5013,-1.594,-1.611,-1.7269,-1.8484,-1.9622,-1.9362,-1.9645,-2.093,-2.0881,-2.0696,-2.0409,-2.051,-2.0894,-2.1575,-2.2077,-2.2509,-2.2888,-2.2888,-2.2888,-2.2888,-2.2888,-2.2888,-3.0523,-2.7752,-2.2353,-1.1823,0.1472,1.1973,1.2236,1.2482,1.2781,1.3139,1.2895,1.272,1.3078,1.2773,1.265,1.3078,1.2887,1.2826,1.3329,1.339,1.345,1.3502,1.3511,1.3381,1.3009,1.3009,1.2826,1.2536,1.2536,1.0914,0.7255,0.0451,-0.4732,-0.7685,-1.6608,-2.109,-2.0617,-2.2826,-2.408,-2.4301,-2.4405,-2.4567,-2.4771,-2.5069,-2.5189,-2.5182,-2.5818,-2.6013,-2.599,-2.6775,-2.6857,-2.6428,-2.6247,-2.5015,-2.3128,-2.1112,-1.8783,-1.6219,-1.3379,-1.0733,-0.8265,-0.6367,-0.5225,-0.4403,-0.3008,-0.3076,-0.3409,-0.2678,-0.2012,-0.1477,-0.1477,-0.1142,-0.0941,-0.1344,-0.2287,-0.3297,-0.4025,-0.4159,-0.4619,-0.6133,-0.6915,-0.7692,-0.893,-0.9901,-1.073,-1.1469,-1.1903,-1.2405,-1.3078,-1.4387,-1.5494,-1.6371,-1.7466,-1.8778,-2.0429,-2.0155,-2.0382,-2.1623,-2.1431,-2.1175,-2.0993,-2.0944,-2.1042,-2.1369,-2.2328,-2.2889,-2.3127,-2.3319,-2.3422,-2.3422,-2.3231,-2.3231,-3.0594,-2.9545,-2.5094,-1.0929,0.1224,1.0188,1.202,1.2359,1.2658,1.383,1.3571,1.3191,1.3252,1.313,1.307,1.3252,1.313,1.3191,1.3623,1.3683,1.3812,1.3983,1.4034,1.4025,1.3914,1.3855,1.3795,1.3674,1.3563,1.3511,1.3511,0.6678,0.2939,0.3243,-0.8047,-1.4544,-1.5373,-1.9864,-2.2808,-2.4097,-2.4057,-2.4155,-2.4386,-2.4777,-2.4971,-2.4956,-2.5163,-2.5238,-2.5279,-2.6242,-2.6369,-2.5987,-2.6477,-2.5873,-2.4455,-2.2101,-1.9836,-1.7243,-1.2572,-0.9439,-0.7127,-0.4287,-0.3057,-0.2538,-0.1741,-0.1608,-0.1675,-0.1073,-0.0738,-0.0537,-0.0537,-0.0403,-0.0403,-0.1144,-0.229,-0.3569,-0.4498,-0.4831,-0.5163,-0.5888,-0.6994,-0.7837,-0.7837,-0.9192,-1.0358,-1.0358,-1.1045,-1.1849,-1.2512,-1.364,-1.4906,-1.6448,-1.751,-1.8911,-2.097,-2.0851,-2.1121,-2.2263,-2.1908,-2.1609,-2.1527,-2.1623,-2.1623,-2.1527,-2.2634,-2.3231,-2.3334,-2.3668,-2.3812,-2.3812,-2.348,-2.3508,-3.0556,-2.5911,-1.7745,-0.3691,0.1519,0.4873,1.145,1.3199,1.3631,1.4327,1.401,1.3881,1.435,1.3674,1.3312,1.4282,1.3803,1.3752,1.5196,1.5371,1.5546,1.5884,1.6208,1.612,1.5573,1.5293,1.4895,1.4296,1.3786,1.3511,1.3511,0.7104,0.3628,0.3945,-0.3256,-0.954,-1.45,-1.539,-1.8477,-2.3777,-2.4042,-2.4192,-2.4229,-2.4422,-2.4582,-2.4747,-2.5018,-2.4994,-2.4809,-2.5376,-2.5327,-2.4957,-2.5533,-2.4266,-2.1966,-2.0694,-1.8456,-1.5437,-1.1256,-0.8811,-0.6994,-0.3234,-0.2329,-0.2469,-0.1272,-0.1672,-0.2538,-0.2404,-0.1605,-0.0737,-0.0737,0.0067,0.0876,0.0741,-0.0673,-0.2622,-0.4837,-0.5722,-0.6258,-0.6552,-0.7582,-0.8425,-0.8425,-0.9064,-0.9646,-0.9646,-1.0401,-1.1142,-1.1789,-1.406,-1.5956,-1.6695,-1.8325,-1.9876,-2.1164,-2.1226,-2.1649,-2.2752,-2.2752,-2.2509,-2.2123,-2.2509,-2.2509,-2.2077,-2.2263,-2.254,-2.2978,-2.3023,-2.3023,-2.3023,-2.2978,-2.3127,-3.0427,-2.5213,-1.7371,-0.7189,-0.1669,0.3279,1.1197,1.3009,1.3252,1.407,1.407,1.401,1.424,1.4043,1.3983,1.4529,1.4529,1.4815,1.571,1.5826,1.5951,1.6239,1.6457,1.6379,1.6083,1.613,1.5958,1.5497,1.5196,1.5031,1.4864,0.8027,0.5835,0.9672,-0.039,-0.5242,-0.3985,-1.0962,-1.754,-2.3576,-2.3801,-2.3923,-2.379,-2.0416,-2.0856,-2.4372,-2.4624,-2.4652,-2.4559,-2.4917,-2.5072,-2.5099,-2.5095,-2.4572,-2.3563,-2.1622,-1.8787,-1.529,-1.0781,-0.7294,-0.4381,-0.1195,-0.0334,-0.0469,0.0067,-0.0134,-0.0602,-0.0602,-0.0134,0.0268,0.0269,0.0673,0.1079,0.1079,0.0472,-0.121,-0.4916,-0.594,-0.634,-0.7043,-0.7559,-0.7942,-0.7912,-0.8812,-0.9518,-0.9646,-1.1017,-1.2197,-1.2557,-1.4378,-1.5981,-1.6894,-1.7997,-1.943,-2.1164,-2.1322,-2.1744,-2.2843,-2.2888,-2.2797,-2.2615,-2.2797,-2.2797,-2.2615,-2.2768,-2.2979,-2.3172,-2.3407,-2.3509,-2.3509,-2.3509,-2.3581,-3.0391,-2.5404,-1.8473,-1.1086,-0.4406,0.2562,1.084,1.2581,1.2642,1.3571,1.3881,1.401,1.401,1.4181,1.4469,1.4706,1.5001,1.541,1.5874,1.5931,1.6046,1.641,1.6524,1.657,1.657,1.6786,1.6786,1.657,1.6389,1.6208,1.5989,1.0701,0.9747,1.441,0.4688,0.0972,0.426,-0.6574,-1.4298,-1.8788,-2.0484,-2.0487,-1.8892,-1.5887,-1.6239,-1.9407,-2.1157,-2.2831,-2.4342,-2.4606,-2.4955,-2.5255,-2.4856,-2.3669,-2.1928,-1.9502,-1.6132,-1.2113,-0.75,-0.4513,-0.2405,0.0267,0.1076,0.1076,0.1076,0.1076,0.1076,0.1076,0.1076,0.1077,0.1079,0.1079,0.1079,0.1079,0.1079,0.0067,-0.3627,-0.4909,-0.5582,-0.637,-0.7245,-0.7841,-0.7807,-0.8759,-0.9582,-0.9773,-1.1329,-1.2696,-1.3183,-1.4392,-1.5613,-1.6802,-1.7827,-1.8976,-2.0354,-2.1295,-2.2072,-2.2603,-2.2859,-2.3053,-2.3201,-2.3172,-2.3127,-2.3008,-2.3363,-2.3435,-2.329,-2.3581,-2.3726,-2.3726,-2.3726,-2.3769,-3.0512,-2.5923,-1.9244,-1.1291,-0.4857,0.1671,1.0147,1.2042,1.2228,1.2887,1.3571,1.401,1.401,1.401,1.43,1.5235,1.5118,1.5186,1.5999,1.6114,1.6285,1.6705,1.7145,1.7412,1.7412,1.7301,1.719,1.7134,1.6627,1.6296,1.6296,1.6223,1.5886,1.5289,1.4357,1.0876,0.4528,-0.2206,-0.5679,-0.5944,-1.188,-1.1711,-0.6352,-1.1962,-1.1467,-0.6526,-1.2581,-1.8585,-2.4155,-2.4409,-2.472,-2.4995,-2.4781,-2.0025,-1.3041,-1.1117,-0.7598,-0.3178,0.0956,0.0057,-0.2473,0.0199,0.1076,0.1076,0.1076,0.1076,0.1076,0.1076,0.1078,0.1079,0.1079,0.1079,0.1079,0.1079,0.1079,0.0875,-0.0134,-0.2132,-0.3801,-0.3867,-0.6531,-0.8761,-0.8755,-0.9168,-0.9582,-0.9773,-1.0521,-1.1618,-1.2995,-1.4007,-1.5001,-1.6306,-1.8258,-1.9172,-1.827,-2.1302,-2.2906,-2.1895,-2.2802,-2.3566,-2.394,-2.3933,-2.3776,-2.3363,-2.3791,-2.3621,-2.2933,-2.2933,-2.2933,-2.2933,-2.2933,-2.3142,-3.0525,-2.8868,-2.4441,-1.3057,-0.8365,-0.3324,0.9023,1.2074,1.2634,1.3743,1.4172,1.4419,1.4834,1.4883,1.5001,1.5352,1.5662,1.6124,1.6899,1.7022,1.7245,1.7909,1.8127,1.8236,1.8236,1.8278,1.817,1.7678,1.7457,1.729,1.7224,1.7101,1.6742,1.6157,1.5883,1.233,0.509,0.2457,-0.0751,-0.46,-0.7156,-0.7172,-0.494,-0.3205,-0.3381,-0.4894,-0.2864,-0.5619,-1.1843,-1.5895,-1.525,-1.1712,-1.1639,-0.9234,-0.5707,-0.5036,-0.1439,0.2963,0.196,0.2362,0.3125,0.1533,0.1061,0.1076,0.1076,0.1076,0.1076,0.1076,0.1078,0.1012,0.0809,0.0877,0.1079,0.1079,0.1079,0.1011,0.074,-0.0336,-0.1742,-0.3143,-0.5266,-0.7466,-0.9397,-1.0034,-1.0395,-1.0521,-1.164,-1.287,-1.3897,-1.5255,-1.6511,-1.7346,-1.8713,-1.9724,-2.0104,-2.1295,-2.2275,-2.2788,-2.3201,-2.3595,-2.3982,-2.3994,-2.3937,-2.3797,-2.4142,-2.3834,-2.2888,-2.2888,-2.2888,-2.2902,-2.3127,-2.3172,-3.0538,-2.9017,-2.476,-1.3556,-0.8802,-0.3691,0.8297,1.1695,1.2581,1.3502,1.4163,1.4765,1.5177,1.5633,1.6026,1.6026,1.656,1.7134,1.7623,1.7678,1.7941,1.8643,1.8602,1.8548,1.8738,1.8815,1.8667,1.8182,1.8116,1.8116,1.8038,1.7918,1.7583,1.6886,1.648,1.3768,0.8575,0.8167,0.5991,0.1999,-0.0603,-0.0645,0.1566,0.3607,0.3428,0.172,0.4227,0.1599,-0.4769,-0.8715,-0.7973,-0.4302,-0.4302,-0.2001,0.1371,0.1808,0.5329,0.9384,0.5964,0.5681,0.6237,0.2304,0.1046,0.1063,0.1073,0.1076,0.1076,0.1077,0.1078,0.1012,0.0742,0.0809,0.0877,0.0877,0.1012,0.1079,0.1079,0.0742,-0.0135,-0.1812,-0.3062,-0.5311,-0.989,-1.0914,-1.1164,-1.1353,-1.2251,-1.3208,-1.4052,-1.539,-1.6602,-1.7609,-1.8847,-1.9927,-2.065,-2.1499,-2.2275,-2.2981,-2.3391,-2.3824,-2.4317,-2.4328,-2.4287,-2.4151,-2.4486,-2.4225,-2.329,-2.326,-2.3127,-2.2902,-2.3127,-2.3127,0.0,0.0,0.0,-1.2966,-0.627,0.0519,0.7843,1.0628,1.1781,1.2027,1.3563,1.4893,1.4951,1.6187,1.7202,1.7202,1.7699,1.8093,1.8147,1.8147,1.8352,1.8915,1.862,1.8566,1.9101,1.8833,1.8667,1.8614,1.8614,1.8667,1.8804,1.9081,1.8658,1.7502,1.6713,1.5902,1.4947,1.4671,1.4605,1.463,0.808,0.8212,1.3996,0.793,0.8586,1.4082,0.8527,0.2336,-0.3771,-0.3506,-0.3511,-0.3677,-0.3677,0.1182,0.8364,0.9607,1.2823,1.6204,1.3617,1.0241,0.6426,0.2563,0.1285,0.1229,0.1263,0.1341,0.1342,0.1279,0.1212,0.1145,0.1146,0.0809,0.0539,0.0539,0.0809,0.1079,0.1079,0.1079,0.0877,0.0202,-0.0,-0.2384,-0.9988,-1.1323,-1.156,-1.216,-1.2157,-1.2421,-1.345,-1.4163,-1.5235,-1.6915,-1.8613,-1.9674,-1.9674,-2.1955,-2.3084,-2.2357,-2.3347,-2.4261,-2.4966,-2.4997,-2.4839,-2.4539,-2.4823,-2.4704,-2.4024,-2.4017,-2.3621,-2.2888,-2.2888,-2.2888,-3.0535,0.0,0.0,0.0,0.0,0.0,0.0149,0.3619,0.6055,1.2206,1.4145,1.4923,1.5526,1.6606,1.7501,1.782,1.7984,1.8267,1.8709,1.9032,1.9478,2.008,2.037,2.0458,2.0232,2.0093,1.9798,1.9081,1.9028,1.9081,1.9251,1.9408,1.9241,1.8722,1.7831,1.6985,1.6185,1.5348,1.4901,1.4801,1.264,1.2625,1.4492,1.2789,1.2986,1.4675,1.3423,1.1858,0.9862,0.5464,0.6479,1.0738,1.0738,1.2761,1.5671,1.5937,1.8051,2.0296,1.6623,1.4718,1.3256,0.9313,0.7654,0.7071,0.6349,0.6408,0.6523,0.551,0.4333,0.3019,0.1459,0.1005,0.0944,0.0944,0.1012,0.1012,0.0742,0.0877,0.1012,0.0809,0.0334,-0.0661,-0.285,-0.4928,-0.7782,-1.2265,-1.1809,-1.1982,-1.456,-1.5736,-1.6714,-1.7664,-1.9623,-2.0811,-2.0811,-2.2179,-2.3068,-2.3084,-2.3391,-2.3909,-2.462,-2.4645,-2.4726,-2.4862,-2.5176,-2.502,-2.4374,-2.3837,-2.3478,-2.3246,-2.3008,-2.2888,-3.0434,-3.0592,-2.9179,-2.2955,0.0,0.0,-0.6902,-0.1464,0.2769,0.772,1.1781,1.4619,1.5157,1.6312,1.7335,1.7655,1.8147,1.8697,1.9239,1.9773,2.0307,2.0894,2.1224,2.1382,2.1299,2.1042,2.0597,1.985,1.9798,1.9759,1.9681,1.9772,1.9673,1.9283,1.8645,1.7992,1.7424,1.6265,1.5716,1.5762,1.4856,1.4582,1.4949,1.4949,1.5028,1.522,1.5724,1.5988,1.583,1.216,1.2976,1.6522,1.6522,1.7339,1.8547,1.9049,2.0567,2.1929,1.8444,1.6922,1.5895,1.1959,0.932,0.7518,0.6957,0.686,0.7067,0.7728,0.7173,0.5811,0.3427,0.2593,0.2209,0.1278,0.1078,0.1012,0.0607,0.0607,0.0674,0.0674,0.0268,-0.0,-0.0,-0.145,-0.4625,-1.0425,-1.0885,-1.1622,-1.461,-1.5813,-1.6736,-1.7555,-1.9405,-2.0811,-2.1274,-2.2267,-2.3053,-2.3363,-2.3406,-2.3681,-2.4291,-2.4291,-2.4441,-2.4766,-2.4974,-2.4895,-2.4498,-2.4214,-2.3864,-2.3406,-2.3216,-2.3008,-3.0275,-3.0424,-2.9199,-2.3771,-2.191,0.0,-1.3472,-0.6363,-0.0839,0.0049,0.6879,1.2764,1.3139,1.507,1.6765,1.7202,1.8201,1.9093,1.9656,2.0258,2.0845,2.1321,2.1513,2.1718,2.2184,2.1779,2.1286,2.0759,2.061,2.0422,2.008,2.0131,1.9926,1.9368,1.9183,1.8834,1.8384,1.7219,1.6726,1.6904,1.5544,1.5051,1.5312,1.5367,1.5445,1.568,1.6175,1.6436,1.6479,1.6522,1.6552,1.6637,1.6667,1.7451,1.8699,1.993,2.1198,2.1986,1.95,1.7895,1.6341,1.2733,0.9155,0.62,0.5819,0.5611,0.6081,0.8972,0.9608,0.8837,0.6082,0.4957,0.3967,0.1675,0.1076,0.1009,0.0607,0.027,-0.0,-0.0,-0.0,-0.0,-0.0,-0.0267,-0.2169,-0.7144,-0.9205,-1.1178,-1.3921,-1.4982,-1.5891,-1.6881,-1.8682,-2.0089,-2.086,-2.2257,-2.3113,-2.3157,-2.3275,-2.3508,-2.3925,-2.394,-2.4109,-2.4457,-2.4498,-2.4539,-2.4539,-2.4839,-2.4446,-2.345,-2.3406,-2.3246,-3.0032,-3.0282,-3.0205,-2.9018,-2.8625,0.0,-2.0018,-1.7205,-1.4272,-0.8147,-0.0907,0.4688,0.5741,1.1277,1.6053,1.7302,1.8038,1.8614,1.9093,2.0383,2.1272,2.1369,2.2109,2.2509,2.2231,2.2123,2.1827,2.1272,2.0845,2.056,2.0472,2.0182,1.9772,1.9239,1.931,1.8924,1.8094,1.7814,1.7301,1.642,1.6359,1.6006,1.5468,1.5647,1.578,1.5944,1.6144,1.6318,1.6436,1.6479,1.6837,1.7422,1.7692,1.8484,1.9504,1.9925,2.1128,2.2297,2.0597,1.989,1.9405,1.7502,1.6009,1.4408,1.144,1.2006,1.345,1.257,1.1121,0.9265,0.7076,0.6617,0.5769,0.2006,0.1133,0.0994,0.0605,0.027,-0.0,-0.0,-0.0,-0.0,-0.0,-0.0269,-0.0999,-0.2402,-0.6287,-0.9982,-1.2557,-1.4809,-1.6306,-1.6513,-1.9157,-2.0294,-1.8754,-2.2064,-2.3498,-2.1782,-2.2543,-2.3127,-2.3508,-2.3508,-2.3696,-2.4109,-2.4359,-2.462,-2.4886,-2.4686,-2.4343,-2.3882,-2.3551,-2.3363,-2.9748,-3.0023,-3.0252,-3.0297,-3.0394,0.0,0.0,-2.2753,-1.9186,-1.5242,-0.5829,0.2056,0.3169,0.9648,1.5255,1.6641,1.7534,1.8201,1.8602,2.0219,2.1513,2.1779,2.2449,2.2797,2.2555,2.2555,2.2324,2.1827,2.1042,2.061,2.061,2.0169,1.9759,1.9488,1.9552,1.9416,1.9017,1.8568,1.8017,1.7339,1.6764,1.6289,1.5845,1.5721,1.578,1.6044,1.6349,1.6595,1.671,1.7175,1.78,1.8416,1.8177,1.9108,2.059,2.0849,2.2007,2.3348,2.2553,2.1499,2.0378,1.963,1.7424,1.4766,1.317,1.3286,1.3965,1.4037,1.2934,1.0967,0.7889,0.7947,0.756,0.2336,0.113,0.1057,0.0873,0.0404,-0.0,-0.0,-0.0,-0.0,-0.0,-0.027,-0.0669,-0.1042,-0.4324,-0.7719,-1.0262,-1.2847,-1.485,-1.5953,-1.9117,-2.1171,-2.1171,-2.3681,-2.4777,-2.3728,-2.416,-2.4516,-2.4673,-2.4712,-2.4642,-2.4489,-2.4354,-2.4317,-2.4523,-2.4498,-2.4416,-2.4234,-2.4051,-2.3767,-2.9436,-2.9695,-2.9935,-3.0016,-3.0202,-3.0389,0.0,0.0,0.0,-2.2037,-1.1763,-0.2495,-0.1538,0.5925,1.2354,1.3682,1.5935,1.7829,1.8543,2.0092,2.1369,2.1969,2.2555,2.2888,2.2888,2.2888,2.2752,2.237,2.1334,2.0759,2.0759,2.0156,1.9747,1.9592,1.9747,1.9811,1.9836,1.9232,1.8808,1.8472,1.7267,1.6575,1.6279,1.5901,1.5864,1.6076,1.6625,1.6909,1.7105,1.784,1.8608,1.9259,1.8757,1.9842,2.1647,2.2046,2.3067,2.4256,2.3945,2.2526,2.0767,2.0209,1.6718,1.286,1.3791,1.3049,1.2325,1.448,1.404,1.2058,0.8265,0.8725,0.8667,0.2538,0.2333,0.3047,0.1479,0.0539,-0.0,-0.0,-0.0,-0.0,-0.0,-0.027,-0.0669,-0.1048,-0.3264,-0.5849,-0.8403,-1.1264,-1.3951,-1.618,-1.9819,-2.2581,-2.3869,-2.5407,-2.6118,-2.5711,-2.5881,-2.5983,-2.5983,-2.5983,-2.5686,-2.499,-2.4465,-2.4147,-2.3982,-2.4276,-2.4457,-2.4498,-2.4498,-2.4177,-2.9042,-2.9299,-2.9661,-2.9723,-2.9813,-2.9927,-3.0109,0.0,-2.9179,-2.9216,0.0,-1.7568,-1.6738,0.0,0.0,0.5745,1.1965,1.7445,1.9648,2.0117,2.0484,2.1369,2.231,2.2888,2.2888,2.2888,2.2888,2.2797,2.186,2.1321,2.1321,2.0346,1.954,1.891,1.9488,1.9604,1.9105,1.9606,1.9484,1.8834,1.8362,1.7618,1.6652,1.6604,1.6438,1.6269,1.6782,1.7076,1.7312,1.7733,1.8468,1.9368,2.0125,2.1215,2.2444,2.3023,2.3671,2.4121,2.2925,2.2356,2.1772,1.9409,1.5927,1.3145,1.5538,1.3917,1.1794,1.4406,1.2989,1.025,0.7879,0.8388,0.8109,0.241,0.6759,1.0048,0.2693,0.0539,-0.0,-0.0,-0.0,-0.0,-0.0,-0.027,-0.0606,-0.1008,-0.3236,-0.5849,-0.8403,-1.2569,-1.6287,-1.8808,-2.2775,-2.4617,-2.3016,-2.5631,-2.6502,-2.4608,-2.5438,-2.5983,-2.5983,-2.5983,-2.5686,-2.499,-2.4946,-2.4578,-2.3982,-2.4024,-2.4193,-2.4498,-2.4498,-2.4457,-2.8984,-2.9254,-2.957,-2.9476,-2.9687,-2.9923,-2.9915,-3.0085,-3.0238,-3.0179,0.0,0.0,0.0,0.0,0.0,0.0,0.7472,1.228,1.7763,1.9915,2.139,2.2696,2.2663,2.2615,2.2843,2.2888,2.2888,2.2888,2.1955,2.1417,2.1417,2.0295,1.9384,1.878,1.8951,1.8951,1.8845,1.915,1.9157,1.869,1.8554,1.7796,1.6607,1.6691,1.6577,1.6355,1.7076,1.7449,1.7571,1.8341,1.9006,1.963,2.0653,2.154,2.2354,2.3124,2.369,2.3997,2.3566,2.2942,2.1928,1.9269,1.7544,1.6635,1.7325,1.6243,1.4974,1.5782,1.5061,1.3212,0.9454,1.0759,1.101,0.3002,0.746,1.1088,0.2356,0.0202,-0.0,-0.0,-0.0,-0.0135,-0.0539,-0.0404,-0.0404,-0.1012,0.1207,0.2233,0.0238,-0.0576,-0.1838,-0.4123,-1.2246,-1.7646,-1.8022,-2.4386,-2.8004,-2.7087,-2.7497,-2.7733,-2.7733,-2.7185,-2.6449,-2.5595,-2.5002,-2.4265,-2.3378,-2.3625,-2.3782,-2.3867,-2.4135,-2.4177,-2.8858,-2.9056,-2.9316,-2.9104,-2.9302,-2.9565,-2.9576,-2.976,-2.992,-2.9943,-2.6072,0.0,0.0,0.0,-0.986,-0.3908,0.0,0.718,1.3545,1.7909,2.1199,2.326,2.3084,2.2814,2.2888,2.2963,2.3023,2.2902,2.2109,2.1575,2.1417,2.0396,1.9488,1.878,1.8578,1.8471,1.8459,1.8608,1.8608,1.8548,1.8277,1.7714,1.6935,1.6812,1.6648,1.6567,1.728,1.7679,1.7868,1.8741,1.9369,1.9889,2.0911,2.1576,2.2113,2.3052,2.3611,2.3944,2.4138,2.3145,2.1467,1.9574,1.8754,1.8481,1.8285,1.7738,1.7157,1.7137,1.6514,1.5042,1.1485,1.0986,0.9692,0.2625,0.5491,0.8011,0.1413,-0.0,-0.0,-0.0,-0.0,-0.0202,-0.0944,0.1712,0.337,0.1812,0.6416,0.9377,0.7387,0.8139,0.8003,0.5806,-0.2842,-0.9098,-1.0643,-1.9587,-2.6193,-2.8824,-2.9017,-2.9017,-2.8994,-2.8337,-2.7494,-2.6447,-2.5458,-2.4437,-2.339,-2.3493,-2.348,-2.3421,-2.3952,-2.3979,-2.8458,-2.8518,-2.8694,-2.8474,-2.8448,-2.8558,-2.8929,-2.9079,-2.9251,-2.9707,-2.9651,-2.9541,-2.9709,-2.4049,-1.9105,-1.8305,-0.6562,0.0,0.0,1.313,1.8694,2.2048,2.3492,2.3882,2.2978,2.3216,2.3246,2.2933,2.2463,2.1921,2.1417,2.0759,1.9901,1.8857,1.8578,1.8321,1.7952,1.7929,1.8135,1.8471,1.7633,1.758,1.8106,1.7097,1.6752,1.707,1.7294,1.7639,1.8028,1.8664,1.9332,2.0096,2.0943,2.1505,2.194,2.3021,2.3653,2.4018,2.4159,2.2547,2.043,2.0368,1.8637,1.6779,1.7865,1.7472,1.6862,1.7943,1.6057,1.3647,1.3531,0.7259,0.0888,0.0572,0.0459,0.0337,0.0067,-0.0,-0.0,-0.0,-0.0,-0.0202,-0.0944,0.7178,1.2577,0.8907,1.1309,1.2562,0.9914,0.7895,0.5731,0.3177,0.0723,-0.0791,-0.0861,-0.964,-1.9127,-2.8411,-2.9062,-2.9085,-2.9017,-2.9089,-2.8627,-2.7561,-2.6636,-2.5657,-2.4625,-2.3746,-2.3363,-2.3509,-2.4051,-2.4219,-2.881,-2.8915,-2.9012,-2.8676,-2.8682,-2.8737,-2.842,-2.8456,-2.8584,-2.8713,-2.8869,-2.9075,-2.9265,-2.7383,-2.4322,-1.9819,-1.439,-0.877,0.0,0.6428,1.5367,2.1944,2.3676,2.4131,2.3493,2.3406,2.3246,2.2933,2.2156,2.1575,2.1417,2.0446,1.9371,1.8244,1.8038,1.7776,1.729,1.7379,1.7479,1.7501,1.7479,1.7169,1.6609,1.6706,1.6667,1.651,1.6969,1.738,1.7828,1.8279,1.8974,1.9854,2.0467,2.1149,2.194,2.2996,2.3503,2.3721,2.4082,2.3644,2.2645,2.0944,1.9822,1.8987,1.8364,1.7941,1.7751,1.8166,1.7997,1.7497,1.6462,1.4694,1.2019,0.7537,0.317,-0.0,-0.0,-0.0,-0.0,-0.0,-0.0,-0.0135,-0.0607,0.7354,1.2645,0.9199,1.3317,1.6864,1.7075,1.9334,2.0564,1.9704,1.3275,0.9068,0.9068,-0.554,-1.8795,-2.8393,-2.9017,-2.9017,-2.8994,-2.9085,-2.8664,-2.7607,-2.5964,-2.4997,-2.4703,-2.3141,-2.2725,-2.3363,-2.3696,-2.3782,-2.8929,-2.9003,-2.9012,-2.8676,-2.8682,-2.8664,-2.8129,-2.8094,-2.8218,-2.8244,-2.8247,-2.8419,-2.8948,-2.8726,-2.7153,-2.3131,-1.9705,-1.4973,0.0,0.347,1.2813,1.8279,2.2371,2.4511,2.3822,2.3435,2.3054,2.2783,2.1908,2.1321,2.1175,2.0359,1.9319,1.8027,1.7765,1.7279,1.6436,1.6606,1.6549,1.6379,1.6652,1.6504,1.6043,1.6177,1.6294,1.6373,1.6675,1.7118,1.772,1.8069,1.8836,1.9833,2.023,2.0959,2.1911,2.2898,2.3464,2.3806,2.4119,2.3934,2.3245,2.1617,2.0445,1.9591,1.9024,1.8557,1.8236,1.8485,1.9172,1.9552,1.836,1.8786,1.8408,1.4032,0.9771,0.552,0.0953,-0.0,-0.0066,-0.0336,-0.0404,0.0267,0.2383,0.7796,1.1541,1.0601,1.699,2.2309,2.3349,2.6238,2.8182,2.8182,2.2654,1.7604,1.4183,0.2566,-1.0091,-2.3077,-2.3939,-2.5474,-2.8888,-2.913,-2.886,-2.8222,-2.591,-2.4725,-2.4783,-2.2849,-2.2257,-2.2846,-2.3363,-2.3566]},{"header":{"parameterUnit":"m.s-1","parameterCategory":1,"la1":30.6,"la2":29.2853,"lo1":-89.7004,"lo2":-87.6739,"dy":0.0162,"dx":0.0183,"nx":112,"ny":82,"refTime":"2023-08-11T06:00:00:Z","depth":0,"parameterNumber":3,"parameterNumberName":"V-component_of_WINDS"},"data":[0.0,0.0,0.0,0.0,0.0,0.0,0.0,0.0,0.0,0.0,0.0,0.0,0.0,0.0,0.0,0.0,0.0,0.0,0.0,0.0,0.0,0.0,0.0,0.0,0.0,0.0,0.0,0.0,0.0,0.0,0.0,0.0,0.0,0.0,0.0,0.0,0.0,0.0,0.0,0.0,0.0,0.0,0.0,0.0,0.0,0.0,0.0,0.0,0.0,0.0,0.0,0.0,0.0,0.0,0.0,0.0,0.0,0.0,0.0,0.0,0.0,0.0,0.0,0.0,0.0,0.0,0.0,0.0,0.0,0.0,0.0,0.0,0.0,0.0,0.0,0.0,0.0,0.0,0.0,0.0,0.0,0.0,0.0,0.0,0.0,0.0,0.0,0.0,0.0,0.0,-1.5505,-1.4824,-1.5054,-1.5275,-1.5275,-1.5275,-1.57,-1.6673,0.0,0.0,0.0,0.0,0.0,0.0,0.0,0.0,0.0,0.0,0.0,0.0,0.0,0.0,0.0,0.0,0.0,0.0,0.0,0.0,0.0,0.0,0.0,0.0,0.0,0.0,0.0,0.0,0.0,0.0,0.0,0.0,0.0,0.0,0.0,0.0,0.0,0.0,0.0,0.0,0.0,0.0,0.0,0.0,0.0,0.0,0.0,0.0,0.0,0.0,0.0,0.0,0.0,0.0,0.0,0.0,0.0,0.0,0.0,0.0,0.0,0.0,0.0,0.0,0.0,0.0,0.0,0.0,0.0,0.0,0.0,0.0,0.0,0.0,0.0,0.0,0.0,0.0,0.0,0.0,0.0,0.0,0.0,0.0,0.0,0.0,0.0,0.0,0.0,0.0,0.0,0.0,0.0,0.0,0.0,0.0,0.0,0.0,0.0,0.0,0.0,0.0,0.0,0.0,-1.5726,-1.5655,-1.5655,-1.5726,-1.5726,-1.5726,-1.614,-1.7235,0.0,0.0,0.0,0.0,0.0,0.0,0.0,0.0,0.0,0.0,0.0,0.0,0.0,0.0,0.0,0.0,0.0,0.0,0.0,0.0,0.0,0.0,0.0,0.0,0.0,0.0,0.0,0.0,0.0,0.0,0.0,0.0,0.0,0.0,0.0,0.0,0.0,0.0,0.0,0.0,0.0,0.0,0.0,0.0,0.0,0.0,0.0,0.0,0.0,0.0,0.0,0.0,0.0,0.0,0.0,0.0,0.0,0.0,0.0,0.0,0.0,0.0,0.0,0.0,0.0,0.0,0.0,0.0,0.0,0.0,0.0,0.0,0.0,0.0,0.0,0.0,0.0,0.0,0.0,0.0,0.0,0.0,0.0,0.0,0.0,0.0,0.0,0.0,0.0,0.0,0.0,0.0,0.0,0.0,0.0,0.0,0.0,0.0,0.0,0.0,0.0,0.0,0.0,-1.5805,-1.5805,-1.5805,-1.5805,-1.5805,-1.5805,-1.607,-1.6551,-1.7382,-1.7725,0.0,0.0,0.0,0.0,0.0,0.0,0.0,0.0,0.0,0.0,0.0,0.0,0.0,0.0,0.0,0.0,0.0,0.0,0.0,0.0,0.0,0.0,0.0,0.0,0.0,0.0,0.0,0.0,0.0,0.0,0.0,0.0,0.0,0.0,0.0,0.0,0.0,0.0,0.0,0.0,0.0,0.0,0.0,0.0,0.0,0.0,0.0,0.0,0.0,0.0,0.0,0.0,0.0,0.0,0.0,0.0,0.0,0.0,0.0,0.0,0.0,0.0,0.0,0.0,0.0,0.0,0.0,0.0,0.0,0.0,0.0,0.0,0.0,0.0,0.0,0.0,0.0,0.0,0.0,0.0,0.0,0.0,0.0,0.0,0.0,0.0,0.0,0.0,0.0,0.0,0.0,0.0,0.0,0.0,0.0,0.0,0.0,0.0,0.0,0.0,0.0,0.0,-1.5805,-1.5805,-1.5805,-1.5805,-1.5867,-1.6008,-1.6333,-1.6881,-1.7579,-1.8066,0.0,0.0,0.0,0.0,0.0,0.0,0.0,0.0,0.0,0.0,0.0,0.0,0.0,0.0,0.0,0.0,0.0,0.0,0.0,0.0,0.0,0.0,0.0,0.0,0.0,0.0,0.0,0.0,0.0,0.0,0.0,0.0,0.0,0.0,0.0,0.0,0.0,0.0,0.0,0.0,0.0,0.0,0.0,0.0,0.0,0.0,0.0,0.0,0.0,0.0,0.0,0.0,0.0,0.0,0.0,0.0,0.0,0.0,0.0,0.0,0.0,0.0,0.0,0.0,0.0,0.0,0.0,0.0,0.0,0.0,0.0,0.0,0.0,0.0,0.0,0.0,0.0,0.0,0.0,0.0,0.0,0.0,0.0,0.0,0.0,0.0,0.0,0.0,0.0,0.0,0.0,0.0,0.0,0.0,0.0,0.0,0.0,0.0,0.0,0.0,0.0,0.0,-1.5805,-1.5805,-1.5805,-1.5805,-1.6,-1.6473,-1.6603,-1.7088,-1.8202,-1.8269,0.0,0.0,0.0,0.0,0.0,0.0,0.0,0.0,0.0,0.0,0.0,0.0,0.0,0.0,0.0,0.0,0.0,0.0,0.0,0.0,0.0,0.0,0.0,0.0,0.0,0.0,0.0,0.0,0.0,0.0,0.0,0.0,0.0,0.0,0.0,0.0,0.0,0.0,0.0,0.0,0.0,0.0,0.0,0.0,0.0,0.0,0.0,0.0,0.0,0.0,0.0,0.0,0.0,0.0,0.0,0.0,0.0,0.0,0.0,0.0,0.0,0.0,0.0,0.0,0.0,0.0,0.0,0.0,0.0,0.0,0.0,0.0,0.0,0.0,0.0,0.0,0.0,0.0,0.0,0.0,0.0,0.0,0.0,0.0,0.0,0.0,0.0,0.0,0.0,0.0,0.0,0.0,0.0,0.0,0.0,0.0,0.0,0.0,0.0,0.0,0.0,0.0,-1.5805,-1.5938,-1.6272,-1.6272,-1.6542,-1.7028,-1.7442,-1.7852,-1.8269,0.0,0.0,0.0,0.0,0.0,0.0,0.0,0.0,0.0,0.0,0.0,0.0,0.0,0.0,0.0,0.0,0.0,0.0,0.0,0.0,0.0,0.0,0.0,0.0,0.0,0.0,0.0,0.0,0.0,0.0,0.0,0.0,0.0,0.0,0.0,0.0,0.0,0.0,0.0,0.0,0.0,0.0,0.0,0.0,0.0,0.0,0.0,0.0,0.0,0.0,0.0,0.0,0.0,0.0,0.0,0.0,0.0,0.0,0.0,0.0,0.0,0.0,0.0,0.0,0.0,0.0,0.0,0.0,0.0,0.0,0.0,0.0,0.0,0.0,0.0,0.0,0.0,0.0,0.0,0.0,0.0,0.0,0.0,0.0,0.0,0.0,0.0,0.0,0.0,0.0,0.0,0.0,0.0,0.0,0.0,0.0,0.0,0.0,0.0,0.0,0.0,0.0,-1.5805,-1.5938,-1.6202,-1.6533,-1.6742,-1.7097,-1.7657,-1.8066,-1.8405,-1.8539,0.0,0.0,0.0,0.0,0.0,0.0,0.0,0.0,0.0,0.0,0.0,0.0,0.0,0.0,0.0,0.0,0.0,0.0,0.0,0.0,0.0,0.0,0.0,0.0,0.0,0.0,0.0,0.0,0.0,0.0,0.0,0.0,0.0,0.0,0.0,0.0,0.0,0.0,0.0,0.0,0.0,0.0,0.0,0.0,0.0,0.0,0.0,0.0,0.0,0.0,0.0,0.0,0.0,0.0,0.0,0.0,0.0,0.0,0.0,0.0,0.0,0.0,0.0,0.0,0.0,0.0,0.0,0.0,0.0,0.0,0.0,0.0,0.0,0.0,0.0,0.0,0.0,0.0,0.0,0.0,0.0,0.0,0.0,0.0,0.0,0.0,0.0,0.0,0.0,0.0,0.0,0.0,0.0,0.0,0.0,0.0,0.0,0.0,0.0,0.0,0.0,0.0,-1.5867,-1.6272,-1.6603,-1.6603,-1.7097,-1.7647,-1.8269,-1.8337,-1.8539,0.0,0.0,0.0,0.0,0.0,0.0,0.0,0.0,0.0,0.0,0.0,0.0,0.0,0.0,0.0,0.0,0.0,0.0,0.0,0.0,0.0,0.0,0.0,0.0,0.0,0.0,0.0,0.0,0.0,0.0,0.0,0.0,0.0,0.0,0.0,0.0,0.0,0.0,0.0,0.0,0.0,0.0,0.0,0.0,0.0,0.0,0.0,0.0,0.0,0.0,0.0,0.0,0.0,0.0,0.0,0.0,0.0,0.0,0.0,0.0,0.0,0.0,0.0,0.0,0.0,0.0,0.0,0.0,0.0,0.0,0.0,0.0,0.0,0.0,0.0,0.0,0.0,0.0,0.0,0.0,0.0,0.0,0.0,0.0,0.0,0.0,0.0,0.0,0.0,0.0,0.0,0.0,0.0,0.0,0.0,0.0,0.0,0.0,0.0,0.0,0.0,0.0,0.0,-1.6968,-1.7097,-1.7304,-1.7784,-1.792,-1.8269,-1.8808,-1.8875,-1.8998,-1.9407,0.0,0.0,0.0,0.0,0.0,0.0,0.0,0.0,0.0,0.0,0.0,0.0,0.0,0.0,0.0,0.0,0.0,0.0,0.0,0.0,0.0,0.0,0.0,0.0,0.0,0.0,0.0,0.0,0.0,0.0,0.0,0.0,0.0,0.0,0.0,0.0,0.0,0.0,0.0,0.0,0.0,0.0,0.0,0.0,0.0,0.0,0.0,0.0,0.0,0.0,0.0,0.0,0.0,0.0,0.0,0.0,0.0,0.0,0.0,0.0,0.0,0.0,0.0,0.0,0.0,0.0,0.0,0.0,0.0,0.0,0.0,0.0,0.0,0.0,0.0,0.0,0.0,0.0,0.0,0.0,0.0,0.0,0.0,0.0,0.0,0.0,0.0,0.0,0.0,0.0,0.0,0.0,0.0,0.0,0.0,0.0,0.0,0.0,0.0,0.0,0.0,0.0,-1.7442,-1.7579,-1.793,-1.8269,-1.8472,-1.8808,-1.9274,-1.9274,-1.9462,-1.9791,0.0,0.0,0.0,0.0,0.0,0.0,0.0,0.0,0.0,0.0,0.0,0.0,0.0,0.0,0.0,0.0,0.0,0.0,0.0,0.0,0.0,0.0,0.0,0.0,0.0,0.0,0.0,0.0,0.0,0.0,0.0,0.0,0.0,0.0,0.0,0.0,0.0,0.0,0.0,0.0,0.0,0.0,0.0,0.0,0.0,0.0,0.0,0.0,0.0,0.0,0.0,0.0,0.0,0.0,0.0,0.0,0.0,0.0,0.0,0.0,0.0,0.0,0.0,0.0,0.0,0.0,0.0,0.0,0.0,0.0,0.0,0.0,0.0,0.0,0.0,0.0,0.0,0.0,0.0,0.0,0.0,0.0,0.0,0.0,0.0,0.0,0.0,0.0,0.0,0.0,0.0,0.0,0.0,0.0,0.0,0.0,0.0,0.0,0.0,0.0,0.0,0.0,-1.7716,-1.8124,-1.8405,-1.8462,-1.8865,-1.933,-1.9605,-1.9671,-1.9791,-2.0172,0.0,0.0,0.0,0.0,0.0,0.0,0.0,0.0,0.0,0.0,0.0,0.0,0.0,0.0,0.0,0.0,0.0,0.0,0.0,0.0,0.0,0.0,0.0,0.0,0.0,0.0,0.0,0.0,0.0,0.0,0.0,0.0,0.0,0.0,0.0,0.0,0.0,0.0,0.0,0.0,0.0,0.0,0.0,0.0,0.0,0.0,0.0,0.0,0.0,0.0,0.0,0.0,0.0,0.0,0.0,0.0,0.0,0.0,0.0,0.0,-1.9301,-1.9301,0.0,0.0,0.0,0.0,0.0,0.0,0.0,0.0,0.0,0.0,0.0,0.0,0.0,0.0,0.0,0.0,0.0,0.0,0.0,0.0,0.0,0.0,0.0,0.0,0.0,0.0,0.0,0.0,0.0,0.0,0.0,0.0,0.0,0.0,0.0,0.0,0.0,0.0,0.0,0.0,-1.9441,-1.9396,-1.9396,-1.9715,-1.9846,-1.9911,-1.9977,-1.9977,-2.0302,-2.1071,-2.1325,0.0,0.0,0.0,0.0,0.0,0.0,0.0,0.0,0.0,0.0,0.0,0.0,0.0,0.0,0.0,0.0,0.0,0.0,0.0,0.0,0.0,0.0,0.0,0.0,0.0,0.0,0.0,0.0,0.0,0.0,0.0,0.0,0.0,0.0,0.0,0.0,0.0,0.0,0.0,0.0,0.0,0.0,0.0,0.0,0.0,0.0,0.0,0.0,0.0,0.0,0.0,0.0,0.0,0.0,0.0,0.0,0.0,0.0,0.0,-1.9301,-1.9301,0.0,0.0,0.0,0.0,0.0,0.0,0.0,0.0,0.0,0.0,0.0,0.0,0.0,0.0,0.0,0.0,0.0,0.0,0.0,0.0,0.0,0.0,0.0,0.0,0.0,0.0,0.0,0.0,0.0,0.0,0.0,0.0,0.0,0.0,0.0,0.0,0.0,0.0,0.0,0.0,-2.0042,-1.9977,-1.9911,-2.0096,-2.0096,-2.0172,-2.0302,-2.056,-2.0996,-2.1577,-2.2075,0.0,0.0,0.0,0.0,0.0,0.0,0.0,0.0,0.0,0.0,0.0,0.0,0.0,0.0,0.0,0.0,0.0,0.0,0.0,0.0,0.0,0.0,0.0,0.0,0.0,0.0,0.0,0.0,0.0,0.0,0.0,0.0,0.0,0.0,0.0,0.0,0.0,0.0,0.0,0.0,0.0,0.0,0.0,0.0,0.0,0.0,0.0,0.0,0.0,0.0,0.0,0.0,0.0,-1.9301,-1.9301,-1.9301,-1.9301,-1.9265,-1.9191,-1.9349,-1.9316,-1.9381,-2.0304,0.0,0.0,0.0,0.0,0.0,0.0,0.0,0.0,0.0,0.0,0.0,0.0,0.0,0.0,0.0,0.0,0.0,0.0,0.0,0.0,0.0,0.0,-2.4062,-2.3569,-2.316,-2.2865,-2.2865,0.0,0.0,0.0,0.0,0.0,0.0,0.0,0.0,0.0,0.0,0.0,-2.0302,-2.0237,-2.0237,-2.0291,-2.0355,-2.056,-2.0816,-2.1325,-2.1765,-2.2137,-2.2957,-2.3463,0.0,0.0,0.0,0.0,0.0,0.0,0.0,0.0,0.0,0.0,0.0,0.0,0.0,0.0,0.0,0.0,0.0,0.0,0.0,0.0,0.0,0.0,0.0,0.0,0.0,0.0,0.0,0.0,0.0,0.0,0.0,0.0,-1.4901,-1.4734,0.0,0.0,0.0,0.0,0.0,0.0,0.0,0.0,0.0,0.0,0.0,0.0,0.0,-1.7513,-1.9134,-1.9222,-1.9301,-1.9301,-1.9301,-1.9301,-1.9301,-1.9301,-1.9118,-1.8788,-1.945,0.0,-1.946,-2.0991,0.0,0.0,0.0,0.0,0.0,0.0,0.0,0.0,0.0,0.0,0.0,0.0,0.0,0.0,0.0,0.0,0.0,0.0,0.0,0.0,0.0,0.0,-2.4062,-2.3569,-2.3372,-2.3301,-2.3301,-2.2402,-2.1559,-2.149,-2.1098,-2.0828,0.0,0.0,0.0,0.0,0.0,0.0,-2.0955,-2.0764,-2.07,-2.1031,-2.1451,-2.169,-2.169,-2.2175,-2.2677,-2.315,-2.333,-2.3582,-2.3995,-2.4054,0.0,0.0,0.0,0.0,0.0,0.0,0.0,0.0,0.0,0.0,0.0,0.0,0.0,0.0,0.0,0.0,0.0,0.0,0.0,0.0,0.0,0.0,0.0,0.0,0.0,0.0,0.0,0.0,0.0,-1.522,-1.4657,-1.4412,-1.4328,-1.4328,0.0,0.0,0.0,0.0,0.0,0.0,0.0,0.0,0.0,-1.6698,-1.7188,-1.7997,-1.9301,-1.9081,-1.9081,-1.9292,-1.8852,-1.8751,-1.8962,-1.8742,-1.855,-1.8385,-1.9106,-1.9351,-1.9392,-2.1259,-2.22,-2.2606,0.0,0.0,0.0,0.0,-2.4778,-2.4897,-2.4706,-2.4706,-2.4849,-2.4718,0.0,0.0,0.0,0.0,0.0,0.0,0.0,-2.461,-2.4384,-2.4706,-2.5027,-2.4501,-2.4381,-2.4309,-2.4022,-2.3288,-2.2423,-2.1823,-2.1374,-2.1025,-2.1025,-2.0846,0.0,0.0,0.0,-2.0828,-2.1158,-2.1031,-2.1083,-2.1526,-2.1765,-2.2002,-2.2298,-2.275,-2.3138,-2.3403,-2.3641,-2.3878,-2.4112,-2.4112,-2.4112,0.0,0.0,0.0,0.0,0.0,0.0,0.0,0.0,0.0,0.0,0.0,0.0,0.0,0.0,0.0,0.0,0.0,0.0,0.0,0.0,0.0,0.0,0.0,0.0,0.0,0.0,0.0,0.0,-1.465,-1.4489,-1.4173,-1.4088,-1.4088,0.0,0.0,0.0,0.0,0.0,0.0,-1.4088,-1.483,-1.5681,-1.6482,-1.7288,-1.8118,-1.8999,-1.8705,-1.8705,-1.899,-1.8403,-1.833,-1.8705,-1.8412,-1.8415,-1.8704,-1.9424,-1.9925,-2.0215,-2.1525,-2.228,-2.2765,-2.3655,-2.4166,-2.446,-2.439,-2.4507,-2.4776,-2.4519,-2.4589,-2.4648,-2.4531,-2.4813,-2.5284,-2.5545,0.0,0.0,0.0,0.0,-2.5093,-2.4878,-2.5136,-2.5308,-2.4767,-2.4743,-2.473,-2.4415,-2.3879,-2.3203,-2.2313,-2.1747,-2.1319,-2.1244,-2.1221,0.0,-2.1221,-2.1221,-2.1221,-2.1336,-2.1411,-2.1588,-2.2002,-2.2187,-2.2445,-2.2798,-2.3258,-2.3582,-2.3582,-2.3878,-2.4112,-2.4112,-2.4112,-2.4112,-2.4112,0.0,0.0,0.0,0.0,0.0,0.0,0.0,0.0,0.0,0.0,0.0,0.0,0.0,0.0,0.0,0.0,0.0,0.0,0.0,0.0,0.0,0.0,0.0,0.0,0.0,0.0,0.0,0.0,0.0,-1.4166,-1.4088,0.0,0.0,0.0,0.0,-1.4088,-1.4088,-1.4088,-1.4088,-1.455,-1.5262,-1.6134,-1.6602,-1.7264,-1.8183,-1.8164,-1.8164,-1.8183,-1.8146,-1.833,-1.8715,-1.8687,-1.9193,-2.0133,-2.0894,-2.176,-2.2659,-2.2015,-2.1721,-2.1882,-2.3071,-2.3566,-2.3566,-2.3778,-2.3711,-2.3566,-2.3566,-2.3566,-2.3566,-2.3566,-2.4493,-2.5791,-2.6755,-2.7085,0.0,0.0,-2.6043,-2.5303,-2.4452,-2.421,-2.4034,-2.3585,-2.3842,-2.412,-2.4096,-2.3769,-2.3298,-2.2827,-2.2297,-2.1732,-2.1314,0.0,-2.1221,-2.1221,-2.1221,-2.1336,-2.1827,-2.1877,-2.2063,-2.2531,-2.3005,-2.333,-2.3343,-2.3819,-2.4054,-2.4054,-2.4112,-2.4112,-2.4112,-2.4112,-2.4112,-2.4112,-2.3949,0.0,0.0,0.0,0.0,0.0,0.0,0.0,0.0,0.0,0.0,0.0,0.0,0.0,0.0,0.0,0.0,0.0,0.0,0.0,0.0,0.0,0.0,0.0,0.0,0.0,0.0,0.0,0.0,-1.4173,-1.4088,0.0,-1.4088,-1.4088,-1.4008,-1.3814,-1.3801,-1.3872,-1.4219,-1.4986,-1.5709,-1.6561,-1.7273,-1.7821,-1.8128,-1.7853,-1.7981,-1.8495,-1.8055,-1.8507,-1.9647,-1.9525,-1.9965,-2.0812,-2.1544,-2.2118,-2.2455,-2.2787,-2.3179,-2.372,-2.4155,-2.4435,-2.4563,-2.4632,-2.4679,-2.4779,-2.4779,-2.4797,-2.4861,-2.4861,-2.5192,-2.564,-2.5884,-2.5959,-2.5936,-2.5673,-2.5654,-2.5717,-2.5371,-2.5423,-2.5469,-2.5338,-2.5266,-2.5218,-2.5218,-2.4823,-2.4266,-2.3829,-2.2957,-2.2279,-2.2149,-2.2125,-2.2125,-2.2125,-2.2125,-2.2187,-2.2359,-2.2359,-2.2555,-2.3065,-2.3271,-2.3522,-2.3819,-2.3995,-2.4112,-2.4112,-2.4112,-2.4112,-2.4112,-2.4112,-2.4112,-2.4112,-2.4067,-2.4008,0.0,0.0,0.0,0.0,0.0,0.0,0.0,0.0,0.0,0.0,0.0,0.0,0.0,0.0,0.0,0.0,0.0,0.0,0.0,0.0,0.0,0.0,0.0,0.0,0.0,-1.4824,-1.4622,-1.4108,-1.4102,-1.4061,-1.3801,-1.387,-1.3783,-1.3514,-1.35,-1.3714,-1.4265,-1.508,-1.587,-1.6555,-1.7331,-1.7715,-1.7715,-1.7502,-1.7703,-1.8165,-1.7856,-1.8433,-1.979,-1.9716,-2.0294,-2.1494,-2.1989,-2.2412,-2.2763,-2.3337,-2.391,-2.4459,-2.4281,-2.4172,-2.413,-2.413,-2.4238,-2.4394,-2.4628,-2.4874,-2.5123,-2.5564,-2.5691,-2.5792,-2.6038,-2.6156,-2.6113,-2.5848,-2.5891,-2.6062,-2.5945,-2.5859,-2.5888,-2.5888,-2.5708,-2.548,-2.5406,-2.5101,-2.4677,-2.4231,-2.3441,-2.2825,-2.2628,-2.2592,-2.2592,-2.2592,-2.2592,-2.2665,-2.2859,-2.2859,-2.3053,-2.3582,-2.3641,-2.3682,-2.3767,-2.3812,-2.3733,-2.3537,-2.3707,-2.3812,-2.3812,-2.4008,-2.4112,-2.4112,-2.4067,-2.3949,-2.3713,0.0,0.0,0.0,0.0,0.0,0.0,0.0,0.0,0.0,0.0,0.0,0.0,0.0,0.0,0.0,0.0,0.0,0.0,0.0,0.0,0.0,0.0,0.0,-1.5401,-1.5075,-1.4788,-1.4056,-1.4184,-1.3992,-1.3312,-1.343,-1.3423,-1.3193,-1.32,-1.3488,-1.4299,-1.4841,-1.5487,-1.622,-1.6669,-1.6908,-1.6908,-1.7107,-1.7245,-1.7254,-1.748,-1.8163,-1.9163,-1.9243,-2.0382,-2.2366,-2.2366,-2.2922,-2.3773,-2.3773,-2.3761,-2.3701,-2.3195,-2.269,-2.2246,-2.2246,-2.2234,-2.2395,-2.2932,-2.3551,-2.4229,-2.5499,-2.5877,-2.6103,-2.7393,-2.772,-2.7647,-2.7266,-2.6779,-2.6323,-2.5976,-2.5439,-2.5005,-2.5005,-2.5005,-2.4878,-2.458,-2.4523,-2.4465,-2.4171,-2.3748,-2.3306,-2.2751,-2.2665,-2.2665,-2.2665,-2.2665,0.0,-2.333,-2.339,-2.3556,-2.4028,-2.4073,-2.3825,-2.3237,-2.3197,-2.2949,-2.2454,-2.2884,-2.3197,-2.3197,-2.3759,-2.4073,-2.4086,-2.3936,-2.3713,-2.3403,0.0,0.0,0.0,0.0,0.0,0.0,0.0,0.0,0.0,0.0,0.0,0.0,0.0,0.0,0.0,0.0,0.0,0.0,0.0,0.0,0.0,-1.7364,-1.6665,-1.4947,-1.4746,-1.4543,-1.3898,-1.3863,-1.3829,-1.3437,-1.3581,-1.3491,-1.2963,-1.3027,-1.3528,-1.4691,-1.488,-1.5623,-1.7134,-1.725,-1.7332,-1.7332,-1.7392,-1.781,-1.8567,-1.8795,-1.9779,-2.1457,-2.1594,-2.2298,-2.3416,-2.3416,-2.3549,-2.3773,-2.3773,-2.3544,-2.322,-2.346,-2.346,-2.334,-2.334,-2.3689,-2.4115,-2.4379,-2.4865,-2.5453,-2.58,-2.5911,-2.5939,-2.6301,-2.6413,-2.6413,-2.6288,-2.6162,-2.6036,-2.5925,-2.5647,-2.5369,-2.5369,-2.5188,-2.4948,-2.4878,-2.4878,-2.4835,-2.4778,-2.4669,-2.4373,-2.3819,-2.3675,-2.3675,-2.3675,-2.3675,-2.3734,-2.3878,-2.3502,-2.3288,-2.3402,-2.3106,-2.2805,-2.2609,-2.2596,-2.2585,-2.2428,-2.2559,-2.2609,-2.2635,-2.2792,-2.3067,-2.3459,-2.3729,-2.376,0.0,0.0,0.0,0.0,0.0,0.0,0.0,0.0,0.0,0.0,0.0,0.0,0.0,0.0,0.0,0.0,0.0,0.0,0.0,0.0,0.0,0.0,-1.6784,-1.5904,-1.4523,-1.4497,-1.4381,-1.3818,-1.386,-1.3733,-1.3293,-1.3432,-1.3355,-1.288,-1.2934,-1.3446,-1.4489,-1.4832,-1.5613,-1.6959,-1.7323,-1.747,-1.747,-1.7529,-1.7909,-1.8547,-1.8705,-1.9719,-2.1408,-2.1475,-2.2151,-2.3111,-2.3111,-2.3111,-2.3111,-2.3111,-2.2995,-2.2829,0.0,0.0,0.0,0.0,-2.4285,-2.4917,-2.5,-2.5397,-2.5893,-2.5893,-2.5893,-2.5893,-2.5893,-2.5893,-2.5893,-2.5893,-2.5893,-2.5893,-2.5893,-2.5798,-2.5647,-2.5647,-2.5522,-2.5342,-2.5244,-2.5188,-2.5188,-2.5005,-2.5005,0.0,-2.4186,-2.4288,-2.4505,-2.4505,-2.4191,-2.3918,-2.3918,-2.3293,-2.2913,-2.3036,-2.2638,-2.2336,-2.2181,-2.2115,0.0,0.0,0.0,-2.2126,-2.24,-2.24,0.0,0.0,0.0,-2.3269,-2.3328,-2.3211,0.0,0.0,-2.3301,-2.3081,0.0,0.0,0.0,0.0,0.0,0.0,0.0,0.0,0.0,0.0,0.0,0.0,0.0,0.0,0.0,0.0,-1.6162,-1.52,-1.4111,-1.4179,-1.4176,-1.3726,-1.3848,-1.3657,-1.3001,-1.3119,-1.3119,-1.29,-1.29,-1.3331,-1.4194,-1.4911,0.0,0.0,0.0,-1.7539,-1.7539,-1.7657,-1.7842,-1.7969,-1.8124,-1.8988,-2.0366,-2.0366,-2.1019,-2.2197,-2.2185,-2.2185,-2.2185,-2.2259,-2.2309,-2.2469,-2.2892,-2.3059,-2.3195,-2.3787,-2.4452,-2.5005,-2.5005,0.0,0.0,-2.5893,-2.5893,-2.5893,-2.5893,-2.5893,-2.5893,-2.5893,-2.5893,-2.5893,-2.5948,-2.5948,-2.6002,-2.6042,-2.6056,-2.5948,-2.5757,-2.5591,-2.5481,-2.5176,-2.5066,-2.4847,-2.4313,-2.4613,-2.4883,-2.4815,-2.4133,-2.3645,-2.3645,-2.2908,-2.2484,-2.2724,-2.2538,0.0,-2.1947,-2.1665,-2.13,-2.0838,-2.1184,-2.1655,-2.2191,-2.2243,-2.2323,-2.2323,-2.2389,-2.2567,-2.2907,-2.2871,-2.2994,-2.3301,-2.3173,-2.2844,0.0,0.0,0.0,0.0,0.0,0.0,0.0,0.0,0.0,0.0,0.0,0.0,0.0,0.0,0.0,-1.665,-1.5576,-1.4501,-1.3741,-1.3645,-1.366,-1.3521,-1.3587,-1.3492,-1.32,-1.3346,-1.3273,-1.29,-1.3046,-1.376,-1.518,-1.5392,-1.6105,-1.7657,-1.7803,-1.7872,-1.7872,-1.794,-1.8529,-1.9639,-1.9704,0.0,-2.18,-2.18,-2.1925,-2.2197,-2.2309,-2.2359,-2.2359,-2.2555,-2.2616,-2.269,-2.3105,-2.3236,-2.3314,-2.3846,-2.4483,-2.5133,-2.5048,-2.5397,-2.5893,-2.5893,-2.5893,-2.5893,-2.5893,-2.5893,0.0,-2.5893,-2.5893,-2.5988,-2.6297,-2.6351,-2.6457,-2.6811,-2.6864,-2.6864,-2.6811,-2.6366,-2.5937,-2.5886,-2.5466,-2.5026,-2.491,-2.4556,-2.4068,-2.3568,-2.3339,-2.3218,-2.3298,-2.2706,-2.2329,-2.238,-2.2196,-2.2049,-2.1987,-2.1732,-2.1545,-2.1423,-2.1053,-2.0922,-2.104,-2.1433,-2.1668,-2.1668,-2.2152,-2.2343,-2.2269,-2.2721,-2.2878,-2.2705,-2.2984,-2.3232,0.0,0.0,0.0,0.0,0.0,0.0,0.0,0.0,0.0,0.0,0.0,-2.066,-1.8769,0.0,-1.6757,-1.5694,-1.4656,-1.3912,-1.3564,-1.3492,-1.3492,-1.3492,-1.3492,-1.3492,-1.3346,-1.3419,-1.3419,-1.3193,-1.3273,-1.3702,-1.4482,-1.518,-1.5956,-1.6802,-1.7588,-1.8008,-1.8008,-1.8008,-1.8337,-1.9054,-1.9121,-1.9901,-2.1262,-2.1325,-2.1776,-2.2445,-2.2494,-2.2555,-2.2616,-2.3078,-2.3412,-2.3636,-2.4239,-2.4239,-2.3975,-2.4483,-2.5119,-2.5756,-2.566,-2.5839,-2.6111,-2.6002,-2.6002,-2.6002,-2.5893,-2.5893,-2.5893,-2.5893,-2.5893,-2.5948,-2.615,-2.6204,-2.6226,-2.6263,-2.6294,-2.6243,-2.6123,-2.585,-2.5629,-2.5629,-2.5316,-2.4993,-2.4717,-2.4345,-2.4162,-2.4098,-2.373,-2.3483,-2.3497,-2.2853,-2.2462,-2.2606,-2.2386,-2.2203,-2.2156,-2.1746,-2.1423,-2.1326,-2.1033,-2.0799,-2.0699,-2.0987,-2.108,-2.108,-2.1381,-2.1616,-2.1783,-2.2014,-2.2188,-2.2304,-2.2635,-2.2969,0.0,0.0,0.0,0.0,0.0,0.0,0.0,-2.379,-2.3126,-2.1653,-2.1369,-2.0541,-1.7991,-1.7072,-1.6303,-1.5007,-1.4122,-1.3637,-1.3637,-1.3564,-1.3492,-1.3492,-1.3492,-1.3492,-1.3492,-1.3492,-1.3492,-1.3492,-1.3492,-1.3564,-1.3702,-1.4974,-1.5816,-1.5956,-1.7295,-1.8076,-1.8076,-1.8076,-1.8144,-1.8337,-1.8596,-1.9365,-2.059,-2.0846,-2.1639,-2.269,-2.2739,-2.2739,-2.286,-2.3577,-2.4092,-2.4469,-2.5217,-2.5107,-2.4633,-2.5315,-2.592,-2.634,-2.6286,-2.6286,-2.6286,-2.6179,-2.6111,-2.6096,-2.5861,-2.5765,-2.5751,-2.557,-2.5582,-2.5689,-2.5742,-2.5781,-2.5812,-2.5705,-2.5689,-2.5643,-2.5405,-2.5245,-2.5141,-2.5141,-2.5038,-2.4786,-2.4312,-2.4223,-2.4356,-2.4687,-2.4087,-2.3598,-2.3705,-2.2965,-2.2558,-2.2844,-2.274,-2.2603,-2.2498,-2.2049,-2.1636,-2.1264,-2.1264,-2.1131,-2.0848,-2.0848,-2.0799,-2.0699,-2.0699,-2.0935,-2.1342,-2.1355,-2.1548,-2.196,-2.2278,-2.2543,-3.3445,-3.2328,-3.0716,-2.8955,-2.7066,-2.5189,0.0,-2.2023,-2.0941,-2.0008,-1.9354,-1.866,-1.7861,-1.7084,-1.6368,-1.5762,-1.4768,-1.4057,-1.4057,-1.371,-1.3492,-1.3492,-1.3492,-1.3492,-1.3492,-1.3492,-1.3492,-1.3492,-1.3492,-1.3775,-1.4466,-1.5251,-1.6097,-1.6932,-1.7774,-1.8337,-1.8414,-1.8414,-1.8741,-1.9407,-2.002,-2.0719,-2.1491,-2.2149,-2.2555,-2.2678,-2.286,-2.2969,-2.3138,-2.378,-2.4118,-2.4234,-2.4851,-2.4957,-2.4933,-2.5898,-2.6312,-2.6457,-2.6326,-2.6286,-2.6286,-2.6286,-2.6286,-2.6119,-2.5459,-2.5289,-2.5123,-2.4484,-2.4504,-2.484,-2.5185,-2.5509,-2.5826,-2.6214,-2.6306,-2.6275,-2.626,-2.5739,-2.5295,-2.5295,-2.4805,-2.4376,-2.43,-2.4284,-2.4104,-2.3555,-2.3125,-2.2946,-2.3334,-2.2675,-2.2356,-2.2709,-2.3038,-2.3216,-2.3275,-2.3231,-2.286,-2.2189,-2.2128,-2.1908,-2.1313,-2.1326,-2.1131,-2.0699,-2.0699,-2.0738,-2.0804,-2.1263,-2.1446,-2.1419,-2.1934,-2.2304,-3.1955,-3.1367,-3.0229,-2.91,-2.7083,-2.4984,-2.3297,-2.1892,-2.0655,-1.9486,-1.911,-1.8509,-1.6872,-1.6394,-1.5974,-1.5204,-1.4338,-1.376,-1.376,-1.3185,-1.282,-1.282,-1.282,-1.2973,-1.3419,-1.3702,-1.3848,-1.3848,-1.4065,-1.4281,-1.4553,-1.533,-1.6105,-1.6811,-1.7569,-1.8134,-1.8482,-1.8482,-1.8684,-1.8942,-1.9112,-1.9659,-2.0641,-2.0803,-2.1295,-2.201,-2.2414,-2.2786,-2.3221,-2.3743,-2.4188,-2.4588,-2.4783,-2.4887,-2.4883,-2.5317,-2.5474,-2.5517,-2.543,-2.5445,-2.5459,-2.5343,-2.5481,-2.5625,-2.5249,-2.5296,-2.5438,-2.5125,-2.5132,-2.5275,-2.5463,-2.5525,-2.5558,-2.5559,-2.5483,-2.5377,-2.5213,-2.4948,-2.4733,-2.4733,-2.4502,-2.4302,-2.4302,-2.4302,-2.4219,-2.3909,-2.3739,-2.3681,-2.3867,-2.361,-2.3465,-2.3638,-2.361,-2.361,-2.3638,-2.3465,-2.3157,-2.2694,-2.2558,-2.2374,-2.1955,-2.1602,-2.1326,-2.1082,-2.0848,-2.0699,-2.0699,-2.0948,-2.1015,-2.0977,-2.1406,-2.1673,-2.8974,-2.8467,-2.7459,-2.6691,-2.5022,-2.3188,-2.1754,-2.0911,-1.9987,-1.8583,-1.8392,-1.7852,-1.5737,-1.5471,-1.5259,-1.441,-1.376,-1.3317,-1.3317,-1.2739,-1.2305,-1.2305,-1.2305,-1.2526,-1.3119,-1.3622,-1.4049,-1.4201,-1.4489,-1.4569,-1.4569,-1.5338,-1.5922,-1.6303,-1.7126,-1.7754,-1.8111,-1.8177,-1.8253,-1.8243,-1.8286,-1.8731,-1.9627,-1.9817,-2.0481,-2.1549,-2.1924,-2.2361,-2.2764,-2.342,-2.3997,-2.4455,-2.4687,-2.4684,-2.4583,-2.4619,-2.4719,-2.4785,-2.4785,-2.4863,-2.4878,-2.4687,-2.4883,-2.5143,-2.4794,-2.4991,-2.5288,-2.5092,-2.5168,-2.5347,-2.5347,-2.5333,-2.5242,-2.5032,-2.4839,-2.463,-2.441,-2.4343,-2.4302,-2.4302,-2.4302,-2.4302,-2.4302,-2.4302,-2.4302,-2.4302,-2.4302,-2.4302,-2.4302,-2.4219,-2.4177,-2.4177,-2.3925,-2.3839,-2.3925,-2.3711,-2.3494,-2.326,-2.3157,-2.2934,-2.2558,-2.2109,-2.1779,-2.1602,-2.1264,-2.1082,-2.1082,-2.1082,-2.1033,-2.0911,-2.1182,-2.1276,-2.4191,-2.2921,-2.1316,-2.0626,-1.9914,-1.9045,-1.7761,-1.8041,-1.818,-1.6678,-1.6401,-1.5983,-1.4585,-1.4378,-1.4163,-1.36,-1.3178,-1.29,-1.29,-1.2526,-1.2305,-1.2305,-1.2305,-1.2305,-1.2305,-1.3025,-1.3833,-1.4497,-1.4569,-1.4569,-1.4569,-1.5338,-1.5731,-1.5563,-1.6703,-1.7233,-1.7044,-1.7502,-1.7709,-1.7709,-1.8384,-1.8726,-1.8786,-1.9995,-2.088,-2.1493,-2.1549,-2.1536,-2.1648,-2.2764,-2.3239,-2.3344,-2.4376,-2.4457,-2.392,-2.3934,-2.4278,-2.4785,-2.4785,-2.4863,-2.4878,-2.48,-2.4863,-2.4762,-2.3966,-2.4092,-2.4267,-2.3511,-2.3824,-2.4451,-2.4451,-2.4742,-2.5029,-2.4997,-2.4798,-2.462,-2.4589,-2.4426,-2.4302,-2.4302,-2.4302,-2.4302,-2.4302,-2.4302,-2.4302,-2.4302,-2.4302,-2.4302,-2.4302,-2.4009,-2.3839,-2.3839,-2.3797,-2.3925,-2.4261,-2.4261,-2.4234,-2.4166,-2.4181,-2.3855,-2.3127,-2.3083,-2.274,-2.2081,-2.2081,-2.2035,-2.2035,-2.2035,-2.1813,-2.1375,-2.1388,-2.1158,-1.9825,-1.9487,-1.8638,-1.733,-1.5444,-1.3558,-1.2265,-1.1085,-1.0487,-1.1123,-1.1238,-1.1269,-1.1309,-1.1334,-1.142,-1.1765,-1.1354,-1.0926,-1.0926,-1.034,-0.99,-0.99,-0.99,-1.0121,-1.0628,-1.2131,-1.3185,-1.3477,-1.4186,-1.4522,-1.4299,-1.498,-1.5427,-1.5498,-1.5881,-1.6389,-1.6994,-1.7129,-1.7399,-1.7729,-1.8397,-1.8577,-1.8318,-1.9522,-2.0192,-2.0376,-2.0731,-2.1082,-2.1478,-2.224,-2.2692,-2.3041,-2.3385,-2.3409,-2.3267,-2.3267,-2.3351,-2.3525,-2.3525,-2.354,-2.3632,-2.3924,-2.4238,-2.4517,-2.4502,-2.4818,-2.513,-2.4878,-2.5013,-2.5185,-2.5185,-2.5201,-2.5217,-2.5217,-2.4886,-2.463,-2.4846,-2.4549,-2.4343,-2.4467,-2.4385,-2.4302,-2.4302,-2.4302,-2.4302,-2.4302,-2.4302,-2.4302,-2.4302,-2.4219,-2.4135,-2.4135,-2.4135,-2.4177,-2.4302,-2.4302,-2.4317,-2.4276,-2.4151,-2.3797,-2.3187,-2.2694,-2.2314,-2.2081,-2.1492,-2.1299,-2.1636,-2.1299,-2.1082,-2.0947,-2.0947,-2.0848,-1.4449,-1.4059,-1.3327,-1.1969,-1.0276,-0.8496,-0.6918,-0.5201,-0.4182,-0.4982,-0.5305,-0.5737,-0.6657,-0.7671,-0.8412,-0.8801,-0.8769,-0.8718,-0.8401,-0.8433,-0.8461,-0.8228,-0.8542,-0.8888,-0.9319,-1.0574,-1.1687,-1.2415,-1.3494,-1.3995,-1.395,-1.441,-1.4771,-1.4976,-1.515,-1.5585,-1.623,-1.6414,-1.6799,-1.7243,-1.7893,-1.8181,-1.8147,-1.9069,-1.9604,-1.985,-2.0359,-2.0795,-2.1175,-2.1874,-2.237,-2.2661,-2.2843,-2.2888,-2.2888,-2.2888,-2.3023,-2.3142,-2.3142,-2.3142,-2.3231,-2.3696,-2.4036,-2.4343,-2.4614,-2.5013,-2.5355,-2.5355,-2.5486,-2.5616,-2.5616,-2.5486,-2.541,-2.541,-2.5123,-2.4886,-2.5084,-2.4806,-2.4549,-2.4589,-2.4508,-2.4385,-2.4302,-2.4302,-2.4302,-2.4302,-2.4302,-2.4302,-2.4302,-2.4302,-2.4302,-2.4302,-2.4302,-2.4302,-2.4302,-2.4302,-2.4302,-2.4302,-2.4193,-2.3909,-2.3508,-2.3054,-2.2725,-2.2634,-2.2035,-2.1908,-2.2189,-2.1732,-2.141,-2.1215,-2.1033,-2.0848,-0.8316,-0.7079,-0.5851,-0.4854,-0.4539,-0.3851,-0.1742,-0.039,0.0633,0.1476,0.1229,0.0494,-0.0905,-0.339,-0.5089,-0.4701,-0.572,-0.6353,-0.564,-0.6885,-0.7749,-0.7275,-0.7977,-0.8449,-0.824,-0.829,-0.9212,-1.132,-1.2431,-1.3171,-1.3518,-1.3643,-1.3803,-1.4013,-1.4488,-1.4802,-1.4834,-1.543,-1.5904,-1.6374,-1.6944,-1.7534,-1.8093,-1.8709,-1.9291,-1.985,-2.0359,-2.061,-2.0759,-2.1779,-2.2231,-2.2278,-2.2752,-2.2888,-2.2888,-2.2888,-2.3187,-2.3595,-2.3638,-2.3653,-2.3724,-2.4177,-2.4343,-2.4343,-2.4343,-2.4639,-2.4958,-2.4958,-2.5262,-2.5616,-2.5616,-2.5616,-2.5616,-2.5616,-2.5448,-2.5294,-2.5333,-2.5139,-2.4926,-2.467,-2.4589,-2.4508,-2.4343,-2.4302,-2.4302,-2.4302,-2.4302,-2.4302,-2.4302,-2.4302,-2.4302,-2.4302,-2.4302,-2.4302,-2.4302,-2.4302,-2.4302,-2.4302,-2.4302,-2.4193,-2.3982,-2.394,-2.3839,-2.3551,-2.3551,-2.3508,-2.3508,-2.3068,-2.2558,-2.2035,-2.1541,-2.1131,-0.5206,-0.4668,-0.3891,-0.1788,-0.0072,0.1492,0.3168,0.5365,0.7178,0.766,0.6832,0.5869,0.5464,0.2504,-0.0153,-0.1077,-0.2554,-0.3736,-0.4208,-0.4598,-0.4955,-0.5098,-0.5315,-0.5265,-0.4989,-0.5981,-0.6781,-0.7121,-0.9627,-1.1315,-1.1574,-1.2668,-1.3156,-1.2911,-1.3525,-1.4038,-1.4369,-1.5254,-1.574,-1.5914,-1.6775,-1.7534,-1.8093,-1.8709,-1.95,-2.0409,-2.056,-2.1042,-2.1827,-2.2091,-2.2417,-2.2752,-2.2843,-2.2888,-2.2888,-2.2888,-2.3187,-2.3638,-2.3994,-2.412,-2.4204,-2.4599,-2.4759,-2.4799,-2.5146,-2.5333,-2.5432,-2.5432,-2.5486,-2.5616,-2.5616,-2.5616,-2.5616,-2.5616,-2.5448,-2.5333,-2.5502,-2.5256,-2.4966,-2.4926,-2.4645,-2.4343,-2.4302,-2.4302,-2.4302,-2.4302,-2.4302,-2.4302,-2.4302,-2.4302,-2.4302,-2.4302,-2.4302,-2.4302,-2.4302,-2.4302,-2.4302,-2.4302,-2.4151,-2.3867,-2.3406,-2.3246,-2.3157,-2.3068,-2.2694,-2.2498,-2.2498,-2.2002,-2.1554,-2.1068,-2.0934,-2.0799,-0.3046,-0.2421,-0.164,0.0547,0.2256,0.4045,0.6471,0.9096,1.1397,1.2791,1.2936,1.2313,1.0676,0.7543,0.4651,0.2874,0.0465,-0.117,-0.1249,-0.2245,-0.2984,-0.2946,-0.3585,-0.3891,-0.3583,-0.4629,-0.5484,-0.5816,-0.8268,-0.994,-1.0263,-1.1354,-1.2163,-1.2642,-1.2887,-1.3502,-1.4488,-1.5313,-1.5788,-1.6029,-1.6832,-1.7534,-1.8093,-1.8709,-1.9448,-2.0258,-2.0746,-2.1286,-2.1874,-2.2324,-2.2661,-2.2888,-2.2888,-2.2888,-2.2933,-2.3142,-2.348,-2.3952,-2.4395,-2.4695,-2.4926,-2.5146,-2.5224,-2.5262,-2.5524,-2.5616,-2.5616,-2.5616,-2.5616,-2.5616,-2.5616,-2.5616,-2.5616,-2.5616,-2.5486,-2.5486,-2.5749,-2.5524,-2.5217,-2.5045,-2.4831,-2.4614,-2.4343,-2.4599,-2.4759,-2.4614,-2.4719,-2.4839,-2.4839,-2.4533,-2.4302,-2.4302,-2.4302,-2.4302,-2.4302,-2.4302,-2.4302,-2.4302,-2.4177,-2.3967,-2.3551,-2.3421,-2.3348,-2.3201,-2.2905,-2.277,-2.277,-2.2282,-2.1827,-2.1299,-2.1082,-2.0898,-0.14,-0.039,0.0547,0.2194,0.3292,0.4833,0.8378,1.1103,1.3731,1.6591,1.8279,1.8336,1.5404,1.2131,0.9192,0.7077,0.3553,0.132,0.1862,-0.0076,-0.1424,-0.1122,-0.2415,-0.3216,-0.3134,-0.3751,-0.4603,-0.5624,-0.7407,-0.8689,-0.925,-0.9958,-1.0975,-1.2512,-1.2573,-1.3243,-1.4597,-1.5313,-1.5846,-1.6202,-1.6832,-1.7435,-1.7984,-1.8602,-1.9239,-1.9837,-2.0881,-2.1321,-2.1465,-2.2402,-2.2797,-2.2797,-2.2933,-2.2978,-2.3068,-2.3523,-2.3994,-2.4426,-2.4799,-2.5224,-2.5616,-2.5616,-2.5616,-2.5637,-2.5637,-2.5675,-2.5712,-2.5712,-2.5712,-2.5712,-2.5637,-2.5637,-2.5637,-2.5616,-2.5616,-2.5675,-2.5954,-2.5807,-2.5562,-2.5185,-2.5208,-2.5114,-2.4533,-2.5059,-2.5389,-2.502,-2.5237,-2.5427,-2.5503,-2.4902,-2.4451,-2.4451,-2.4451,-2.4451,-2.4369,-2.4385,-2.4343,-2.4302,-2.4317,-2.4193,-2.4024,-2.3982,-2.3839,-2.3595,-2.3595,-2.3551,-2.3508,-2.3024,-2.2512,-2.2002,-2.1554,-2.1082,0.0456,0.0848,0.1409,0.2893,0.375,0.514,0.8348,1.0852,1.3581,1.7265,1.9027,2.0144,2.0849,1.6887,1.2966,1.1288,0.7067,0.3527,0.2281,0.1171,0.0435,0.0142,-0.0706,-0.1325,-0.1493,-0.2095,-0.2831,-0.3625,-0.51,-0.6622,-0.8172,-0.8871,-0.9882,-1.126,-1.232,-1.3017,-1.3164,-1.4588,-1.5245,-1.5186,-1.6124,-1.6853,-1.7368,-1.7984,-1.8768,-1.9787,-2.0434,-2.0993,-2.1465,-2.2077,-2.2324,-2.2417,-2.3172,-2.348,-2.3523,-2.4009,-2.4436,-2.4799,-2.4863,-2.5224,-2.5616,-2.5616,-2.5749,-2.5917,-2.5917,-2.6082,-2.6243,-2.6243,-2.6243,-2.6208,-2.599,-2.5917,-2.5881,-2.5637,-2.5616,-2.5675,-2.5954,-2.603,-2.5977,-2.5868,-2.5721,-2.5535,-2.5313,-2.5427,-2.5465,-2.5427,-2.516,-2.5121,-2.5465,-2.5389,-2.5275,-2.5275,-2.5275,-2.516,-2.4823,-2.4799,-2.4639,-2.4302,-2.4234,-2.4166,-2.4024,-2.3882,-2.3739,-2.3595,-2.3595,-2.3421,-2.3024,-2.2498,-2.2002,-2.1506,-2.1033,-2.0799,0.163,0.1942,0.241,0.3689,0.4507,0.5761,0.8602,1.088,1.3494,1.7327,2.0253,2.2205,2.2458,1.9662,1.6518,1.4094,0.9137,0.5189,0.4049,0.2935,0.2124,0.1957,0.0897,0.0204,0.0067,-0.0939,-0.2013,-0.2952,-0.368,-0.4938,-0.6929,-0.8339,-0.9551,-1.0451,-1.1502,-1.2435,-1.326,-1.4025,-1.4855,-1.5633,-1.6104,-1.6729,-1.749,-1.7765,-1.8405,-1.9359,-1.9914,-2.0607,-2.1417,-2.1969,-2.2324,-2.2615,-2.3142,-2.3451,-2.3638,-2.4162,-2.4599,-2.4942,-2.5346,-2.5642,-2.5807,-2.5974,-2.5917,-2.577,-2.577,-2.599,-2.6154,-2.601,-2.6173,-2.6349,-2.6082,-2.6118,-2.6189,-2.6046,-2.6118,-2.6208,-2.6208,-2.6332,-2.6385,-2.6068,-2.6101,-2.603,-2.5577,-2.5835,-2.6052,-2.5835,-2.5835,-2.5908,-2.6104,-2.6123,-2.5944,-2.554,-2.5503,-2.5427,-2.5237,-2.5198,-2.5059,-2.4639,-2.4574,-2.4426,-2.4124,-2.3982,-2.3839,-2.3696,-2.3653,-2.3465,-2.3246,-2.274,-2.2282,-2.1732,-2.1264,-2.0947,0.2882,0.3325,0.377,0.4859,0.5643,0.6687,0.9178,1.1263,1.3598,1.7164,2.1037,2.3671,2.3022,2.1347,1.9087,1.6227,1.0909,0.6756,0.5899,0.4616,0.3664,0.3528,0.2241,0.1273,0.1139,-0.0067,-0.1343,-0.2412,-0.2746,-0.3811,-0.5877,-0.7812,-0.9099,-0.9633,-1.0557,-1.1735,-1.3166,-1.3588,-1.4423,-1.5776,-1.613,-1.6698,-1.7435,-1.7655,-1.8213,-1.8975,-1.9438,-2.0294,-2.1369,-2.1874,-2.2417,-2.2828,-2.3275,-2.3566,-2.3852,-2.4461,-2.4839,-2.5114,-2.5717,-2.5917,-2.5954,-2.6208,-2.6118,-2.5844,-2.5844,-2.6046,-2.6225,-2.6026,-2.626,-2.6538,-2.6243,-2.6314,-2.6487,-2.6418,-2.6607,-2.6741,-2.6521,-2.6691,-2.6758,-2.6297,-2.6435,-2.6486,-2.5872,-2.628,-2.6573,-2.628,-2.6419,-2.6624,-2.6691,-2.6607,-2.635,-2.5799,-2.5762,-2.5726,-2.5652,-2.5615,-2.5427,-2.4942,-2.4902,-2.4679,-2.4208,-2.4082,-2.394,-2.3797,-2.3653,-2.3551,-2.3465,-2.2965,-2.2466,-2.1955,-2.1458,-2.1033,0.4893,0.554,0.599,0.6718,0.7203,0.8103,1.0128,1.2189,1.4312,1.6642,2.046,2.3577,2.4222,2.2002,1.9567,1.7912,1.2955,0.858,0.6597,0.5624,0.4885,0.43,0.2885,0.1743,0.1139,0.0403,-0.0403,-0.1209,-0.228,-0.368,-0.5547,-0.6924,-0.7972,-0.8613,-0.9882,-1.0899,-1.1483,-1.3183,-1.3957,-1.3948,-1.5535,-1.6368,-1.6472,-1.7534,-1.8298,-1.878,-1.9319,-2.0144,-2.1091,-2.1602,-2.2109,-2.2649,-2.3948,-2.4436,-2.4436,-2.5253,-2.5567,-2.554,-2.5616,-2.5654,-2.5675,-2.5954,-2.6314,-2.6674,-2.6674,-2.6925,-2.7186,-2.7154,-2.7186,-2.7137,-2.6791,-2.6741,-2.6708,-2.6453,-2.6607,-2.6774,-2.6791,-2.6923,-2.7038,-2.6942,-2.6893,-2.6809,-2.6624,-2.6657,-2.6691,-2.6657,-2.6367,-2.628,-2.6657,-2.6385,-2.628,-2.6539,-2.659,-2.6436,-2.6068,-2.6052,-2.5726,-2.4942,-2.4902,-2.4679,-2.4208,-2.4082,-2.394,-2.3797,-2.3653,-2.3377,-2.2979,-2.2406,-2.1908,-2.1458,-2.0983,-2.0749,0.51,0.5613,0.6196,0.6946,0.7683,0.8865,1.1432,1.3137,1.4989,1.7899,2.1046,2.3195,2.295,2.1487,1.9486,1.6875,1.2754,0.935,0.7842,0.6654,0.5866,0.5606,0.4278,0.3149,0.2412,0.1676,0.0805,-0.0336,-0.1944,-0.3213,-0.3946,-0.5474,-0.6662,-0.7377,-0.8667,-0.9761,-1.078,-1.1958,-1.3053,-1.4118,-1.5177,-1.6005,-1.6652,-1.7457,-1.805,-1.8352,-1.8578,-1.9411,-2.066,-2.1175,-2.1846,-2.2603,-2.3493,-2.4063,-2.4436,-2.4784,-2.5323,-2.5844,-2.6026,-2.6189,-2.6383,-2.6691,-2.6925,-2.7023,-2.6657,-2.6758,-2.699,-2.6808,-2.7007,-2.7218,-2.6891,-2.694,-2.7055,-2.6957,-2.7023,-2.7087,-2.7087,-2.7152,-2.7169,-2.7024,-2.6992,-2.6909,-2.6725,-2.6691,-2.6691,-2.6691,-2.6573,-2.6505,-2.6691,-2.6539,-2.6505,-2.6691,-2.6691,-2.6624,-2.647,-2.647,-2.621,-2.5652,-2.5389,-2.5059,-2.4589,-2.4193,-2.394,-2.3797,-2.3653,-2.3508,-2.3334,-2.283,-2.2328,-2.1813,-2.1361,-2.0997,0.6203,0.6593,0.7111,0.7697,0.872,1.0216,1.2567,1.4196,1.6054,1.9016,2.1485,2.2793,2.1708,2.0788,1.9074,0.0,1.2452,0.9875,0.8678,0.7442,0.6597,0.64,0.5147,0.402,0.3282,0.2347,0.141,0.0403,-0.1139,-0.2144,-0.2345,-0.3946,-0.5404,-0.6654,-0.7507,-0.8667,-1.0205,-1.0843,-1.2012,-1.3571,-1.4582,-1.54,-1.612,-1.7112,-1.7733,-1.8038,-1.8375,-1.9267,-2.056,-2.1028,-2.1738,-2.2649,-2.3143,-2.3724,-2.4328,-2.4517,-2.5075,-2.5738,-2.603,-2.6349,-2.6624,-2.6925,-2.7105,-2.7105,-2.6775,-2.6808,-2.6908,-2.6708,-2.6957,-2.725,-2.7023,-2.7137,-2.7299,-2.7299,-2.7299,-2.7299,-2.7299,-2.725,-2.7154,-2.7024,-2.6942,-2.6859,-2.6725,-2.6691,-2.6691,-2.6691,-2.6691,-2.6691,-2.6691,-2.6691,-2.6691,-2.6691,-2.6691,-2.6691,-2.6691,-2.6691,-2.6539,-2.6139,-2.5835,-2.5427,-2.4839,-2.441,-2.4094,-2.3839,-2.3696,-2.3508,-2.3377,-2.3068,-2.2558,-2.1908,-2.1684,-2.1361,0.8818,0.9204,0.9454,0.9454,1.0808,1.2379,1.3339,1.5407,1.7598,1.9533,2.1437,2.2394,2.1059,2.0037,1.834,1.5025,1.2516,1.0408,0.8742,0.7837,0.712,0.6461,0.5147,0.402,0.3282,0.1946,0.1076,0.1076,0.0403,-0.0336,-0.1076,-0.228,-0.4071,-0.665,-0.6719,-0.7627,-0.9518,-1.0205,-1.0836,-1.1545,-1.352,-1.4405,-1.4464,-1.6384,-1.7479,-1.7961,-1.8975,-1.9914,-2.0858,-2.1215,-2.1969,-2.2934,-2.3289,-2.3666,-2.4094,-2.4815,-2.4997,-2.4997,-2.5432,-2.5787,-2.6046,-2.6314,-2.659,-2.6858,-2.7169,-2.7282,-2.7282,-2.7282,-2.7299,-2.7299,-2.7299,-2.7299,-2.7299,-2.7299,-2.7299,-2.7299,-2.7299,-2.7154,-2.7007,-2.7007,-2.6859,-2.6691,-2.6691,-2.6691,-2.6691,-2.6691,-2.6691,-2.6691,-2.6691,-2.6691,-2.6691,-2.6691,-2.6691,-2.6691,-2.6691,-2.6691,-2.6539,-2.6139,-2.6104,-2.5726,-2.4942,-2.4704,-2.4395,-2.4024,-2.3739,-2.3377,-2.2889,-2.2889,-2.2388,-2.1423,-2.186,-2.1813,0.9971,1.0299,1.0739,1.1465,1.2417,1.3646,1.5578,1.6961,1.8606,2.0973,2.1214,2.0619,1.9562,1.8109,1.5992,1.2675,1.1495,1.0541,0.9344,0.8172,0.7321,0.7125,0.5408,0.402,0.3282,0.2347,0.1612,0.1143,0.0403,-0.0336,-0.1076,-0.1946,-0.3149,-0.4818,-0.6063,-0.6981,-0.7562,-0.8603,-0.9697,-1.0836,-1.1828,-1.3099,-1.4405,-1.5458,-1.644,-1.7424,-1.7754,-1.862,-1.9914,-2.0706,-2.1534,-2.2342,-2.3068,-2.3566,-2.3925,-2.4369,-2.4981,-2.5577,-2.5977,-2.6469,-2.6892,-2.7007,-2.7072,-2.7169,-2.7267,-2.7299,-2.7299,-2.7299,-2.7299,-2.7299,-2.7299,-2.7299,-2.7299,-2.7299,-2.7299,-2.7299,-2.7299,-2.7169,-2.7055,-2.7007,-2.6909,-2.6792,-2.6742,-2.6691,-2.6691,-2.6691,-2.6691,-2.6691,-2.6691,-2.6691,-2.6691,-2.6691,-2.6691,-2.6691,-2.6691,-2.6691,-2.6539,-2.6139,-2.5835,-2.5373,-2.4744,-2.4354,-2.4036,-2.3739,-2.3653,-2.3508,-2.3377,-2.3068,-2.2388,-2.1423,-2.1215,-2.1082,1.2466,1.2429,1.2912,1.3628,1.4443,1.5528,1.7356,1.867,2.0062,2.2235,2.1576,2.021,1.8924,1.7219,1.4888,1.1541,1.0982,1.0541,0.9274,0.8107,0.719,0.6732,0.5279,0.4154,0.3685,0.2681,0.1946,0.1478,0.0806,0.0067,-0.0672,-0.1141,-0.1946,-0.3288,-0.4878,-0.5997,-0.6719,-0.7437,-0.8474,-0.9755,-1.0669,-1.1828,-1.3365,-1.4446,-1.5641,-1.6866,-1.7302,-1.819,0.0,-2.0257,-2.1148,-2.2063,-2.2526,-2.3216,-2.3925,-2.4177,-2.4784,-2.5524,-2.5957,-2.6469,-2.6957,-2.6957,-2.7105,-2.7299,-2.7299,-2.7299,-2.7299,-2.7299,-2.7299,-2.7299,-2.7299,-2.7299,-2.7299,-2.7299,-2.7299,-2.7299,-2.7299,-2.7279,-2.7276,-2.7184,-2.712,-2.7006,-2.6923,-2.6791,-2.6691,-2.6691,-2.6691,-2.6691,-2.6691,-2.6691,-2.6691,-2.6691,-2.6691,-2.6691,-2.6691,-2.6691,-2.6573,-2.635,-2.5944,-2.5577,-2.5182,-2.4542,-2.4162,-2.3964,-2.3724,-2.3595,-2.3595,-2.3113,-2.2572,-2.1969,-2.1277,-2.0947,0.0,1.5669,1.5828,1.5884,1.6873,1.7993,1.8934,2.0384,0.0,2.3095,2.222,2.0646,1.8793,1.6979,1.4685,1.1451,1.0989,1.0415,0.877,0.7862,0.6885,0.5638,0.4827,0.4353,0.4353,0.3015,0.2146,0.208,0.1478,0.0806,0.0067,0.0,-0.0671,-0.208,-0.3288,-0.4749,-0.6523,-0.6588,-0.7246,-0.8425,-0.9755,-1.0752,-1.148,-1.3374,-1.4885,-1.6244,-1.7235,-1.8298,-1.9303,-1.9798,-2.0769,-2.1988,-2.1874,-2.2663,-2.3882,-2.4135,-2.4533,-2.4942,-2.5432,-2.5937,-2.6453,-2.6453,-2.6859,-2.7299,-2.7299,-2.7299,-2.7299,-2.7299,-2.7313,-2.7313,-2.7313,-2.7345,-2.7345,-2.7345,-2.7345,-2.7345,-2.7345,-2.7496,-2.7612,-2.7539,-2.7413,-2.7303,-2.7244,-2.6989,-2.6791,-2.6791,-2.6791,-2.6791,-2.6791,-2.6758,-2.6725,-2.6725,-2.6725,-2.6691,-2.6691,-2.6691,-2.6691,-2.6624,-2.628,-2.6016,-2.5944,-2.5082,-2.4542,-2.4542,-2.3937,-2.3595,-2.3551,-2.3113,-2.2844,-2.2754,-2.1841,-2.1375,2.0681,0.0,1.8365,1.883,1.9674,2.0501,0.0,2.2538,2.3235,2.2118,2.0535,1.8657,1.644,1.4586,1.2777,1.0781,1.08,1.0424,0.887,0.7553,0.6679,0.6339,0.5624,0.515,0.5067,0.3811,0.2681,0.2147,0.1478,0.0806,0.0067,0.0,-0.0403,-0.1344,-0.2147,-0.3482,-0.5209,-0.5675,-0.6465,-0.7717,-0.8549,-0.9564,-1.0759,-1.1764,-1.3158,-1.4885,-1.5621,-1.6824,-1.8352,-1.9581,-2.037,-2.0894,-2.1941,-2.2434,-2.2723,-2.3465,-2.4173,-2.4808,-2.5221,-2.598,-2.6758,-2.7007,-2.7186,-2.7299,-2.7299,-2.7299,-2.7299,-2.7299,-2.7452,-2.76,-2.76,-2.7771,-2.7926,-2.7926,-2.7926,-2.7926,-2.7926,-2.7869,-2.7811,-2.78,-2.7713,-2.7595,-2.7582,-2.7504,-2.7474,-2.7474,-2.7474,-2.7474,-2.7474,-2.7227,-2.7085,-2.7085,-2.6858,-2.6691,-2.6691,-2.6691,-2.6436,-2.5835,-2.5689,-2.5313,-2.4517,-2.4385,-2.4135,-2.3852,-2.3681,-2.3465,-2.3216,-2.2979,-2.2526,-2.1746,-2.1506,-2.1229,1.9951,2.0665,2.1124,2.1489,2.1893,2.2361,2.2966,2.3016,2.2694,2.1881,1.9461,1.7081,1.582,1.3729,1.1864,1.08,1.0674,1.0213,0.8794,0.7764,0.698,0.6554,0.6133,0.5745,0.5408,0.4348,0.3551,0.3149,0.2147,0.141,0.1006,0.0671,0.0134,-0.0605,-0.1007,-0.2076,-0.388,-0.4553,-0.5348,-0.6268,-0.7242,-0.8205,-0.9209,-1.0445,-1.2112,-1.3954,-1.4632,-1.5965,-1.7731,-1.8838,-1.9633,-2.0383,-2.1355,-2.2081,-2.2665,-2.3333,-2.4101,-2.4887,-2.5427,-2.6123,-2.6858,-2.7169,-2.7299,-2.7313,-2.7452,-2.7465,-2.7452,-2.7345,-2.739,-2.7526,-2.7526,-2.7612,-2.7771,-2.7897,-2.7926,-2.7926,-2.7926,-2.7926,-2.7926,-2.7897,-2.7695,-2.7565,-2.7672,-2.7444,-2.7227,-2.7227,-2.7227,-2.7227,-2.7227,-2.7068,-2.6989,-2.6989,-2.6791,-2.6691,-2.6691,-2.6691,-2.6505,-2.6087,-2.5689,-2.5351,-2.4965,-2.4467,-2.4024,-2.3696,-2.348,-2.3246,-2.3038,-2.2694,-2.2142,-2.1423,-2.1423,-2.1131,1.7352,2.0032,2.2643,2.2604,2.2636,2.2806,2.3275,0.0,0.0,0.0,1.8412,1.5864,1.5433,1.3432,1.1615,1.0989,1.0391,0.9713,0.8674,0.7979,0.7351,0.6655,0.6478,0.6207,0.5756,0.4951,0.4483,0.4483,0.3082,0.228,0.228,0.1612,0.0941,0.0336,0.0134,-0.0805,-0.241,-0.3353,-0.4156,-0.4815,-0.6063,-0.6967,-0.7529,-0.9482,-1.1286,-1.3022,-1.3844,-1.5322,-1.7058,-1.7841,-1.8797,-1.9774,-2.0521,-2.1602,-2.2773,-2.3317,-2.4112,-2.502,-2.5775,-2.6349,-2.6791,-2.7186,-2.7299,-2.7345,-2.7569,-2.7642,-2.76,-2.7421,-2.7421,-2.7513,-2.7513,-2.7544,-2.7617,-2.7829,-2.7886,-2.7886,-2.7886,-2.801,-2.812,-2.8037,-2.7736,-2.756,-2.78,-2.7382,-2.6954,-2.6922,-2.6889,-2.6906,-2.6858,-2.6825,-2.6791,-2.6791,-2.6725,-2.6691,-2.6607,-2.6624,-2.6573,-2.6505,-2.5944,-2.5726,-2.598,-2.4704,-2.394,-2.3824,-2.3246,-2.2889,-2.2799,-2.2314,-2.186,-2.1423,-2.1423,-2.1131,1.7591,1.8868,1.9273,1.8986,1.9179,1.9434,1.9526,1.9624,0.0,0.0,1.6431,1.5252,1.2879,1.2116,1.149,1.0555,0.9587,0.8858,0.8724,0.7604,0.6929,0.7436,0.6822,0.6597,0.706,0.5928,0.513,0.513,0.3811,0.3015,0.3015,0.2347,0.1879,0.1812,0.0604,-0.0134,-0.047,-0.2211,-0.368,-0.4815,-0.6063,-0.6715,-0.6907,-0.8796,-1.0135,-1.1058,-1.2777,-1.4227,-1.5419,-1.688,-1.7731,-1.8232,-2.0003,-2.1005,-2.1666,-2.3069,-2.4158,-2.5059,-2.5997,-2.6383,-2.6556,-2.7105,-2.7299,-2.733,-2.7345,-2.7376,-2.739,-2.76,-2.8017,-2.8396,-2.8396,-2.8551,-2.8743,-2.8791,-2.8791,-2.8791,-2.8791,-2.8791,-2.8743,-2.8669,-2.8551,-2.8474,-2.8466,-2.8388,-2.8219,-2.7936,-2.789,-2.7794,-2.7565,-2.7307,-2.7117,-2.7117,-2.6858,-2.6539,-2.621,-2.621,-2.6068,-2.5726,-2.5872,-2.5852,-2.5519,-2.3975,-2.3363,-2.3891,-2.2801,-2.2314,-2.2374,-2.2175,-2.186,-2.1423,-2.1423,-2.1131,1.3076,1.4225,1.4908,1.4727,1.6913,1.9075,1.9075,1.8295,1.7264,1.6239,1.5022,1.3686,1.2103,1.1553,1.1052,1.0053,0.9563,0.9281,0.9145,0.8703,0.8322,0.8134,0.7766,0.7512,0.7386,0.6457,0.5862,0.5862,0.461,0.3818,0.3818,0.3082,0.248,0.208,0.1476,0.0738,0.0,-0.0872,-0.2009,-0.3413,-0.4273,-0.5001,-0.5734,-0.7302,-0.872,-1.0059,-1.1665,-1.308,-1.4364,-1.6099,-1.6912,-1.7235,-1.9325,-2.0429,-2.1089,-2.3346,-2.4712,-2.5486,-2.6315,-2.6725,-2.6925,-2.7218,-2.7299,-2.7345,-2.7642,-2.7713,-2.7829,-2.8273,-2.8273,-2.8138,-2.8281,-2.8412,-2.8558,-2.8743,-2.8868,-2.8915,-2.8815,-2.8761,-2.8718,-2.8601,-2.837,-2.8192,-2.8299,-2.821,-2.8055,-2.7897,-2.7869,-2.784,-2.773,-2.74,-2.7213,-2.7213,-2.6891,-2.6624,-2.6436,-2.6419,-2.6068,-2.5237,-2.5329,-2.5214,-2.4775,-2.3937,-2.361,-2.3837,-2.3039,-2.2512,-2.2175,-2.186,-2.1506,-2.1033,-2.1033,-2.0898,0.9105,1.0262,1.1559,1.2472,1.5306,1.7806,1.7806,1.6468,1.5191,1.5191,1.384,1.2498,1.2058,1.1428,1.0737,0.9862,0.9782,0.9712,0.9514,0.9521,0.93,0.8576,0.849,0.8296,0.7712,0.7186,0.692,0.692,0.5606,0.4815,0.4815,0.3949,0.3215,0.2614,0.248,0.1744,0.0537,0.047,-0.0336,-0.1946,-0.2613,-0.3413,-0.4414,-0.5994,-0.7558,-0.9099,-1.0607,-1.2043,-1.3528,-1.5002,-1.5891,-1.6507,-1.8537,-2.0041,-2.1322,-2.3731,-2.5067,-2.5766,-2.6368,-2.6891,-2.7296,-2.7359,-2.7452,-2.7569,-2.7982,-2.8102,-2.821,-2.8749,-2.8448,-2.7982,-2.8298,-2.8376,-2.8453,-2.8761,-2.8952,-2.902,-2.8855,-2.8805,-2.8787,-2.8664,-2.8255,-2.7982,-2.8166,-2.7926,-2.7701,-2.7701,-2.7624,-2.7565,-2.7565,-2.7307,-2.7085,-2.7085,-2.6858,-2.6657,-2.659,-2.6401,-2.5872,-2.4981,-2.4918,-2.4815,-2.4467,-2.4051,-2.3782,-2.3767,-2.3201,-2.2649,-2.2081,-2.1636,-2.1229,-2.0848,-2.0749,-2.0699,0.8715,0.957,1.0852,1.4563,1.4274,1.3113,1.3113,1.2957,1.2846,1.2846,1.2684,1.256,1.256,1.1677,1.0863,1.0301,0.9817,0.9508,0.9484,0.8969,0.8571,0.849,0.849,0.849,0.8425,0.8361,0.8361,0.8361,0.7051,0.6264,0.6264,0.4948,0.422,0.4151,0.3482,0.2748,0.1946,0.1946,0.0872,-0.121,-0.2345,-0.2945,-0.3145,-0.5592,-0.7042,-0.7687,-0.9558,-1.1197,-1.2626,-1.3408,-1.4501,-1.5941,-1.7632,-2.0065,-2.2772,-2.3921,-2.4768,-2.5379,-2.573,-2.6505,-2.7334,-2.7595,-2.784,-2.8047,-2.8102,-2.8102,-2.8183,-2.8525,-2.8576,-2.8633,-2.9104,-2.9212,-2.9254,-2.9475,-2.9533,-2.9533,-2.9456,-2.9438,-2.9418,-2.9353,-2.8883,-2.8529,-2.8478,-2.8047,-2.7701,-2.7701,-2.743,-2.7244,-2.7244,-2.6956,-2.6725,-2.6725,-2.6725,-2.6539,-2.6175,-2.5465,-2.4981,-2.4902,-2.5176,-2.5329,-2.5291,-2.4017,-2.342,-2.3691,-2.2831,-2.2267,-2.2081,-2.1636,-2.1375,-2.1326,-2.0898,-2.0699,0.6894,0.8264,0.9787,1.1357,1.1521,1.1819,1.3831,1.5973,1.6964,1.4713,1.4435,1.4494,1.422,1.219,1.1037,1.2525,1.0929,0.9484,0.9484,0.928,0.9151,0.9151,0.9151,0.9151,0.9151,0.8565,0.8301,0.849,0.7377,0.6793,0.699,0.6133,0.5404,0.4935,0.4671,0.3941,0.2815,0.3211,0.2809,0.1541,-0.0268,-0.1541,-0.2341,-0.3737,-0.486,-0.5905,-0.8302,-0.9781,-1.0788,-1.2907,-1.4483,-1.5746,-1.8637,-2.0886,-2.2694,-2.3721,-2.4561,-2.5271,-2.6025,-2.6852,-2.7577,-2.7869,-2.802,-2.8129,-2.8334,-2.8404,-2.8482,-2.8767,-2.8858,-2.8905,-2.9071,-2.9115,-2.9163,-2.9375,-2.9513,-2.957,-2.9514,-2.9476,-2.9378,-2.9191,-2.885,-2.8601,-2.8576,-2.8396,-2.8183,-2.7982,-2.7851,-2.7695,-2.7535,-2.7213,-2.7021,-2.7021,-2.6607,-2.6367,-2.647,-2.5726,-2.5275,-2.5275,-2.4648,-2.4282,-2.4282,-2.3623,-2.3334,-2.345,-2.292,-2.2466,-2.2081,-2.1636,-2.1229,-2.0947,-2.0799,-2.0699,0.5782,0.7358,0.8995,1.0406,0.0,1.2105,1.5411,1.7588,1.8235,1.5815,1.6372,1.7228,1.6891,1.4231,1.2573,1.4273,1.1831,0.974,0.974,0.9612,0.9912,1.1107,1.0139,0.9768,1.0747,0.9216,0.8247,0.8495,0.7712,0.7321,0.7587,0.706,0.6457,0.5986,0.599,0.5394,0.4207,0.4432,0.4151,0.3434,0.1508,0.0066,-0.1003,-0.2074,-0.3272,-0.4587,-0.6538,-0.8035,-0.9261,-1.1759,-1.3996,-1.6141,-1.8887,-2.0864,-2.2296,-2.336,-2.4337,-2.5239,-2.6235,-2.7134,-2.7869,-2.8156,-2.8308,-2.8464,-2.8772,-2.8865,-2.8934,-2.9219,-2.928,-2.928,-2.928,-2.9258,-2.9258,-2.9476,-2.971,-2.9877,-2.9794,-2.9657,-2.9514,-2.9299,-2.8883,-2.8576,-2.8576,-2.8422,-2.8264,-2.8129,-2.7936,-2.7783,-2.7713,-2.7321,-2.7053,-2.7053,-2.6488,-2.621,-2.6505,-2.5762,-2.5313,-2.5313,-2.4282,-2.3638,-2.3551,-2.3377,-2.3172,-2.2979,-2.2799,-2.2512,-2.2081,-2.1636,-2.1229,-2.0947,-2.0749,-2.0699,0.5774,0.6915,0.8488,1.2731,1.3299,1.37,1.7202,1.6637,1.5386,1.5386,1.8178,2.0644,2.0626,1.799,1.5689,1.5253,1.2494,1.0382,1.0382,0.9939,1.0952,1.4716,1.1576,1.0356,1.3531,1.0672,0.8597,0.8597,0.827,0.8081,0.8032,0.7697,0.7437,0.7386,0.7386,0.7111,0.6441,0.5567,0.4728,0.4022,0.2616,0.1651,0.1071,-0.0935,-0.2534,-0.373,-0.4259,-0.5894,-0.8308,-0.9629,-1.2947,-1.717,-1.8074,-1.9724,-2.1732,-2.2789,-2.4004,-2.5239,-2.6235,-2.727,-2.8156,-2.8482,-2.8791,-2.9071,-2.94,-2.9514,-2.9568,-2.9817,-2.9904,-2.9904,-2.9904,-2.9802,-2.9763,-2.9952,-3.0256,-3.0472,-3.0419,-3.0138,-2.9886,-2.9815,-2.9098,-2.8485,-2.8504,-2.8075,-2.78,-2.8075,-2.7607,-2.7338,-2.7642,-2.71,-2.6691,-2.6691,-2.6332,-2.6104,-2.6104,-2.5351,-2.4902,-2.4902,-2.423,-2.3696,-2.3406,-2.326,-2.2905,-2.2314,-2.2267,-2.2221,-2.2081,-2.1636,-2.1375,-2.1375,-2.0947,-2.0699,0.4463,0.5932,0.7928,1.2088,1.3128,1.3992,1.7259,1.9512,2.0984,2.1233,2.2417,2.3299,2.292,2.0532,1.9191,2.0932,1.8575,1.6485,1.6485,1.6362,1.668,1.7775,1.6849,1.6483,1.745,1.6352,1.5712,1.5943,1.5665,1.445,1.2214,1.1474,1.0092,0.7882,0.7942,0.7603,0.6913,0.6823,0.6289,0.5261,0.388,0.2669,0.158,0.0063,-0.1072,-0.1891,-0.3446,-0.4994,-0.67,-1.0479,-1.3058,-1.4917,-1.8201,-1.9914,-2.0735,-2.2966,-2.4337,-2.5239,-2.6235,-2.7367,-2.8373,-2.87,-2.9104,-2.9456,-2.9602,-2.9633,-2.9683,-2.9861,-2.9904,-2.9904,-2.9904,-3.0005,-3.0121,-3.0131,-3.0217,-3.0312,-3.0378,-3.0183,-2.987,-2.9585,-2.9202,-2.8851,-2.8608,-2.8422,-2.8291,-2.8129,-2.7783,-2.7413,-2.7036,-2.6825,-2.6691,-2.6691,-2.6104,-2.5799,-2.6068,-2.5082,-2.4574,-2.4799,-2.4245,-2.3839,-2.3551,-2.3098,-2.274,-2.2466,-2.1921,-2.1636,-2.1589,-2.1131,-2.0898,-2.0898,-2.0749,-2.0699,0.3936,0.547,0.7489,1.192,1.3032,1.4336,1.9034,2.1761,2.3766,2.5367,2.5975,2.6097,2.5765,2.3516,2.2163,2.3604,2.1331,1.9374,1.9374,1.9209,1.9629,2.11,1.9858,1.9378,2.0657,1.931,1.8448,1.8645,1.861,1.7743,1.5797,1.5397,1.387,1.0903,1.0739,0.9903,0.8247,0.7914,0.7333,0.6461,0.5038,0.3896,0.2842,0.1337,0.0307,-0.043,-0.2566,-0.4308,-0.5809,-0.8894,-1.1338,-1.3296,-1.5915,-1.8177,-2.0226,-2.2093,-2.3825,-2.5399,-2.6437,-2.76,-2.8646,-2.8956,-2.9297,-2.9625,-2.9844,-2.9894,-2.995,-3.0186,-3.0258,-3.0258,-3.0258,-3.0384,-3.0455,-3.0288,-3.0337,-3.0442,-3.052,-3.0282,-3.0004,-2.9734,-2.9363,-2.9052,-2.8837,-2.87,-2.8518,-2.8326,-2.8037,-2.7636,-2.6989,-2.6891,-2.6858,-2.6725,-2.612,-2.5652,-2.5512,-2.4847,-2.4328,-2.4173,-2.4036,-2.3882,-2.3696,-2.292,-2.2328,-2.2049,-2.1458,-2.1131,-2.1131,-2.0848,-2.0699,-2.0699,-2.0699,-2.0699,0.3997,0.5658,0.7696,1.2549,1.397,1.586,2.2294,2.3723,2.4627,2.7862,2.8562,2.8562,2.8536,2.6574,2.4796,2.4335,2.2177,2.0544,2.0522,2.0152,2.1129,2.4475,2.1649,2.0565,2.3458,2.0824,1.8927,1.8963,1.9301,1.9381,1.9057,1.909,1.7847,1.5101,1.4425,1.2742,0.9873,0.8712,0.7896,0.7509,0.606,0.5042,0.4453,0.2789,0.1645,0.0851,-0.1705,-0.3578,-0.4876,-0.5712,-0.8389,-1.2012,-1.2188,-1.5366,-1.9961,-2.0752,-2.2996,-2.5735,-2.6779,-2.7942,-2.8979,-2.9217,-2.9456,-2.9731,-3.0113,-3.0221,-3.0285,-3.0678,-3.0774,-3.0799,-3.0799,-3.0804,-3.0725,-3.0416,-3.0568,-3.0764,-3.0704,-3.0442,-3.0213,-3.0094,-2.96,-2.9142,-2.9098,-2.8837,-2.8612,-2.8543,-2.8299,-2.7908,-2.7321,-2.7132,-2.6954,-2.6624,-2.6156,-2.5486,-2.4563,-2.4511,-2.4147,-2.3172,-2.3551,-2.3797,-2.3696,-2.2725,-2.1955,-2.1458,-2.0983,-2.0749,-2.0699,-2.0699,-2.0699,-2.0699,-2.0699,-2.0699,0.3533,0.7057,1.1189,1.5842,2.092,2.5229,2.687,2.7027,2.7085,2.8004,2.8291,2.8282,2.8017,2.7761,2.7438,2.7022,2.6631,2.6298,2.6042,2.5912,2.6144,2.6939,2.6282,2.6093,2.6991,2.6376,2.6028,2.6305,2.6396,2.5233,2.2431,2.0351,1.7697,1.4354,1.2184,1.0624,0.9687,0.8712,0.8051,0.762,0.6544,0.571,0.5058,0.3781,0.2895,0.2156,-0.0641,-0.1645,-0.1517,-0.4022,-0.6579,-0.9054,-1.1606,-1.5216,-1.9253,-2.1494,-2.4006,-2.6471,-2.7278,-2.8252,-2.9142,-2.9251,-2.9661,-3.0114,-3.0356,-3.0356,-3.0329,-3.05,-3.0639,-3.0711,-3.0711,-3.0763,-3.0788,-3.0712,-3.0701,-3.0691,-3.0642,-3.0554,-3.0394,-3.0013,-2.9836,-2.9567,-2.9086,-2.8962,-2.8749,-2.8281,-2.8156,-2.7964,-2.7624,-2.667,-2.6012,-2.5907,-2.5244,-2.4418,-2.3488,-2.3803,-2.3621,-2.2543,-2.2589,-2.2785,-2.3068,-2.2979,-2.2603,-2.1955,-2.1506,-2.1082,-2.0699,-2.0699,-2.0699,-2.0699,-2.0699,-2.0699,0.2939,0.5836,0.9719,1.6348,2.3235,2.8378,2.8309,2.8201,2.8045,2.7858,2.7971,2.8073,2.7886,2.8027,2.8083,2.7886,2.7954,2.7982,2.7789,2.776,2.773,2.7683,2.7701,2.7742,2.7897,2.7897,2.7982,2.8156,2.8156,2.7356,2.5512,2.2984,2.0496,1.8104,1.4565,1.2299,1.1311,0.9807,0.8705,0.8131,0.7812,0.7219,0.6406,0.4816,0.3765,0.3092,0.1071,0.0397,0.0567,-0.1814,-0.3834,-0.5678,-0.8655,-1.2201,-1.597,-1.9515,-2.2585,-2.5215,-2.6982,-2.8328,-2.9306,-2.9636,-3.0017,-3.0366,-3.0536,-3.0549,-3.0513,-3.0606,-3.0696,-3.0746,-3.0746,-3.078,-3.0806,-3.0791,-3.0774,-3.0722,-3.0576,-3.0558,-3.0452,-3.0144,-2.9954,-2.9744,-2.9437,-2.9166,-2.8892,-2.8565,-2.8386,-2.8192,-2.7886,-2.7057,-2.6303,-2.5697,-2.5061,-2.4143,-2.2789,-2.3084,-2.2936,-2.1908,-2.2095,-2.2314,-2.2512,-2.2558,-2.2466,-2.2128,-2.1188,-2.061,-2.0372,-2.0182,-2.0093,-2.0093,-2.0283,-2.0283,0.2341,0.4481,0.8093,1.675,2.3347,2.7801,2.8146,2.8255,2.8101,2.7587,2.7672,2.7811,2.7783,2.784,2.7869,2.7783,2.784,2.7811,2.7624,2.7595,2.7552,2.7444,2.7396,2.7378,2.7457,2.7487,2.7517,2.7577,2.7654,2.7701,2.7701,2.5366,2.3508,2.2364,1.8181,1.5061,1.3246,1.1296,0.9799,0.883,0.8995,0.8613,0.7806,0.6063,0.491,0.4232,0.309,0.2597,0.2378,0.063,-0.0978,-0.256,-0.5447,-0.8846,-1.2663,-1.7267,-2.0811,-2.3733,-2.6657,-2.8415,-2.9402,-3.0027,-3.0354,-3.0539,-3.0654,-3.068,-3.0677,-3.0723,-3.0753,-3.0776,-3.0776,-3.0798,-3.0818,-3.0819,-3.0813,-3.0731,-3.055,-3.0499,-3.0444,-3.0292,-2.9996,-2.9767,-2.9767,-2.9377,-2.9048,-2.9048,-2.8773,-2.843,-2.8102,-2.7507,-2.6753,-2.5694,-2.5006,-2.3989,-2.2292,-2.2457,-2.2257,-2.1313,-2.1623,-2.1894,-2.2002,-2.1908,-2.1908,-2.2002,-2.0832,-2.0194,-2.0105,-1.9772,-1.9629,-1.9629,-1.9965,-1.9901,0.1735,0.652,1.2892,2.0669,2.3173,2.45,2.7306,2.7829,2.7642,2.7376,2.7496,2.7539,2.7276,2.7577,2.7754,2.7289,2.7535,2.7582,2.6859,2.6759,2.6657,2.6435,2.6191,2.6177,2.6438,2.6623,2.6871,2.7172,2.75,2.7701,2.7701,2.5189,2.3234,2.2092,1.9198,1.6277,1.3404,1.2743,1.149,0.9607,0.881,0.8448,0.8461,0.7759,0.7165,0.6573,0.4976,0.4689,0.5217,0.3116,0.1106,-0.109,-0.4675,-0.8533,-1.2618,-1.7753,-2.1325,-2.4115,-2.7344,-2.882,-2.9414,-3.0139,-3.0438,-3.0525,-3.0657,-3.0618,-3.0539,-3.055,-3.0622,-3.0714,-3.0714,-3.0801,-3.0886,-3.0889,-3.0832,-3.0748,-3.0537,-3.0503,-3.0418,-3.0176,-2.9853,-2.9626,-2.9626,-2.9416,-2.9251,-2.9251,-2.8971,-2.8652,-2.8286,-2.7009,-2.5911,-2.5464,-2.4318,-2.317,-2.2108,-2.2076,-2.1744,-2.0848,-2.0848,-2.1082,-2.1458,-2.1082,-2.1082,-2.1506,-2.1313,-2.1019,-2.0599,-2.0549,-2.0549,-2.0549,-2.0599,-2.0372,0.1595,0.6874,1.2971,1.8851,2.1811,2.4094,2.7199,2.7897,2.7783,2.7465,2.7465,2.7496,2.7355,2.7413,2.7444,2.7181,2.7181,2.7004,2.6538,2.6469,2.6417,2.6241,2.6082,2.6085,2.6245,2.6193,2.6298,2.6573,2.6723,2.6839,2.6954,2.4705,2.3405,2.335,1.9879,1.7554,1.6599,1.4287,1.2168,1.019,0.9496,0.9183,0.9311,1.0179,0.967,0.7978,0.6656,0.6318,0.6523,0.4674,0.3023,0.137,-0.1755,-0.5111,-0.881,-1.3643,-1.8221,-2.2457,-2.5553,-2.7951,-2.9757,-3.0406,-3.0643,-3.068,-3.0742,-3.0703,-3.0678,-3.0678,-3.0703,-3.076,-3.08,-3.0852,-3.0899,-3.0899,-3.0875,-3.0796,-3.0604,-3.0561,-3.048,-3.0205,-3.004,-2.9901,-2.9787,-2.9513,-2.9293,-2.9251,-2.87,-2.8219,-2.8039,-2.704,-2.6079,-2.5403,-2.4658,-2.3571,-2.2108,-2.1983,-2.1649,-2.0749,-2.0699,-2.0799,-2.0997,-2.0799,-2.0799,-2.0997,-2.0772,-2.051,-2.0321,-2.008,-1.999,-1.999,-1.999,-1.9875,0.1526,0.6688,1.2112,1.667,2.0728,2.4377,2.7344,2.8093,2.8065,2.7672,2.7539,2.7496,2.7496,2.7386,2.7213,2.7085,2.6923,2.6691,2.6418,2.6383,2.6314,2.6134,2.6063,2.601,2.601,2.5848,2.5848,2.601,2.6101,2.6191,2.6349,2.4759,2.3973,2.4221,2.1147,1.9351,1.9021,1.5775,1.3391,1.1912,1.1064,1.0893,1.1296,1.2246,1.1907,1.0428,0.909,0.8197,0.7558,0.6021,0.4682,0.3437,0.0597,-0.2383,-0.562,-1.0206,-1.5375,-2.0565,-2.3787,-2.6969,-2.9727,-3.0546,-3.0801,-3.0801,-3.0801,-3.0801,-3.0801,-3.0801,-3.0801,-3.0841,-3.0899,-3.0899,-3.0899,-3.0899,-3.0899,-3.084,-3.0645,-3.0565,-3.0489,-3.0294,-3.0178,-3.0048,-2.9916,-2.957,-2.9272,-2.9209,-2.8578,-2.802,-2.7794,-2.721,-2.6505,-2.5628,-2.4877,-2.3963,-2.2804,-2.1955,-2.1315,-2.0894,-2.0673,-2.0485,-2.0347,-2.0321,-2.0372,-2.0536,-2.0042,-1.9927,-2.0156,-1.9875,-1.9733,-1.9733,-1.9733,-1.9681,0.1466,0.6224,1.162,1.62,2.0627,2.467,2.7691,2.837,2.8291,2.7954,2.7672,2.7496,2.7496,2.7496,2.7324,2.6791,2.6858,2.6842,2.6365,2.6295,2.6189,2.597,2.5659,2.5454,2.5454,2.553,2.5605,2.5642,2.5974,2.6206,2.6206,2.5837,2.5056,2.3769,2.366,2.2054,1.8859,1.7045,1.6036,1.5793,1.3972,1.3834,1.5148,1.3461,1.3605,1.501,1.2747,1.0622,0.8613,0.7405,0.6049,0.4464,0.1082,-0.1928,-0.4941,-0.9836,-1.4519,-1.8994,-2.3047,-2.6348,-2.8996,-3.0351,-3.0801,-3.0801,-3.0801,-3.0801,-3.0801,-3.0801,-3.086,-3.0899,-3.0899,-3.0899,-3.0899,-3.0899,-3.0899,-3.0847,-3.0644,-3.0492,-3.0408,-3.0399,-3.008,-2.9814,-2.9795,-2.9527,-2.9272,-2.9209,-2.8906,-2.8399,-2.771,-2.7344,-2.6923,-2.6222,-2.4563,-2.3781,-2.4578,-2.1867,-2.0445,-2.1329,-2.0531,-1.9862,-1.9473,-1.9294,-1.9426,-2.0042,-1.9438,-1.9645,-2.0649,-2.0649,-2.0649,-2.0649,-2.0649,-2.0385,0.04,0.3353,0.7765,1.502,1.8145,2.0988,2.6968,2.8272,2.8047,2.7565,2.7369,2.7261,2.7038,2.6989,2.6923,2.6725,2.6589,2.6312,2.5775,2.5717,2.5567,2.5107,2.495,2.4871,2.4871,2.4815,2.4895,2.5246,2.54,2.5513,2.5535,2.5594,2.5175,2.4181,2.3659,2.1793,1.8512,1.8056,1.7191,1.5911,1.5433,1.5469,1.5911,1.6488,1.6433,1.5884,1.6035,1.4831,1.2644,1.0976,1.0046,0.9527,0.8302,0.4087,-0.1489,-0.3255,-0.9086,-1.6593,-1.9904,-2.3456,-2.6909,-2.9257,-3.0372,-3.0801,-3.0801,-3.0801,-3.0801,-3.0801,-3.086,-3.0901,-3.0907,-3.0905,-3.0899,-3.0899,-3.0899,-3.0882,-3.0811,-3.076,-3.0673,-3.0542,-3.0248,-2.9943,-2.9804,-2.9348,-2.8952,-2.8906,-2.8453,-2.7918,-2.7422,-2.6555,-2.5793,-2.5357,-2.4168,-2.3299,-2.3025,-2.1955,-2.1046,-2.0518,-2.0169,-1.9798,-1.942,-1.9344,-1.9384,-1.9617,-1.9032,-1.9386,-2.0699,-2.0699,-2.0699,-2.0712,-2.0372,-2.0321,-0.0733,0.222,0.675,1.4411,1.7654,2.0669,2.7139,2.841,2.8093,2.7683,2.7352,2.7053,2.6825,2.6539,2.628,2.628,2.5994,2.5642,2.5285,2.5246,2.5036,2.4517,2.4574,2.4614,2.442,2.441,2.4549,2.491,2.4934,2.4934,2.4942,2.5005,2.4764,2.4227,2.3104,2.1612,1.972,1.9597,1.8856,1.7543,1.7255,1.7371,1.79,1.8559,1.8494,1.7867,1.8127,1.6995,1.49,1.3484,1.2636,1.2234,1.2234,0.8418,0.2721,0.1124,-0.4735,-1.2567,-1.7322,-2.1387,-2.5015,-2.8481,-2.9962,-3.045,-3.0723,-3.0801,-3.0801,-3.0841,-3.088,-3.0901,-3.0909,-3.0907,-3.0905,-3.0905,-3.0901,-3.0899,-3.0899,-3.0909,-3.0859,-3.0728,-3.0413,-3.0121,-2.9993,-2.9386,-2.8895,-2.8821,-2.8345,-2.7847,-2.743,-2.6522,-2.5688,-2.5032,-2.4015,-2.3126,-2.2536,-2.1782,-2.1046,-2.0332,-1.9978,-1.9552,-1.8999,-1.8922,-1.8975,-1.921,-1.862,-1.8927,-2.0246,-2.022,-2.0372,-2.0712,-2.0372,-2.0372,0.0,0.0,0.0,1.4212,1.9156,2.3803,2.8045,2.8617,2.8268,2.8334,2.7654,2.7006,2.6973,2.6158,2.5503,2.5503,2.516,2.4902,2.4863,2.4863,2.4688,2.421,2.4486,2.4527,2.4013,2.4323,2.4549,2.4589,2.4589,2.4549,2.4395,2.4204,2.3989,2.3761,2.228,2.1787,2.2476,2.1649,2.1151,2.0991,1.9506,1.9705,2.1348,1.9504,1.963,2.1175,1.893,1.689,1.5123,1.4745,1.3698,1.2314,1.2314,1.0579,0.7465,0.2846,-0.1802,-0.6962,-1.5256,-2.01,-2.3371,-2.789,-2.9425,-2.9642,-3.0443,-3.0713,-3.0732,-3.0833,-3.0855,-3.0858,-3.0877,-3.0888,-3.0894,-3.0894,-3.0907,-3.0899,-3.0899,-3.0899,-3.0905,-3.0898,-3.0586,-3.0297,-3.029,-2.9691,-2.9159,-2.8999,-2.864,-2.8228,-2.773,-2.7352,-2.6656,-2.5436,-2.4147,-2.3342,-2.3342,-2.1295,-2.0244,-2.0758,-1.994,-1.904,-1.8139,-1.7995,-1.8213,-1.8744,-1.8201,-1.8363,-1.9368,-1.919,-1.9645,-2.0699,-2.0699,-2.0699,-0.3209,0.0,0.0,0.0,0.0,0.0,2.2792,2.4579,2.5221,2.7255,2.7317,2.6922,2.6624,2.5941,2.5346,2.5098,2.4981,2.4799,2.4492,2.4142,2.3734,2.3304,2.3024,2.2921,2.3172,2.3319,2.3595,2.4204,2.4245,2.4204,2.4094,2.3967,2.3549,2.2813,2.2925,2.254,2.1577,2.1919,2.1682,2.0942,2.0727,2.0805,2.1086,2.0567,2.0582,2.0959,2.0088,1.9351,1.8646,1.72,1.699,1.7609,1.7609,1.4941,1.1024,0.9766,0.4209,-0.3442,-0.784,-1.3369,-1.902,-2.2483,-2.5232,-2.7343,-2.806,-2.8608,-2.9122,-2.9728,-2.9883,-2.9985,-3.0375,-3.0687,-3.0903,-3.0903,-3.0901,-3.0901,-3.0909,-3.0905,-3.0901,-3.0907,-3.0584,-3.0305,-3.0296,-2.985,-2.9297,-2.8721,-2.851,-2.8056,-2.7098,-2.6319,-2.5615,-2.4994,-2.3385,-2.2415,-2.2415,-2.1232,-2.0409,-2.0244,-1.9978,-1.9448,-1.8637,-1.8572,-1.8464,-1.8313,-1.771,-1.7929,-1.8958,-1.9475,-1.9876,-2.0207,-2.0536,-2.0699,-0.4345,-0.2609,0.0255,0.5617,0.0,0.0,1.8584,2.1611,2.3391,2.5252,2.6461,2.7066,2.6791,2.6104,2.546,2.5214,2.4863,2.4477,2.4078,2.3565,2.3054,2.2603,2.2267,2.2142,2.2249,2.2466,2.2875,2.3551,2.3595,2.3653,2.3769,2.3668,2.3445,2.3083,2.3127,2.2823,2.2003,2.198,2.1632,2.0917,2.1118,2.1119,2.0861,2.0861,2.078,2.0663,2.0308,2.01,1.9901,1.8815,1.8881,1.969,1.969,1.7491,1.4104,1.2194,0.6732,-0.0431,-0.5332,-1.1094,-1.6823,-2.0202,-2.366,-2.6655,-2.7392,-2.8302,-2.9156,-2.9614,-2.9592,-2.9551,-3.0079,-3.0397,-3.0624,-3.0813,-3.088,-3.0901,-3.0892,-3.0892,-3.0891,-3.0891,-3.0702,-3.0547,-3.0547,-3.018,-2.9621,-2.8838,-2.8542,-2.8059,-2.7049,-2.6318,-2.5648,-2.507,-2.3541,-2.2415,-2.203,-2.1224,-2.0485,-2.0042,-1.9991,-1.9695,-1.9064,-1.9064,-1.8839,-1.841,-1.8061,-1.817,-1.8798,-1.9004,-1.9411,-1.9991,-2.0271,-2.0536,-0.5338,-0.3668,-0.1083,0.3978,0.649,0.0,1.4702,1.861,2.1351,2.2305,2.4806,2.676,2.6643,2.6234,2.5815,2.5503,2.4823,2.4219,2.3739,2.3201,2.2649,2.2175,2.1988,2.1813,2.1423,2.1779,2.2235,2.2754,2.2889,2.3083,2.3407,2.3363,2.3538,2.4024,2.3167,2.2847,2.3111,2.2139,2.1409,2.0968,2.1007,2.0907,2.0693,2.0579,2.0496,2.0342,1.9975,1.9762,1.9726,1.969,1.9639,1.9566,1.9515,1.8389,1.6327,1.2034,0.7247,0.1924,-0.5179,-1.102,-1.5918,-1.9607,-2.3242,-2.6331,-2.7377,-2.8535,-2.9557,-2.9812,-2.9572,-2.9363,-2.9895,-3.0023,-3.0131,-3.0677,-3.0801,-3.0823,-3.0892,-3.0897,-3.0898,-3.0898,-3.0898,-3.0898,-3.0898,-3.0604,-3.0078,-2.9197,-2.8758,-2.8197,-2.7322,-2.6889,-2.6317,-2.5505,-2.402,-2.2908,-2.2369,-2.1121,-2.0359,-2.0219,-2.0144,-1.9901,-1.946,-1.9473,-1.9263,-1.8851,-1.8798,-1.8744,-1.8744,-1.8213,-1.8673,-1.994,-1.9991,-2.0207,-0.6658,-0.5067,-0.3175,-0.1204,0.0687,0.0,0.8965,1.155,1.3843,1.7471,2.0781,2.3043,2.3026,2.4889,2.6195,2.5411,2.4942,2.4589,2.4219,2.3039,2.2221,2.2128,2.1444,2.1082,2.1375,2.1458,2.1732,2.2221,2.2649,2.2934,2.3038,2.3319,2.3668,2.4078,2.3846,2.3579,2.3264,2.3111,2.2446,2.1399,2.1224,2.0953,2.0527,2.0392,2.0289,2.0135,2.0025,1.9884,1.9762,1.9726,1.9369,1.8765,1.8321,1.7236,1.5794,1.4543,0.9352,0.254,-0.0584,-0.7141,-1.4556,-1.7049,-1.9682,-2.2292,-2.4534,-2.5455,-2.6115,-2.7905,-2.8597,-2.8944,-2.9475,-2.9541,-2.9679,-3.0598,-3.0526,-3.0374,-3.0814,-3.0897,-3.0898,-3.0898,-3.0898,-3.0898,-3.0898,-3.0839,-3.0511,-2.9688,-2.8954,-2.8187,-2.7396,-2.6717,-2.6222,-2.6046,-2.3239,-2.2147,-2.4112,-2.0756,-1.9457,-2.1499,-2.093,-2.0372,-1.9901,-1.9901,-1.9708,-1.9263,-1.8946,-1.8637,-1.8247,-1.8518,-1.8934,-1.9512,-1.985,-2.0042,-0.7832,-0.6519,-0.513,-0.4191,-0.2392,0.0,0.0,0.7011,1.0094,1.3485,1.8211,2.1857,2.2197,2.4811,2.669,2.5872,2.5275,2.4823,2.4574,2.3157,2.1988,2.1779,2.1118,2.0799,2.1033,2.1033,2.1277,2.1732,2.2466,2.2889,2.2889,2.3304,2.3653,2.3852,2.3824,2.3658,2.3379,2.3239,2.2854,2.2293,2.1651,2.1228,2.1027,2.0581,2.0289,2.008,1.9833,1.9603,1.9479,1.8991,1.8352,1.7706,1.7784,1.6392,1.4351,1.3865,0.8613,0.153,0.0492,-0.6013,-1.4005,-1.5131,-1.8281,-2.1892,-2.3516,-2.4988,-2.6264,-2.7109,-2.7738,-2.8385,-2.9187,-2.9151,-2.9233,-3.0536,-3.0467,-3.0255,-3.0788,-3.0896,-3.0898,-3.0898,-3.0898,-3.0898,-3.0898,-3.0897,-3.0637,-2.9826,-2.9371,-2.8808,-2.8003,-2.724,-2.6247,-2.4921,-2.2483,-2.0896,-2.0896,-1.8418,-1.7429,-1.8706,-1.8372,-1.8058,-1.7844,-1.779,-1.7986,-1.8454,-1.8857,-1.8999,-1.8732,-1.8798,-1.8905,-1.9105,-1.9303,-1.9592,-0.9,-0.7957,-0.6911,-0.6175,-0.4446,-0.2458,0.0,0.0,0.0,0.896,1.4526,1.9273,2.0097,2.3543,2.6047,2.5463,2.5256,2.4996,2.4496,2.3216,2.2128,2.1589,2.1033,2.0699,2.0699,2.0699,2.0848,2.1229,2.2189,2.2754,2.2754,2.329,2.3638,2.3767,2.3638,2.361,2.364,2.3227,2.302,2.3016,2.22,2.1698,2.1506,2.0911,2.0397,2.003,1.9551,1.9281,1.908,1.8313,1.7504,1.6815,1.7113,1.5432,1.2815,1.2157,0.7052,0.0318,-0.0157,-0.6036,-1.3422,-1.4282,-1.8165,-2.2615,-2.318,-2.5201,-2.7201,-2.6808,-2.7261,-2.8066,-2.9062,-2.8989,-2.9027,-3.0539,-3.0497,-3.0257,-3.0785,-3.0894,-3.0898,-3.0898,-3.0898,-3.0898,-3.0898,-3.0897,-3.0676,-3.0021,-2.9802,-2.9404,-2.8596,-2.7362,-2.5695,-2.3433,-2.1069,-1.9032,-1.7422,-1.5953,-1.5308,-1.5833,-1.5705,-1.5612,-1.5612,-1.5612,-1.6206,-1.7499,-1.8519,-1.9121,-1.942,-1.9052,-1.8851,-1.8798,-1.8798,-1.9146,-1.0142,-0.9308,-0.8156,-0.7618,-0.6746,-0.5614,-0.383,0.0,-0.0255,0.2171,0.0,1.0504,1.1884,0.0,0.0,2.2017,2.413,2.5147,2.3313,2.3142,2.295,2.2128,2.1264,2.0699,2.0699,2.0699,2.0699,2.0799,2.167,2.2175,2.2175,2.3098,2.3809,2.4313,2.3852,2.3782,2.4234,2.3679,2.3221,2.2746,2.2879,2.2348,2.1218,2.1157,2.0666,1.9823,1.9391,1.9132,1.8893,1.8444,1.7679,1.6689,1.5513,1.3843,1.1997,1.0981,0.6287,0.0158,-0.1704,-0.6358,-1.2006,-1.5508,-1.9321,-2.2541,-2.2713,-2.4598,-2.6647,-2.6671,-2.754,-2.8548,-2.9149,-2.9251,-2.9491,-3.0628,-3.049,-3.025,-3.0781,-3.0894,-3.0898,-3.0898,-3.0898,-3.0898,-3.0898,-3.0897,-3.0873,-3.0784,-3.0159,-2.9404,-2.8596,-2.577,-2.3478,-2.2514,-1.8116,-1.6063,-1.8063,-1.5249,-1.4389,-1.6677,-1.605,-1.5612,-1.5612,-1.5612,-1.6206,-1.7499,-1.763,-1.827,-1.942,-1.9368,-1.9158,-1.8798,-1.8798,-1.8851,-1.0478,-0.9576,-0.8549,-0.8731,-0.7678,-0.6429,-0.5679,-0.4563,-0.3045,-0.0988,0.0,0.0,0.0,0.0,0.0,0.0,2.1699,2.2735,2.4006,2.3214,2.2053,2.0706,2.0858,2.0997,2.0749,2.0699,2.0699,2.0699,2.1575,2.2081,2.2081,2.3143,2.3937,2.4364,2.4256,2.4256,2.4338,2.4074,2.3869,2.3815,2.3325,2.2778,2.2139,2.146,2.0655,1.9752,1.9132,1.8793,1.8679,1.7867,1.7188,1.6471,1.4937,1.359,1.2327,1.0906,0.6292,0.0576,-0.0617,-0.5508,-1.1844,-1.5743,-1.8327,-2.018,-2.1683,-2.3414,-2.5045,-2.588,-2.6486,-2.7238,-2.8883,-2.8777,-2.8682,-3.0477,-3.0487,-3.0259,-3.0789,-3.0898,-3.0898,-3.0898,-3.0898,-3.0898,-3.0894,-3.0896,-3.0896,-3.0901,-2.9096,-2.7605,-2.7265,-2.3997,-2.1013,-1.9191,-1.6474,-1.4611,-1.4208,-1.2627,-1.2104,-1.3211,-1.2895,-1.2712,-1.2712,-1.3628,-1.4888,-1.6385,-1.7345,-1.8619,-2.0144,-1.9823,-1.9604,-1.95,-1.9198,-1.9146,-1.0933,-1.0218,-0.9384,-1.0021,-0.9169,-0.806,-0.7718,-0.6802,-0.5545,-0.3743,-0.0341,0.0,0.0,0.0,1.2966,1.7098,0.0,2.0704,2.346,2.3235,2.2048,2.0042,2.0333,2.0723,2.0699,2.0586,2.0549,2.0712,2.1444,2.1955,2.2081,2.3054,2.3852,2.4364,2.4542,2.4623,2.4608,2.4471,2.4471,2.4614,2.4035,2.3507,2.2991,2.2009,2.1023,2.0008,1.9107,1.863,1.8422,1.7476,1.6837,1.625,1.471,1.3679,1.2831,1.1057,0.6437,0.0993,0.0369,-0.5237,-1.2582,-1.5362,-1.7261,-1.8889,-2.1035,-2.2501,-2.3723,-2.5051,-2.5675,-2.6317,-2.8073,-2.8251,-2.835,-3.0003,-3.0367,-3.0428,-3.0827,-3.0898,-3.0898,-3.0898,-3.0898,-3.0898,-3.0903,-3.0147,-2.9574,-2.9632,-2.6982,-2.4915,-2.4741,-2.1624,-1.8627,-1.6509,-1.4967,-1.3299,-1.1413,-1.0913,-1.0716,-1.0634,-1.0561,-1.0561,-1.0624,-1.1665,-1.304,-1.4811,-1.6454,-1.8165,-1.9889,-1.9888,-1.9965,-2.0003,-1.9396,-1.9331,-1.1934,-1.174,-1.1303,-1.1794,-1.1856,-1.1538,-1.0458,-0.973,-0.8803,-0.6858,-0.5496,-0.3955,-0.1492,0.2316,0.63,1.0042,1.5843,0.0,0.0,2.309,2.4035,2.1199,1.9799,1.9512,2.0599,2.0271,2.0207,2.0649,2.1131,2.1636,2.2081,2.2754,2.3508,2.4354,2.4542,2.4759,2.5052,2.502,2.4847,2.4623,2.5182,2.4646,2.328,2.2895,2.203,2.0707,1.9461,1.8669,1.8266,1.7558,1.6879,1.6057,1.4664,1.3899,1.3314,1.1166,0.6504,0.1101,0.0264,-0.6253,-1.4239,-1.4328,-1.6781,-1.9907,-2.1291,-2.2164,-2.2996,-2.4359,-2.5572,-2.6497,-2.6556,-2.7818,-2.9068,-2.9135,-3.0035,-3.0877,-3.0898,-3.0898,-3.0898,-3.0898,-3.0898,-3.0898,-3.0903,-2.8263,-2.6222,-2.643,-2.371,-2.1434,-2.0784,-1.8376,-1.6411,-1.5618,-1.3242,-1.1672,-1.1589,-1.1287,-1.0932,-1.0622,-1.0434,-1.0371,-1.0561,-1.0301,-1.0989,-1.2852,-1.4387,-1.6032,-1.7809,-1.9401,-2.0131,-1.999,-1.9303,-1.9093,-1.1059,-1.0667,-1.0345,-1.1296,-1.1226,-1.1031,-1.1772,-1.1425,-1.0829,-1.0309,-0.9241,-0.7927,-0.6421,-0.4398,-0.1275,0.4077,0.6941,0.9869,0.0,1.6214,1.8313,2.0284,1.9517,1.9109,1.9888,1.9991,2.0207,2.0649,2.1396,2.1955,2.2081,2.3009,2.3921,2.4768,2.4942,2.5153,2.5513,2.5406,2.5313,2.5346,2.5313,2.4981,2.4394,2.3206,2.2118,2.1132,1.9694,1.8884,1.8461,1.8042,1.731,1.6293,1.5353,1.44,1.3314,1.1216,0.7807,0.3545,-0.1367,-0.6391,-1.1045,-1.3472,-1.5073,-1.6798,-2.0575,-2.1862,-2.2416,-2.4217,-2.4658,-2.4872,-2.6217,-2.6646,-2.6996,-2.7886,-2.8948,-2.9766,-2.9766,-3.0371,-3.0898,-3.0898,-3.0898,-3.0898,-3.0892,-2.6519,-2.3781,-2.5978,-2.3658,-2.0825,-1.8553,-1.5726,-1.3871,-1.3606,-1.2597,-1.1924,-1.1924,-1.1423,-1.0961,-1.0616,-1.0561,-1.0561,-1.0624,-1.0371,-1.1003,-1.28,-1.499,-1.6623,-1.7702,-1.994,-2.0733,-2.0131,-1.9708,-1.9604,-1.0744,-1.0485,-1.0345,-1.1296,-1.1226,-1.1219,-1.2451,-1.2435,-1.2051,-1.1989,-1.1628,-1.0767,-0.9058,-0.8783,-0.7022,-0.1567,0.0301,0.3012,0.0,1.1091,1.3502,1.6243,1.7557,1.8555,1.9463,1.9927,2.0396,2.0785,2.1623,2.2175,2.2314,2.3113,2.3964,2.4926,2.5137,2.5497,2.6049,2.5941,2.5977,2.6085,2.5888,2.5658,2.5304,2.4097,2.2948,2.1827,2.05,1.9434,1.8592,1.8307,1.7488,1.6349,1.5664,1.4675,1.3362,1.1416,0.7737,0.2923,-0.2588,-0.6806,-1.0167,-1.248,-1.4183,-1.5936,-1.9614,-2.116,-2.2024,-2.3554,-2.3781,-2.3824,-2.4925,-2.5387,-2.5807,-2.6671,-2.7785,-2.8732,-2.9125,-2.9785,-3.043,-3.0818,-3.0896,-3.0546,-2.9454,-2.5903,-2.3533,-2.4526,-2.1075,-1.7666,-1.5749,-1.3805,-1.2621,-1.2621,-1.2429,-1.2213,-1.2114,-1.1694,-1.1256,-1.0822,-1.0721,-1.0617,-1.0514,-1.0244,-1.0647,-1.169,-1.4809,-1.6677,-1.7113,-2.0038,-2.1121,-2.057,-2.0042,-1.9862]}]]